<?xml version="1.0" encoding="UTF-8" standalone="no" ?>
<gpx xmlns="http://www.topografix.com/GPX/1/1" xmlns:xsi="http://www.w3.org/2001/XMLSchema-instance" xsi:schemaLocation="http://www.topografix.com/GPX/1/1 http://www.topografix.com/GPX/1/1/gpx.xsd" version="1.1" creator="VisuGPX - https://www.visugpx.com">
  <metadata>
    <name>Randonnée La Bretèque</name>
    <desc><![CDATA[Randonnée en forêt au départ de la maison forestiere de la Bretèque]]></desc>
  </metadata>
  <trk>
    <name><![CDATA[Randonnée La Bretèque_1]]></name>
    <trkseg>
      <trkpt lat="49.48459" lon="1.1092">
        <ele>177</ele>
        <time>2017-06-20T14:14:11Z</time>
      </trkpt>
      <trkpt lat="49.48461" lon="1.1092">
        <ele>177</ele>
        <time>2017-06-20T14:14:11Z</time>
      </trkpt>
      <trkpt lat="49.48463" lon="1.10918">
        <ele>177</ele>
        <time>2017-06-20T14:14:11Z</time>
      </trkpt>
      <trkpt lat="49.48464" lon="1.10922">
        <ele>177</ele>
        <time>2017-06-20T14:14:11Z</time>
      </trkpt>
      <trkpt lat="49.48468" lon="1.10925">
        <ele>177</ele>
        <time>2017-06-20T14:14:11Z</time>
      </trkpt>
      <trkpt lat="49.48471" lon="1.10925">
        <ele>177</ele>
        <time>2017-06-20T14:14:26Z</time>
      </trkpt>
      <trkpt lat="49.48472" lon="1.10928">
        <ele>177</ele>
        <time>2017-06-20T14:14:26Z</time>
      </trkpt>
      <trkpt lat="49.48474" lon="1.10932">
        <ele>177</ele>
        <time>2017-06-20T14:14:26Z</time>
      </trkpt>
      <trkpt lat="49.48477" lon="1.10939">
        <ele>177</ele>
        <time>2017-06-20T14:14:26Z</time>
      </trkpt>
      <trkpt lat="49.48479" lon="1.10945">
        <ele>177</ele>
        <time>2017-06-20T14:14:41Z</time>
      </trkpt>
      <trkpt lat="49.48477" lon="1.10951">
        <ele>177</ele>
        <time>2017-06-20T14:14:41Z</time>
      </trkpt>
      <trkpt lat="49.48481" lon="1.10954">
        <ele>177</ele>
        <time>2017-06-20T14:14:41Z</time>
      </trkpt>
      <trkpt lat="49.48481" lon="1.10963">
        <ele>175</ele>
        <time>2017-06-20T14:14:41Z</time>
      </trkpt>
      <trkpt lat="49.48485" lon="1.10969">
        <ele>175</ele>
        <time>2017-06-20T14:14:58Z</time>
      </trkpt>
      <trkpt lat="49.48485" lon="1.10978">
        <ele>175</ele>
        <time>2017-06-20T14:14:58Z</time>
      </trkpt>
      <trkpt lat="49.48487" lon="1.10982">
        <ele>175</ele>
        <time>2017-06-20T14:14:58Z</time>
      </trkpt>
      <trkpt lat="49.48489" lon="1.10987">
        <ele>175</ele>
        <time>2017-06-20T14:14:58Z</time>
      </trkpt>
      <trkpt lat="49.48489" lon="1.10994">
        <ele>175</ele>
        <time>2017-06-20T14:15:14Z</time>
      </trkpt>
      <trkpt lat="49.48491" lon="1.11001">
        <ele>175</ele>
        <time>2017-06-20T14:15:14Z</time>
      </trkpt>
      <trkpt lat="49.48493" lon="1.11006">
        <ele>175</ele>
        <time>2017-06-20T14:15:14Z</time>
      </trkpt>
      <trkpt lat="49.48493" lon="1.11011">
        <ele>175</ele>
        <time>2017-06-20T14:15:14Z</time>
      </trkpt>
      <trkpt lat="49.48494" lon="1.11016">
        <ele>175</ele>
        <time>2017-06-20T14:15:31Z</time>
      </trkpt>
      <trkpt lat="49.48496" lon="1.11021">
        <ele>175</ele>
        <time>2017-06-20T14:15:31Z</time>
      </trkpt>
      <trkpt lat="49.48502" lon="1.11033">
        <ele>175</ele>
        <time>2017-06-20T14:15:31Z</time>
      </trkpt>
      <trkpt lat="49.48506" lon="1.11039">
        <ele>175</ele>
        <time>2017-06-20T14:15:31Z</time>
      </trkpt>
      <trkpt lat="49.48506" lon="1.11045">
        <ele>174</ele>
        <time>2017-06-20T14:15:45Z</time>
      </trkpt>
      <trkpt lat="49.48508" lon="1.11051">
        <ele>174</ele>
        <time>2017-06-20T14:15:46Z</time>
      </trkpt>
      <trkpt lat="49.4851" lon="1.11057">
        <ele>174</ele>
        <time>2017-06-20T14:15:46Z</time>
      </trkpt>
      <trkpt lat="49.48513" lon="1.11061">
        <ele>174</ele>
        <time>2017-06-20T14:15:47Z</time>
      </trkpt>
      <trkpt lat="49.48515" lon="1.11065">
        <ele>174</ele>
        <time>2017-06-20T14:16:02Z</time>
      </trkpt>
      <trkpt lat="49.48514" lon="1.11075">
        <ele>174</ele>
        <time>2017-06-20T14:16:02Z</time>
      </trkpt>
      <trkpt lat="49.48516" lon="1.11077">
        <ele>174</ele>
        <time>2017-06-20T14:16:02Z</time>
      </trkpt>
      <trkpt lat="49.4852" lon="1.11084">
        <ele>174</ele>
        <time>2017-06-20T14:16:02Z</time>
      </trkpt>
      <trkpt lat="49.48527" lon="1.11091">
        <ele>174</ele>
        <time>2017-06-20T14:16:27Z</time>
      </trkpt>
      <trkpt lat="49.48529" lon="1.11092">
        <ele>174</ele>
        <time>2017-06-20T14:16:27Z</time>
      </trkpt>
      <trkpt lat="49.48529" lon="1.11095">
        <ele>174</ele>
        <time>2017-06-20T14:16:27Z</time>
      </trkpt>
      <trkpt lat="49.48529" lon="1.11101">
        <ele>174</ele>
        <time>2017-06-20T14:16:27Z</time>
      </trkpt>
      <trkpt lat="49.48527" lon="1.1111">
        <ele>174</ele>
        <time>2017-06-20T14:16:27Z</time>
      </trkpt>
      <trkpt lat="49.4853" lon="1.11116">
        <ele>174</ele>
        <time>2017-06-20T14:16:41Z</time>
      </trkpt>
      <trkpt lat="49.48533" lon="1.11126">
        <ele>171</ele>
        <time>2017-06-20T14:16:41Z</time>
      </trkpt>
      <trkpt lat="49.48538" lon="1.11131">
        <ele>171</ele>
        <time>2017-06-20T14:16:41Z</time>
      </trkpt>
      <trkpt lat="49.48542" lon="1.11133">
        <ele>178</ele>
        <time>2017-06-20T14:16:41Z</time>
      </trkpt>
      <trkpt lat="49.48544" lon="1.11139">
        <ele>178</ele>
        <time>2017-06-20T14:16:58Z</time>
      </trkpt>
      <trkpt lat="49.48548" lon="1.1114">
        <ele>178</ele>
        <time>2017-06-20T14:16:58Z</time>
      </trkpt>
      <trkpt lat="49.48553" lon="1.11146">
        <ele>178</ele>
        <time>2017-06-20T14:16:58Z</time>
      </trkpt>
      <trkpt lat="49.48555" lon="1.11151">
        <ele>178</ele>
        <time>2017-06-20T14:16:58Z</time>
      </trkpt>
      <trkpt lat="49.48557" lon="1.11152">
        <ele>178</ele>
        <time>2017-06-20T14:17:14Z</time>
      </trkpt>
      <trkpt lat="49.48561" lon="1.1116">
        <ele>178</ele>
        <time>2017-06-20T14:17:14Z</time>
      </trkpt>
      <trkpt lat="49.48564" lon="1.11163">
        <ele>178</ele>
        <time>2017-06-20T14:17:14Z</time>
      </trkpt>
      <trkpt lat="49.48569" lon="1.11172">
        <ele>178</ele>
        <time>2017-06-20T14:17:14Z</time>
      </trkpt>
      <trkpt lat="49.48571" lon="1.11175">
        <ele>178</ele>
        <time>2017-06-20T14:17:30Z</time>
      </trkpt>
      <trkpt lat="49.48576" lon="1.11181">
        <ele>178</ele>
        <time>2017-06-20T14:17:30Z</time>
      </trkpt>
      <trkpt lat="49.48581" lon="1.11187">
        <ele>178</ele>
        <time>2017-06-20T14:17:30Z</time>
      </trkpt>
      <trkpt lat="49.48588" lon="1.11194">
        <ele>178</ele>
        <time>2017-06-20T14:17:30Z</time>
      </trkpt>
      <trkpt lat="49.48591" lon="1.11198">
        <ele>178</ele>
        <time>2017-06-20T14:17:45Z</time>
      </trkpt>
      <trkpt lat="49.48595" lon="1.11201">
        <ele>178</ele>
        <time>2017-06-20T14:17:45Z</time>
      </trkpt>
      <trkpt lat="49.48598" lon="1.11203">
        <ele>178</ele>
        <time>2017-06-20T14:17:45Z</time>
      </trkpt>
      <trkpt lat="49.48603" lon="1.11203">
        <ele>178</ele>
        <time>2017-06-20T14:17:45Z</time>
      </trkpt>
      <trkpt lat="49.48606" lon="1.11208">
        <ele>178</ele>
        <time>2017-06-20T14:18:27Z</time>
      </trkpt>
      <trkpt lat="49.48611" lon="1.11207">
        <ele>178</ele>
        <time>2017-06-20T14:18:27Z</time>
      </trkpt>
      <trkpt lat="49.48618" lon="1.11206">
        <ele>178</ele>
        <time>2017-06-20T14:18:27Z</time>
      </trkpt>
      <trkpt lat="49.48624" lon="1.11206">
        <ele>178</ele>
        <time>2017-06-20T14:18:27Z</time>
      </trkpt>
      <trkpt lat="49.48627" lon="1.11206">
        <ele>185</ele>
        <time>2017-06-20T14:18:27Z</time>
      </trkpt>
      <trkpt lat="49.48631" lon="1.11211">
        <ele>183</ele>
        <time>2017-06-20T14:18:42Z</time>
      </trkpt>
      <trkpt lat="49.48638" lon="1.11214">
        <ele>183</ele>
        <time>2017-06-20T14:18:42Z</time>
      </trkpt>
      <trkpt lat="49.48641" lon="1.11212">
        <ele>183</ele>
        <time>2017-06-20T14:18:42Z</time>
      </trkpt>
      <trkpt lat="49.48647" lon="1.11218">
        <ele>183</ele>
        <time>2017-06-20T14:18:42Z</time>
      </trkpt>
      <trkpt lat="49.4865" lon="1.11218">
        <ele>183</ele>
        <time>2017-06-20T14:18:59Z</time>
      </trkpt>
      <trkpt lat="49.48654" lon="1.11219">
        <ele>183</ele>
        <time>2017-06-20T14:18:59Z</time>
      </trkpt>
      <trkpt lat="49.48659" lon="1.11222">
        <ele>183</ele>
        <time>2017-06-20T14:18:59Z</time>
      </trkpt>
      <trkpt lat="49.48664" lon="1.11224">
        <ele>183</ele>
        <time>2017-06-20T14:18:59Z</time>
      </trkpt>
      <trkpt lat="49.48666" lon="1.11226">
        <ele>183</ele>
        <time>2017-06-20T14:19:19Z</time>
      </trkpt>
      <trkpt lat="49.48671" lon="1.11227">
        <ele>183</ele>
        <time>2017-06-20T14:19:19Z</time>
      </trkpt>
      <trkpt lat="49.48671" lon="1.11227">
        <ele>183</ele>
        <time>2017-06-20T14:19:19Z</time>
      </trkpt>
      <trkpt lat="49.48673" lon="1.11227">
        <ele>183</ele>
        <time>2017-06-20T14:19:19Z</time>
      </trkpt>
      <trkpt lat="49.48682" lon="1.11231">
        <ele>183</ele>
        <time>2017-06-20T14:19:19Z</time>
      </trkpt>
      <trkpt lat="49.48683" lon="1.11234">
        <ele>183</ele>
        <time>2017-06-20T14:19:33Z</time>
      </trkpt>
      <trkpt lat="49.48691" lon="1.11237">
        <ele>183</ele>
        <time>2017-06-20T14:19:33Z</time>
      </trkpt>
      <trkpt lat="49.48699" lon="1.11236">
        <ele>183</ele>
        <time>2017-06-20T14:19:33Z</time>
      </trkpt>
      <trkpt lat="49.48703" lon="1.11234">
        <ele>183</ele>
        <time>2017-06-20T14:19:33Z</time>
      </trkpt>
      <trkpt lat="49.48709" lon="1.11236">
        <ele>182</ele>
        <time>2017-06-20T14:19:53Z</time>
      </trkpt>
      <trkpt lat="49.48715" lon="1.1124">
        <ele>182</ele>
        <time>2017-06-20T14:19:53Z</time>
      </trkpt>
      <trkpt lat="49.48727" lon="1.11246">
        <ele>182</ele>
        <time>2017-06-20T14:19:53Z</time>
      </trkpt>
      <trkpt lat="49.48731" lon="1.11248">
        <ele>182</ele>
        <time>2017-06-20T14:19:53Z</time>
      </trkpt>
      <trkpt lat="49.48734" lon="1.11248">
        <ele>182</ele>
        <time>2017-06-20T14:20:11Z</time>
      </trkpt>
      <trkpt lat="49.48741" lon="1.11252">
        <ele>182</ele>
        <time>2017-06-20T14:20:11Z</time>
      </trkpt>
      <trkpt lat="49.48745" lon="1.11255">
        <ele>182</ele>
        <time>2017-06-20T14:20:11Z</time>
      </trkpt>
      <trkpt lat="49.48752" lon="1.11257">
        <ele>182</ele>
        <time>2017-06-20T14:20:11Z</time>
      </trkpt>
      <trkpt lat="49.48757" lon="1.11258">
        <ele>182</ele>
        <time>2017-06-20T14:20:27Z</time>
      </trkpt>
      <trkpt lat="49.48763" lon="1.1126">
        <ele>182</ele>
        <time>2017-06-20T14:20:27Z</time>
      </trkpt>
      <trkpt lat="49.48768" lon="1.11262">
        <ele>182</ele>
        <time>2017-06-20T14:20:27Z</time>
      </trkpt>
      <trkpt lat="49.48773" lon="1.11266">
        <ele>182</ele>
        <time>2017-06-20T14:20:27Z</time>
      </trkpt>
      <trkpt lat="49.48777" lon="1.11266">
        <ele>182</ele>
        <time>2017-06-20T14:20:41Z</time>
      </trkpt>
      <trkpt lat="49.48783" lon="1.11268">
        <ele>182</ele>
        <time>2017-06-20T14:20:41Z</time>
      </trkpt>
      <trkpt lat="49.48787" lon="1.11269">
        <ele>182</ele>
        <time>2017-06-20T14:20:41Z</time>
      </trkpt>
      <trkpt lat="49.48793" lon="1.11272">
        <ele>184</ele>
        <time>2017-06-20T14:20:41Z</time>
      </trkpt>
      <trkpt lat="49.48798" lon="1.11273">
        <ele>184</ele>
        <time>2017-06-20T14:20:57Z</time>
      </trkpt>
      <trkpt lat="49.48802" lon="1.11274">
        <ele>184</ele>
        <time>2017-06-20T14:20:57Z</time>
      </trkpt>
      <trkpt lat="49.48808" lon="1.11276">
        <ele>184</ele>
        <time>2017-06-20T14:20:57Z</time>
      </trkpt>
      <trkpt lat="49.48815" lon="1.11278">
        <ele>184</ele>
        <time>2017-06-20T14:20:57Z</time>
      </trkpt>
      <trkpt lat="49.4882" lon="1.11283">
        <ele>184</ele>
        <time>2017-06-20T14:21:14Z</time>
      </trkpt>
      <trkpt lat="49.48825" lon="1.11283">
        <ele>184</ele>
        <time>2017-06-20T14:21:15Z</time>
      </trkpt>
      <trkpt lat="49.48827" lon="1.11285">
        <ele>184</ele>
        <time>2017-06-20T14:21:15Z</time>
      </trkpt>
      <trkpt lat="49.48835" lon="1.11288">
        <ele>184</ele>
        <time>2017-06-20T14:21:15Z</time>
      </trkpt>
      <trkpt lat="49.4884" lon="1.11289">
        <ele>184</ele>
        <time>2017-06-20T14:21:30Z</time>
      </trkpt>
      <trkpt lat="49.48845" lon="1.11292">
        <ele>178</ele>
        <time>2017-06-20T14:21:33Z</time>
      </trkpt>
      <trkpt lat="49.48848" lon="1.11292">
        <ele>178</ele>
        <time>2017-06-20T14:21:33Z</time>
      </trkpt>
      <trkpt lat="49.48854" lon="1.11294">
        <ele>178</ele>
        <time>2017-06-20T14:21:33Z</time>
      </trkpt>
      <trkpt lat="49.48856" lon="1.11292">
        <ele>178</ele>
        <time>2017-06-20T14:21:47Z</time>
      </trkpt>
      <trkpt lat="49.48862" lon="1.11296">
        <ele>178</ele>
        <time>2017-06-20T14:21:47Z</time>
      </trkpt>
      <trkpt lat="49.48864" lon="1.11292">
        <ele>178</ele>
        <time>2017-06-20T14:21:47Z</time>
      </trkpt>
      <trkpt lat="49.48869" lon="1.11295">
        <ele>178</ele>
        <time>2017-06-20T14:21:47Z</time>
      </trkpt>
      <trkpt lat="49.48875" lon="1.11301">
        <ele>178</ele>
        <time>2017-06-20T14:22:02Z</time>
      </trkpt>
      <trkpt lat="49.48878" lon="1.11303">
        <ele>173</ele>
        <time>2017-06-20T14:22:02Z</time>
      </trkpt>
      <trkpt lat="49.48885" lon="1.11316">
        <ele>173</ele>
        <time>2017-06-20T14:22:02Z</time>
      </trkpt>
      <trkpt lat="49.48886" lon="1.11317">
        <ele>173</ele>
        <time>2017-06-20T14:22:03Z</time>
      </trkpt>
      <trkpt lat="49.48888" lon="1.11309">
        <ele>173</ele>
        <time>2017-06-20T14:22:17Z</time>
      </trkpt>
      <trkpt lat="49.48894" lon="1.1131">
        <ele>173</ele>
        <time>2017-06-20T14:22:18Z</time>
      </trkpt>
      <trkpt lat="49.48898" lon="1.1131">
        <ele>173</ele>
        <time>2017-06-20T14:22:18Z</time>
      </trkpt>
      <trkpt lat="49.48903" lon="1.1131">
        <ele>173</ele>
        <time>2017-06-20T14:22:19Z</time>
      </trkpt>
      <trkpt lat="49.48906" lon="1.11306">
        <ele>173</ele>
        <time>2017-06-20T14:22:33Z</time>
      </trkpt>
      <trkpt lat="49.48912" lon="1.11309">
        <ele>173</ele>
        <time>2017-06-20T14:22:33Z</time>
      </trkpt>
      <trkpt lat="49.48917" lon="1.11314">
        <ele>173</ele>
        <time>2017-06-20T14:22:33Z</time>
      </trkpt>
      <trkpt lat="49.48921" lon="1.11314">
        <ele>173</ele>
        <time>2017-06-20T14:22:33Z</time>
      </trkpt>
      <trkpt lat="49.48925" lon="1.11317">
        <ele>173</ele>
        <time>2017-06-20T14:22:52Z</time>
      </trkpt>
      <trkpt lat="49.48928" lon="1.11317">
        <ele>173</ele>
        <time>2017-06-20T14:22:52Z</time>
      </trkpt>
      <trkpt lat="49.48936" lon="1.11319">
        <ele>173</ele>
        <time>2017-06-20T14:22:52Z</time>
      </trkpt>
      <trkpt lat="49.48941" lon="1.11324">
        <ele>173</ele>
        <time>2017-06-20T14:22:52Z</time>
      </trkpt>
      <trkpt lat="49.48944" lon="1.11319">
        <ele>173</ele>
        <time>2017-06-20T14:23:07Z</time>
      </trkpt>
      <trkpt lat="49.4895" lon="1.11327">
        <ele>173</ele>
        <time>2017-06-20T14:23:07Z</time>
      </trkpt>
      <trkpt lat="49.48955" lon="1.11329">
        <ele>173</ele>
        <time>2017-06-20T14:23:07Z</time>
      </trkpt>
      <trkpt lat="49.48957" lon="1.11332">
        <ele>173</ele>
        <time>2017-06-20T14:23:07Z</time>
      </trkpt>
      <trkpt lat="49.4896" lon="1.11327">
        <ele>169</ele>
        <time>2017-06-20T14:23:23Z</time>
      </trkpt>
      <trkpt lat="49.48969" lon="1.11335">
        <ele>169</ele>
        <time>2017-06-20T14:23:23Z</time>
      </trkpt>
      <trkpt lat="49.48975" lon="1.11338">
        <ele>169</ele>
        <time>2017-06-20T14:23:23Z</time>
      </trkpt>
      <trkpt lat="49.4898" lon="1.11343">
        <ele>169</ele>
        <time>2017-06-20T14:23:23Z</time>
      </trkpt>
      <trkpt lat="49.48984" lon="1.11348">
        <ele>169</ele>
        <time>2017-06-20T14:23:38Z</time>
      </trkpt>
      <trkpt lat="49.4899" lon="1.11353">
        <ele>169</ele>
        <time>2017-06-20T14:23:38Z</time>
      </trkpt>
      <trkpt lat="49.48993" lon="1.11354">
        <ele>169</ele>
        <time>2017-06-20T14:23:38Z</time>
      </trkpt>
      <trkpt lat="49.48997" lon="1.11355">
        <ele>169</ele>
        <time>2017-06-20T14:23:38Z</time>
      </trkpt>
      <trkpt lat="49.49002" lon="1.11357">
        <ele>169</ele>
        <time>2017-06-20T14:23:54Z</time>
      </trkpt>
      <trkpt lat="49.49006" lon="1.11361">
        <ele>169</ele>
        <time>2017-06-20T14:23:54Z</time>
      </trkpt>
      <trkpt lat="49.4901" lon="1.11359">
        <ele>169</ele>
        <time>2017-06-20T14:23:54Z</time>
      </trkpt>
      <trkpt lat="49.49013" lon="1.11359">
        <ele>169</ele>
        <time>2017-06-20T14:23:54Z</time>
      </trkpt>
      <trkpt lat="49.49024" lon="1.11364">
        <ele>169</ele>
        <time>2017-06-20T14:24:10Z</time>
      </trkpt>
      <trkpt lat="49.49027" lon="1.11365">
        <ele>169</ele>
        <time>2017-06-20T14:24:10Z</time>
      </trkpt>
      <trkpt lat="49.49031" lon="1.11364">
        <ele>169</ele>
        <time>2017-06-20T14:24:10Z</time>
      </trkpt>
      <trkpt lat="49.49038" lon="1.11368">
        <ele>169</ele>
        <time>2017-06-20T14:24:10Z</time>
      </trkpt>
      <trkpt lat="49.49041" lon="1.1137">
        <ele>169</ele>
        <time>2017-06-20T14:24:26Z</time>
      </trkpt>
      <trkpt lat="49.49046" lon="1.11376">
        <ele>171</ele>
        <time>2017-06-20T14:24:26Z</time>
      </trkpt>
      <trkpt lat="49.49049" lon="1.11378">
        <ele>171</ele>
        <time>2017-06-20T14:24:26Z</time>
      </trkpt>
      <trkpt lat="49.49049" lon="1.11381">
        <ele>171</ele>
        <time>2017-06-20T14:24:26Z</time>
      </trkpt>
      <trkpt lat="49.49054" lon="1.11379">
        <ele>171</ele>
        <time>2017-06-20T14:24:41Z</time>
      </trkpt>
      <trkpt lat="49.49059" lon="1.11383">
        <ele>171</ele>
        <time>2017-06-20T14:24:42Z</time>
      </trkpt>
      <trkpt lat="49.49063" lon="1.11385">
        <ele>171</ele>
        <time>2017-06-20T14:24:43Z</time>
      </trkpt>
      <trkpt lat="49.49066" lon="1.11386">
        <ele>171</ele>
        <time>2017-06-20T14:24:43Z</time>
      </trkpt>
      <trkpt lat="49.49068" lon="1.11384">
        <ele>171</ele>
        <time>2017-06-20T14:24:59Z</time>
      </trkpt>
      <trkpt lat="49.49075" lon="1.11386">
        <ele>171</ele>
        <time>2017-06-20T14:24:59Z</time>
      </trkpt>
      <trkpt lat="49.49076" lon="1.11387">
        <ele>171</ele>
        <time>2017-06-20T14:24:59Z</time>
      </trkpt>
      <trkpt lat="49.49078" lon="1.11387">
        <ele>171</ele>
        <time>2017-06-20T14:24:59Z</time>
      </trkpt>
      <trkpt lat="49.49079" lon="1.11387">
        <ele>171</ele>
        <time>2017-06-20T14:25:14Z</time>
      </trkpt>
      <trkpt lat="49.49085" lon="1.11387">
        <ele>171</ele>
        <time>2017-06-20T14:25:14Z</time>
      </trkpt>
      <trkpt lat="49.49089" lon="1.11388">
        <ele>171</ele>
        <time>2017-06-20T14:25:14Z</time>
      </trkpt>
      <trkpt lat="49.49094" lon="1.1139">
        <ele>171</ele>
        <time>2017-06-20T14:25:14Z</time>
      </trkpt>
      <trkpt lat="49.49102" lon="1.11394">
        <ele>171</ele>
        <time>2017-06-20T14:25:32Z</time>
      </trkpt>
      <trkpt lat="49.49108" lon="1.11395">
        <ele>171</ele>
        <time>2017-06-20T14:25:32Z</time>
      </trkpt>
      <trkpt lat="49.49113" lon="1.11394">
        <ele>171</ele>
        <time>2017-06-20T14:25:32Z</time>
      </trkpt>
      <trkpt lat="49.4912" lon="1.11394">
        <ele>171</ele>
        <time>2017-06-20T14:25:32Z</time>
      </trkpt>
      <trkpt lat="49.49134" lon="1.11399">
        <ele>168</ele>
        <time>2017-06-20T14:25:50Z</time>
      </trkpt>
      <trkpt lat="49.49139" lon="1.11404">
        <ele>168</ele>
        <time>2017-06-20T14:25:50Z</time>
      </trkpt>
      <trkpt lat="49.49143" lon="1.11405">
        <ele>168</ele>
        <time>2017-06-20T14:25:50Z</time>
      </trkpt>
      <trkpt lat="49.49145" lon="1.11406">
        <ele>168</ele>
        <time>2017-06-20T14:25:50Z</time>
      </trkpt>
      <trkpt lat="49.49153" lon="1.1141">
        <ele>168</ele>
        <time>2017-06-20T14:26:05Z</time>
      </trkpt>
      <trkpt lat="49.49155" lon="1.11412">
        <ele>168</ele>
        <time>2017-06-20T14:26:05Z</time>
      </trkpt>
      <trkpt lat="49.49158" lon="1.11412">
        <ele>168</ele>
        <time>2017-06-20T14:26:05Z</time>
      </trkpt>
      <trkpt lat="49.49164" lon="1.11416">
        <ele>168</ele>
        <time>2017-06-20T14:26:05Z</time>
      </trkpt>
      <trkpt lat="49.49167" lon="1.11417">
        <ele>168</ele>
        <time>2017-06-20T14:26:22Z</time>
      </trkpt>
      <trkpt lat="49.49173" lon="1.11417">
        <ele>168</ele>
        <time>2017-06-20T14:26:22Z</time>
      </trkpt>
      <trkpt lat="49.49181" lon="1.1142">
        <ele>168</ele>
        <time>2017-06-20T14:26:22Z</time>
      </trkpt>
      <trkpt lat="49.49187" lon="1.11417">
        <ele>168</ele>
        <time>2017-06-20T14:26:22Z</time>
      </trkpt>
      <trkpt lat="49.49188" lon="1.11419">
        <ele>168</ele>
        <time>2017-06-20T14:26:43Z</time>
      </trkpt>
      <trkpt lat="49.4919" lon="1.11423">
        <ele>168</ele>
        <time>2017-06-20T14:26:43Z</time>
      </trkpt>
      <trkpt lat="49.49192" lon="1.11425">
        <ele>168</ele>
        <time>2017-06-20T14:26:43Z</time>
      </trkpt>
      <trkpt lat="49.49195" lon="1.11428">
        <ele>168</ele>
        <time>2017-06-20T14:26:43Z</time>
      </trkpt>
      <trkpt lat="49.49201" lon="1.11427">
        <ele>168</ele>
        <time>2017-06-20T14:26:43Z</time>
      </trkpt>
      <trkpt lat="49.49205" lon="1.11425">
        <ele>168</ele>
        <time>2017-06-20T14:26:58Z</time>
      </trkpt>
      <trkpt lat="49.49212" lon="1.11429">
        <ele>169</ele>
        <time>2017-06-20T14:26:58Z</time>
      </trkpt>
      <trkpt lat="49.49218" lon="1.11433">
        <ele>169</ele>
        <time>2017-06-20T14:26:58Z</time>
      </trkpt>
      <trkpt lat="49.49226" lon="1.11434">
        <ele>169</ele>
        <time>2017-06-20T14:27:00Z</time>
      </trkpt>
      <trkpt lat="49.49229" lon="1.11433">
        <ele>169</ele>
        <time>2017-06-20T14:27:15Z</time>
      </trkpt>
      <trkpt lat="49.49232" lon="1.11435">
        <ele>169</ele>
        <time>2017-06-20T14:27:15Z</time>
      </trkpt>
      <trkpt lat="49.49236" lon="1.11441">
        <ele>169</ele>
        <time>2017-06-20T14:27:15Z</time>
      </trkpt>
      <trkpt lat="49.49238" lon="1.11443">
        <ele>169</ele>
        <time>2017-06-20T14:27:15Z</time>
      </trkpt>
      <trkpt lat="49.49243" lon="1.11444">
        <ele>169</ele>
        <time>2017-06-20T14:27:31Z</time>
      </trkpt>
      <trkpt lat="49.49249" lon="1.11447">
        <ele>169</ele>
        <time>2017-06-20T14:27:31Z</time>
      </trkpt>
      <trkpt lat="49.49255" lon="1.11449">
        <ele>169</ele>
        <time>2017-06-20T14:27:31Z</time>
      </trkpt>
      <trkpt lat="49.49259" lon="1.1145">
        <ele>169</ele>
        <time>2017-06-20T14:27:31Z</time>
      </trkpt>
      <trkpt lat="49.49263" lon="1.11451">
        <ele>169</ele>
        <time>2017-06-20T14:27:46Z</time>
      </trkpt>
      <trkpt lat="49.49266" lon="1.11452">
        <ele>169</ele>
        <time>2017-06-20T14:27:46Z</time>
      </trkpt>
      <trkpt lat="49.49269" lon="1.11455">
        <ele>169</ele>
        <time>2017-06-20T14:27:46Z</time>
      </trkpt>
      <trkpt lat="49.49272" lon="1.11457">
        <ele>169</ele>
        <time>2017-06-20T14:27:46Z</time>
      </trkpt>
      <trkpt lat="49.49279" lon="1.11456">
        <ele>169</ele>
        <time>2017-06-20T14:28:03Z</time>
      </trkpt>
      <trkpt lat="49.49286" lon="1.1146">
        <ele>174</ele>
        <time>2017-06-20T14:28:03Z</time>
      </trkpt>
      <trkpt lat="49.49293" lon="1.1146">
        <ele>173</ele>
        <time>2017-06-20T14:28:03Z</time>
      </trkpt>
      <trkpt lat="49.49296" lon="1.11459">
        <ele>173</ele>
        <time>2017-06-20T14:28:03Z</time>
      </trkpt>
      <trkpt lat="49.49301" lon="1.11464">
        <ele>173</ele>
        <time>2017-06-20T14:28:17Z</time>
      </trkpt>
      <trkpt lat="49.49307" lon="1.11464">
        <ele>173</ele>
        <time>2017-06-20T14:28:17Z</time>
      </trkpt>
      <trkpt lat="49.49314" lon="1.11464">
        <ele>173</ele>
        <time>2017-06-20T14:28:17Z</time>
      </trkpt>
      <trkpt lat="49.49319" lon="1.11467">
        <ele>173</ele>
        <time>2017-06-20T14:28:17Z</time>
      </trkpt>
      <trkpt lat="49.49322" lon="1.11467">
        <ele>173</ele>
        <time>2017-06-20T14:28:33Z</time>
      </trkpt>
      <trkpt lat="49.49329" lon="1.11471">
        <ele>173</ele>
        <time>2017-06-20T14:28:33Z</time>
      </trkpt>
      <trkpt lat="49.49333" lon="1.11473">
        <ele>173</ele>
        <time>2017-06-20T14:28:33Z</time>
      </trkpt>
      <trkpt lat="49.49338" lon="1.11473">
        <ele>173</ele>
        <time>2017-06-20T14:28:33Z</time>
      </trkpt>
      <trkpt lat="49.49344" lon="1.11477">
        <ele>173</ele>
        <time>2017-06-20T14:28:51Z</time>
      </trkpt>
      <trkpt lat="49.49344" lon="1.11478">
        <ele>173</ele>
        <time>2017-06-20T14:28:51Z</time>
      </trkpt>
      <trkpt lat="49.49352" lon="1.1148">
        <ele>173</ele>
        <time>2017-06-20T14:28:51Z</time>
      </trkpt>
      <trkpt lat="49.49357" lon="1.1148">
        <ele>173</ele>
        <time>2017-06-20T14:28:51Z</time>
      </trkpt>
      <trkpt lat="49.49363" lon="1.11482">
        <ele>173</ele>
        <time>2017-06-20T14:29:07Z</time>
      </trkpt>
      <trkpt lat="49.49366" lon="1.11483">
        <ele>173</ele>
        <time>2017-06-20T14:29:07Z</time>
      </trkpt>
      <trkpt lat="49.49373" lon="1.11485">
        <ele>173</ele>
        <time>2017-06-20T14:29:07Z</time>
      </trkpt>
      <trkpt lat="49.49379" lon="1.11489">
        <ele>173</ele>
        <time>2017-06-20T14:29:07Z</time>
      </trkpt>
      <trkpt lat="49.49385" lon="1.11493">
        <ele>173</ele>
        <time>2017-06-20T14:29:22Z</time>
      </trkpt>
      <trkpt lat="49.49391" lon="1.11497">
        <ele>173</ele>
        <time>2017-06-20T14:29:22Z</time>
      </trkpt>
      <trkpt lat="49.49396" lon="1.11496">
        <ele>173</ele>
        <time>2017-06-20T14:29:22Z</time>
      </trkpt>
      <trkpt lat="49.49401" lon="1.11498">
        <ele>173</ele>
        <time>2017-06-20T14:29:22Z</time>
      </trkpt>
      <trkpt lat="49.49408" lon="1.115">
        <ele>173</ele>
        <time>2017-06-20T14:29:42Z</time>
      </trkpt>
      <trkpt lat="49.49409" lon="1.11501">
        <ele>173</ele>
        <time>2017-06-20T14:29:42Z</time>
      </trkpt>
      <trkpt lat="49.49423" lon="1.11509">
        <ele>173</ele>
        <time>2017-06-20T14:29:42Z</time>
      </trkpt>
      <trkpt lat="49.49427" lon="1.1151">
        <ele>173</ele>
        <time>2017-06-20T14:29:42Z</time>
      </trkpt>
      <trkpt lat="49.49434" lon="1.11514">
        <ele>173</ele>
        <time>2017-06-20T14:29:59Z</time>
      </trkpt>
      <trkpt lat="49.4944" lon="1.11515">
        <ele>173</ele>
        <time>2017-06-20T14:29:59Z</time>
      </trkpt>
      <trkpt lat="49.49446" lon="1.11518">
        <ele>173</ele>
        <time>2017-06-20T14:29:59Z</time>
      </trkpt>
      <trkpt lat="49.49451" lon="1.11522">
        <ele>173</ele>
        <time>2017-06-20T14:29:59Z</time>
      </trkpt>
      <trkpt lat="49.49454" lon="1.11523">
        <ele>173</ele>
        <time>2017-06-20T14:30:13Z</time>
      </trkpt>
      <trkpt lat="49.49458" lon="1.11524">
        <ele>173</ele>
        <time>2017-06-20T14:30:13Z</time>
      </trkpt>
      <trkpt lat="49.4946" lon="1.11527">
        <ele>172</ele>
        <time>2017-06-20T14:30:13Z</time>
      </trkpt>
      <trkpt lat="49.49464" lon="1.11528">
        <ele>172</ele>
        <time>2017-06-20T14:30:13Z</time>
      </trkpt>
      <trkpt lat="49.49472" lon="1.11531">
        <ele>172</ele>
        <time>2017-06-20T14:30:29Z</time>
      </trkpt>
      <trkpt lat="49.49474" lon="1.11532">
        <ele>172</ele>
        <time>2017-06-20T14:30:29Z</time>
      </trkpt>
      <trkpt lat="49.49478" lon="1.11533">
        <ele>172</ele>
        <time>2017-06-20T14:30:30Z</time>
      </trkpt>
      <trkpt lat="49.49484" lon="1.11538">
        <ele>172</ele>
        <time>2017-06-20T14:30:30Z</time>
      </trkpt>
      <trkpt lat="49.49491" lon="1.11542">
        <ele>174</ele>
        <time>2017-06-20T14:30:46Z</time>
      </trkpt>
      <trkpt lat="49.49497" lon="1.11543">
        <ele>174</ele>
        <time>2017-06-20T14:30:46Z</time>
      </trkpt>
      <trkpt lat="49.49503" lon="1.11545">
        <ele>174</ele>
        <time>2017-06-20T14:30:46Z</time>
      </trkpt>
      <trkpt lat="49.4951" lon="1.11546">
        <ele>174</ele>
        <time>2017-06-20T14:30:46Z</time>
      </trkpt>
      <trkpt lat="49.49513" lon="1.11547">
        <ele>174</ele>
        <time>2017-06-20T14:31:03Z</time>
      </trkpt>
      <trkpt lat="49.49517" lon="1.1155">
        <ele>174</ele>
        <time>2017-06-20T14:31:03Z</time>
      </trkpt>
      <trkpt lat="49.49522" lon="1.11552">
        <ele>174</ele>
        <time>2017-06-20T14:31:03Z</time>
      </trkpt>
      <trkpt lat="49.49526" lon="1.11552">
        <ele>174</ele>
        <time>2017-06-20T14:31:04Z</time>
      </trkpt>
      <trkpt lat="49.49531" lon="1.11553">
        <ele>174</ele>
        <time>2017-06-20T14:31:17Z</time>
      </trkpt>
      <trkpt lat="49.49538" lon="1.11554">
        <ele>174</ele>
        <time>2017-06-20T14:31:17Z</time>
      </trkpt>
      <trkpt lat="49.49542" lon="1.11557">
        <ele>175</ele>
        <time>2017-06-20T14:31:17Z</time>
      </trkpt>
      <trkpt lat="49.49547" lon="1.11559">
        <ele>175</ele>
        <time>2017-06-20T14:31:17Z</time>
      </trkpt>
      <trkpt lat="49.49552" lon="1.11561">
        <ele>175</ele>
        <time>2017-06-20T14:31:34Z</time>
      </trkpt>
      <trkpt lat="49.49558" lon="1.11559">
        <ele>175</ele>
        <time>2017-06-20T14:31:34Z</time>
      </trkpt>
      <trkpt lat="49.49562" lon="1.1156">
        <ele>175</ele>
        <time>2017-06-20T14:31:34Z</time>
      </trkpt>
      <trkpt lat="49.49568" lon="1.11559">
        <ele>175</ele>
        <time>2017-06-20T14:31:34Z</time>
      </trkpt>
      <trkpt lat="49.49572" lon="1.11562">
        <ele>175</ele>
        <time>2017-06-20T14:31:50Z</time>
      </trkpt>
      <trkpt lat="49.49575" lon="1.11566">
        <ele>175</ele>
        <time>2017-06-20T14:31:51Z</time>
      </trkpt>
      <trkpt lat="49.49577" lon="1.11569">
        <ele>175</ele>
        <time>2017-06-20T14:31:51Z</time>
      </trkpt>
      <trkpt lat="49.49581" lon="1.11575">
        <ele>175</ele>
        <time>2017-06-20T14:31:51Z</time>
      </trkpt>
      <trkpt lat="49.49585" lon="1.11576">
        <ele>175</ele>
        <time>2017-06-20T14:32:07Z</time>
      </trkpt>
      <trkpt lat="49.49588" lon="1.11577">
        <ele>175</ele>
        <time>2017-06-20T14:32:07Z</time>
      </trkpt>
      <trkpt lat="49.49592" lon="1.11579">
        <ele>175</ele>
        <time>2017-06-20T14:32:07Z</time>
      </trkpt>
      <trkpt lat="49.49598" lon="1.11579">
        <ele>175</ele>
        <time>2017-06-20T14:32:07Z</time>
      </trkpt>
      <trkpt lat="49.49604" lon="1.11579">
        <ele>175</ele>
        <time>2017-06-20T14:32:22Z</time>
      </trkpt>
      <trkpt lat="49.49609" lon="1.11579">
        <ele>175</ele>
        <time>2017-06-20T14:32:22Z</time>
      </trkpt>
      <trkpt lat="49.49614" lon="1.11579">
        <ele>175</ele>
        <time>2017-06-20T14:32:22Z</time>
      </trkpt>
      <trkpt lat="49.49618" lon="1.11579">
        <ele>175</ele>
        <time>2017-06-20T14:32:22Z</time>
      </trkpt>
      <trkpt lat="49.49626" lon="1.11585">
        <ele>176</ele>
        <time>2017-06-20T14:32:37Z</time>
      </trkpt>
      <trkpt lat="49.49629" lon="1.11584">
        <ele>176</ele>
        <time>2017-06-20T14:32:37Z</time>
      </trkpt>
      <trkpt lat="49.49635" lon="1.11586">
        <ele>176</ele>
        <time>2017-06-20T14:32:37Z</time>
      </trkpt>
      <trkpt lat="49.4964" lon="1.1159">
        <ele>176</ele>
        <time>2017-06-20T14:32:37Z</time>
      </trkpt>
      <trkpt lat="49.49644" lon="1.11593">
        <ele>176</ele>
        <time>2017-06-20T14:32:54Z</time>
      </trkpt>
      <trkpt lat="49.49648" lon="1.11597">
        <ele>176</ele>
        <time>2017-06-20T14:32:54Z</time>
      </trkpt>
      <trkpt lat="49.49653" lon="1.11599">
        <ele>176</ele>
        <time>2017-06-20T14:32:54Z</time>
      </trkpt>
      <trkpt lat="49.49659" lon="1.11603">
        <ele>176</ele>
        <time>2017-06-20T14:32:54Z</time>
      </trkpt>
      <trkpt lat="49.4966" lon="1.11605">
        <ele>176</ele>
        <time>2017-06-20T14:33:10Z</time>
      </trkpt>
      <trkpt lat="49.49666" lon="1.11606">
        <ele>176</ele>
        <time>2017-06-20T14:33:10Z</time>
      </trkpt>
      <trkpt lat="49.49671" lon="1.11605">
        <ele>176</ele>
        <time>2017-06-20T14:33:10Z</time>
      </trkpt>
      <trkpt lat="49.49678" lon="1.11608">
        <ele>176</ele>
        <time>2017-06-20T14:33:10Z</time>
      </trkpt>
      <trkpt lat="49.49682" lon="1.11608">
        <ele>176</ele>
        <time>2017-06-20T14:33:27Z</time>
      </trkpt>
      <trkpt lat="49.49686" lon="1.1161">
        <ele>176</ele>
        <time>2017-06-20T14:33:27Z</time>
      </trkpt>
      <trkpt lat="49.49693" lon="1.11609">
        <ele>176</ele>
        <time>2017-06-20T14:33:27Z</time>
      </trkpt>
      <trkpt lat="49.49699" lon="1.11612">
        <ele>176</ele>
        <time>2017-06-20T14:33:27Z</time>
      </trkpt>
      <trkpt lat="49.49702" lon="1.11615">
        <ele>176</ele>
        <time>2017-06-20T14:33:42Z</time>
      </trkpt>
      <trkpt lat="49.4971" lon="1.11615">
        <ele>172</ele>
        <time>2017-06-20T14:33:42Z</time>
      </trkpt>
      <trkpt lat="49.49714" lon="1.11616">
        <ele>172</ele>
        <time>2017-06-20T14:33:42Z</time>
      </trkpt>
      <trkpt lat="49.49717" lon="1.11618">
        <ele>172</ele>
        <time>2017-06-20T14:33:42Z</time>
      </trkpt>
      <trkpt lat="49.49724" lon="1.11619">
        <ele>172</ele>
        <time>2017-06-20T14:33:57Z</time>
      </trkpt>
      <trkpt lat="49.49729" lon="1.11623">
        <ele>172</ele>
        <time>2017-06-20T14:33:57Z</time>
      </trkpt>
      <trkpt lat="49.49734" lon="1.11626">
        <ele>168</ele>
        <time>2017-06-20T14:33:57Z</time>
      </trkpt>
      <trkpt lat="49.49738" lon="1.11626">
        <ele>168</ele>
        <time>2017-06-20T14:33:57Z</time>
      </trkpt>
      <trkpt lat="49.49746" lon="1.11628">
        <ele>168</ele>
        <time>2017-06-20T14:34:14Z</time>
      </trkpt>
      <trkpt lat="49.49752" lon="1.1163">
        <ele>168</ele>
        <time>2017-06-20T14:34:15Z</time>
      </trkpt>
      <trkpt lat="49.49757" lon="1.11633">
        <ele>168</ele>
        <time>2017-06-20T14:34:15Z</time>
      </trkpt>
      <trkpt lat="49.4976" lon="1.11632">
        <ele>168</ele>
        <time>2017-06-20T14:34:15Z</time>
      </trkpt>
      <trkpt lat="49.49766" lon="1.11636">
        <ele>168</ele>
        <time>2017-06-20T14:34:35Z</time>
      </trkpt>
      <trkpt lat="49.4977" lon="1.11638">
        <ele>168</ele>
        <time>2017-06-20T14:34:35Z</time>
      </trkpt>
      <trkpt lat="49.49772" lon="1.1164">
        <ele>168</ele>
        <time>2017-06-20T14:34:35Z</time>
      </trkpt>
      <trkpt lat="49.49774" lon="1.1164">
        <ele>168</ele>
        <time>2017-06-20T14:34:35Z</time>
      </trkpt>
      <trkpt lat="49.49776" lon="1.11641">
        <ele>168</ele>
        <time>2017-06-20T14:34:35Z</time>
      </trkpt>
      <trkpt lat="49.49783" lon="1.11644">
        <ele>168</ele>
        <time>2017-06-20T14:34:51Z</time>
      </trkpt>
      <trkpt lat="49.49789" lon="1.11647">
        <ele>168</ele>
        <time>2017-06-20T14:34:51Z</time>
      </trkpt>
      <trkpt lat="49.49798" lon="1.11648">
        <ele>162</ele>
        <time>2017-06-20T14:34:51Z</time>
      </trkpt>
      <trkpt lat="49.498" lon="1.11649">
        <ele>162</ele>
        <time>2017-06-20T14:34:51Z</time>
      </trkpt>
      <trkpt lat="49.49806" lon="1.11645">
        <ele>162</ele>
        <time>2017-06-20T14:35:11Z</time>
      </trkpt>
      <trkpt lat="49.4981" lon="1.11647">
        <ele>162</ele>
        <time>2017-06-20T14:35:11Z</time>
      </trkpt>
      <trkpt lat="49.49811" lon="1.11648">
        <ele>162</ele>
        <time>2017-06-20T14:35:12Z</time>
      </trkpt>
      <trkpt lat="49.49814" lon="1.11648">
        <ele>162</ele>
        <time>2017-06-20T14:35:12Z</time>
      </trkpt>
      <trkpt lat="49.49816" lon="1.11646">
        <ele>162</ele>
        <time>2017-06-20T14:35:12Z</time>
      </trkpt>
      <trkpt lat="49.49817" lon="1.11645">
        <ele>162</ele>
        <time>2017-06-20T14:35:26Z</time>
      </trkpt>
      <trkpt lat="49.49819" lon="1.11643">
        <ele>162</ele>
        <time>2017-06-20T14:35:26Z</time>
      </trkpt>
      <trkpt lat="49.4982" lon="1.11639">
        <ele>162</ele>
        <time>2017-06-20T14:35:26Z</time>
      </trkpt>
      <trkpt lat="49.49824" lon="1.11632">
        <ele>162</ele>
        <time>2017-06-20T14:35:26Z</time>
      </trkpt>
      <trkpt lat="49.49826" lon="1.11628">
        <ele>162</ele>
        <time>2017-06-20T14:35:46Z</time>
      </trkpt>
      <trkpt lat="49.49828" lon="1.1162">
        <ele>165</ele>
        <time>2017-06-20T14:35:46Z</time>
      </trkpt>
      <trkpt lat="49.49829" lon="1.11617">
        <ele>165</ele>
        <time>2017-06-20T14:35:46Z</time>
      </trkpt>
      <trkpt lat="49.4983" lon="1.11616">
        <ele>165</ele>
        <time>2017-06-20T14:35:46Z</time>
      </trkpt>
      <trkpt lat="49.49831" lon="1.1161">
        <ele>165</ele>
        <time>2017-06-20T14:35:46Z</time>
      </trkpt>
      <trkpt lat="49.49832" lon="1.11603">
        <ele>165</ele>
        <time>2017-06-20T14:36:01Z</time>
      </trkpt>
      <trkpt lat="49.49833" lon="1.11597">
        <ele>165</ele>
        <time>2017-06-20T14:36:01Z</time>
      </trkpt>
      <trkpt lat="49.49834" lon="1.11591">
        <ele>165</ele>
        <time>2017-06-20T14:36:01Z</time>
      </trkpt>
      <trkpt lat="49.49834" lon="1.11586">
        <ele>165</ele>
        <time>2017-06-20T14:36:01Z</time>
      </trkpt>
      <trkpt lat="49.49837" lon="1.11577">
        <ele>165</ele>
        <time>2017-06-20T14:36:18Z</time>
      </trkpt>
      <trkpt lat="49.49838" lon="1.1157">
        <ele>165</ele>
        <time>2017-06-20T14:36:18Z</time>
      </trkpt>
      <trkpt lat="49.4984" lon="1.11559">
        <ele>165</ele>
        <time>2017-06-20T14:36:18Z</time>
      </trkpt>
      <trkpt lat="49.49843" lon="1.1155">
        <ele>165</ele>
        <time>2017-06-20T14:36:18Z</time>
      </trkpt>
      <trkpt lat="49.49842" lon="1.11547">
        <ele>165</ele>
        <time>2017-06-20T14:36:36Z</time>
      </trkpt>
      <trkpt lat="49.49843" lon="1.11543">
        <ele>165</ele>
        <time>2017-06-20T14:36:36Z</time>
      </trkpt>
      <trkpt lat="49.49847" lon="1.11536">
        <ele>168</ele>
        <time>2017-06-20T14:36:36Z</time>
      </trkpt>
      <trkpt lat="49.49848" lon="1.11531">
        <ele>168</ele>
        <time>2017-06-20T14:36:36Z</time>
      </trkpt>
      <trkpt lat="49.49848" lon="1.11524">
        <ele>168</ele>
        <time>2017-06-20T14:36:50Z</time>
      </trkpt>
      <trkpt lat="49.4985" lon="1.11514">
        <ele>168</ele>
        <time>2017-06-20T14:36:50Z</time>
      </trkpt>
      <trkpt lat="49.4985" lon="1.11507">
        <ele>168</ele>
        <time>2017-06-20T14:36:50Z</time>
      </trkpt>
      <trkpt lat="49.49851" lon="1.11495">
        <ele>168</ele>
        <time>2017-06-20T14:36:50Z</time>
      </trkpt>
      <trkpt lat="49.49852" lon="1.1149">
        <ele>168</ele>
        <time>2017-06-20T14:37:06Z</time>
      </trkpt>
      <trkpt lat="49.49852" lon="1.11485">
        <ele>168</ele>
        <time>2017-06-20T14:37:07Z</time>
      </trkpt>
      <trkpt lat="49.49855" lon="1.11476">
        <ele>168</ele>
        <time>2017-06-20T14:37:08Z</time>
      </trkpt>
      <trkpt lat="49.49854" lon="1.11468">
        <ele>168</ele>
        <time>2017-06-20T14:37:08Z</time>
      </trkpt>
      <trkpt lat="49.49855" lon="1.11463">
        <ele>168</ele>
        <time>2017-06-20T14:37:21Z</time>
      </trkpt>
      <trkpt lat="49.49857" lon="1.11455">
        <ele>170</ele>
        <time>2017-06-20T14:37:21Z</time>
      </trkpt>
      <trkpt lat="49.49857" lon="1.11453">
        <ele>170</ele>
        <time>2017-06-20T14:37:21Z</time>
      </trkpt>
      <trkpt lat="49.49859" lon="1.11449">
        <ele>170</ele>
        <time>2017-06-20T14:37:22Z</time>
      </trkpt>
      <trkpt lat="49.4986" lon="1.1144">
        <ele>170</ele>
        <time>2017-06-20T14:37:38Z</time>
      </trkpt>
      <trkpt lat="49.49861" lon="1.11428">
        <ele>170</ele>
        <time>2017-06-20T14:37:39Z</time>
      </trkpt>
      <trkpt lat="49.49864" lon="1.11419">
        <ele>170</ele>
        <time>2017-06-20T14:37:39Z</time>
      </trkpt>
      <trkpt lat="49.49864" lon="1.11418">
        <ele>170</ele>
        <time>2017-06-20T14:37:39Z</time>
      </trkpt>
      <trkpt lat="49.49864" lon="1.11412">
        <ele>170</ele>
        <time>2017-06-20T14:37:55Z</time>
      </trkpt>
      <trkpt lat="49.49864" lon="1.11404">
        <ele>170</ele>
        <time>2017-06-20T14:37:55Z</time>
      </trkpt>
      <trkpt lat="49.49865" lon="1.11398">
        <ele>170</ele>
        <time>2017-06-20T14:37:55Z</time>
      </trkpt>
      <trkpt lat="49.49868" lon="1.1139">
        <ele>170</ele>
        <time>2017-06-20T14:37:55Z</time>
      </trkpt>
      <trkpt lat="49.49869" lon="1.11375">
        <ele>170</ele>
        <time>2017-06-20T14:38:16Z</time>
      </trkpt>
      <trkpt lat="49.49868" lon="1.11367">
        <ele>174</ele>
        <time>2017-06-20T14:38:16Z</time>
      </trkpt>
      <trkpt lat="49.49869" lon="1.11363">
        <ele>174</ele>
        <time>2017-06-20T14:38:16Z</time>
      </trkpt>
      <trkpt lat="49.49869" lon="1.1135">
        <ele>174</ele>
        <time>2017-06-20T14:38:16Z</time>
      </trkpt>
      <trkpt lat="49.49869" lon="1.11345">
        <ele>174</ele>
        <time>2017-06-20T14:38:29Z</time>
      </trkpt>
      <trkpt lat="49.49869" lon="1.11343">
        <ele>174</ele>
        <time>2017-06-20T14:38:29Z</time>
      </trkpt>
      <trkpt lat="49.4987" lon="1.11333">
        <ele>174</ele>
        <time>2017-06-20T14:38:29Z</time>
      </trkpt>
      <trkpt lat="49.49874" lon="1.11321">
        <ele>174</ele>
        <time>2017-06-20T14:38:29Z</time>
      </trkpt>
      <trkpt lat="49.49877" lon="1.11313">
        <ele>169</ele>
        <time>2017-06-20T14:38:45Z</time>
      </trkpt>
      <trkpt lat="49.49878" lon="1.11306">
        <ele>169</ele>
        <time>2017-06-20T14:38:45Z</time>
      </trkpt>
      <trkpt lat="49.49878" lon="1.11299">
        <ele>169</ele>
        <time>2017-06-20T14:38:45Z</time>
      </trkpt>
      <trkpt lat="49.4988" lon="1.11292">
        <ele>169</ele>
        <time>2017-06-20T14:38:45Z</time>
      </trkpt>
      <trkpt lat="49.49882" lon="1.11285">
        <ele>170</ele>
        <time>2017-06-20T14:39:02Z</time>
      </trkpt>
      <trkpt lat="49.49883" lon="1.11281">
        <ele>170</ele>
        <time>2017-06-20T14:39:02Z</time>
      </trkpt>
      <trkpt lat="49.49885" lon="1.11269">
        <ele>170</ele>
        <time>2017-06-20T14:39:02Z</time>
      </trkpt>
      <trkpt lat="49.49888" lon="1.1126">
        <ele>170</ele>
        <time>2017-06-20T14:39:02Z</time>
      </trkpt>
      <trkpt lat="49.4989" lon="1.11253">
        <ele>170</ele>
        <time>2017-06-20T14:39:19Z</time>
      </trkpt>
      <trkpt lat="49.49892" lon="1.11243">
        <ele>170</ele>
        <time>2017-06-20T14:39:19Z</time>
      </trkpt>
      <trkpt lat="49.49895" lon="1.11237">
        <ele>170</ele>
        <time>2017-06-20T14:39:20Z</time>
      </trkpt>
      <trkpt lat="49.49896" lon="1.11231">
        <ele>170</ele>
        <time>2017-06-20T14:39:20Z</time>
      </trkpt>
      <trkpt lat="49.49896" lon="1.11224">
        <ele>170</ele>
        <time>2017-06-20T14:39:34Z</time>
      </trkpt>
      <trkpt lat="49.49897" lon="1.11218">
        <ele>170</ele>
        <time>2017-06-20T14:39:34Z</time>
      </trkpt>
      <trkpt lat="49.49898" lon="1.11214">
        <ele>170</ele>
        <time>2017-06-20T14:39:34Z</time>
      </trkpt>
      <trkpt lat="49.49899" lon="1.11207">
        <ele>170</ele>
        <time>2017-06-20T14:39:34Z</time>
      </trkpt>
      <trkpt lat="49.499" lon="1.11197">
        <ele>170</ele>
        <time>2017-06-20T14:39:50Z</time>
      </trkpt>
      <trkpt lat="49.499" lon="1.1119">
        <ele>170</ele>
        <time>2017-06-20T14:39:50Z</time>
      </trkpt>
      <trkpt lat="49.49902" lon="1.11182">
        <ele>170</ele>
        <time>2017-06-20T14:39:50Z</time>
      </trkpt>
      <trkpt lat="49.49902" lon="1.11176">
        <ele>170</ele>
        <time>2017-06-20T14:39:50Z</time>
      </trkpt>
      <trkpt lat="49.49903" lon="1.1117">
        <ele>170</ele>
        <time>2017-06-20T14:40:05Z</time>
      </trkpt>
      <trkpt lat="49.49904" lon="1.11161">
        <ele>170</ele>
        <time>2017-06-20T14:40:05Z</time>
      </trkpt>
      <trkpt lat="49.49905" lon="1.11152">
        <ele>170</ele>
        <time>2017-06-20T14:40:05Z</time>
      </trkpt>
      <trkpt lat="49.49906" lon="1.11146">
        <ele>170</ele>
        <time>2017-06-20T14:40:05Z</time>
      </trkpt>
      <trkpt lat="49.49906" lon="1.1114">
        <ele>170</ele>
        <time>2017-06-20T14:40:21Z</time>
      </trkpt>
      <trkpt lat="49.49907" lon="1.1113">
        <ele>170</ele>
        <time>2017-06-20T14:40:22Z</time>
      </trkpt>
      <trkpt lat="49.49908" lon="1.11121">
        <ele>170</ele>
        <time>2017-06-20T14:40:22Z</time>
      </trkpt>
      <trkpt lat="49.4991" lon="1.11117">
        <ele>170</ele>
        <time>2017-06-20T14:40:22Z</time>
      </trkpt>
      <trkpt lat="49.49911" lon="1.11106">
        <ele>170</ele>
        <time>2017-06-20T14:40:38Z</time>
      </trkpt>
      <trkpt lat="49.49912" lon="1.11099">
        <ele>170</ele>
        <time>2017-06-20T14:40:38Z</time>
      </trkpt>
      <trkpt lat="49.49914" lon="1.11094">
        <ele>170</ele>
        <time>2017-06-20T14:40:38Z</time>
      </trkpt>
      <trkpt lat="49.49914" lon="1.11088">
        <ele>170</ele>
        <time>2017-06-20T14:40:38Z</time>
      </trkpt>
      <trkpt lat="49.49913" lon="1.11088">
        <ele>170</ele>
        <time>2017-06-20T14:40:54Z</time>
      </trkpt>
      <trkpt lat="49.49918" lon="1.11074">
        <ele>170</ele>
        <time>2017-06-20T14:40:54Z</time>
      </trkpt>
      <trkpt lat="49.49921" lon="1.11063">
        <ele>170</ele>
        <time>2017-06-20T14:40:54Z</time>
      </trkpt>
      <trkpt lat="49.49922" lon="1.11057">
        <ele>170</ele>
        <time>2017-06-20T14:40:54Z</time>
      </trkpt>
      <trkpt lat="49.49924" lon="1.1105">
        <ele>170</ele>
        <time>2017-06-20T14:41:10Z</time>
      </trkpt>
      <trkpt lat="49.49925" lon="1.11038">
        <ele>171</ele>
        <time>2017-06-20T14:41:10Z</time>
      </trkpt>
      <trkpt lat="49.49926" lon="1.11033">
        <ele>171</ele>
        <time>2017-06-20T14:41:10Z</time>
      </trkpt>
      <trkpt lat="49.49927" lon="1.11027">
        <ele>171</ele>
        <time>2017-06-20T14:41:10Z</time>
      </trkpt>
      <trkpt lat="49.49928" lon="1.1102">
        <ele>171</ele>
        <time>2017-06-20T14:41:26Z</time>
      </trkpt>
      <trkpt lat="49.49927" lon="1.11017">
        <ele>171</ele>
        <time>2017-06-20T14:41:26Z</time>
      </trkpt>
      <trkpt lat="49.49929" lon="1.11003">
        <ele>171</ele>
        <time>2017-06-20T14:41:26Z</time>
      </trkpt>
      <trkpt lat="49.4993" lon="1.10998">
        <ele>171</ele>
        <time>2017-06-20T14:41:26Z</time>
      </trkpt>
      <trkpt lat="49.49931" lon="1.1099">
        <ele>171</ele>
        <time>2017-06-20T14:41:42Z</time>
      </trkpt>
      <trkpt lat="49.49932" lon="1.10983">
        <ele>171</ele>
        <time>2017-06-20T14:41:42Z</time>
      </trkpt>
      <trkpt lat="49.49932" lon="1.10973">
        <ele>171</ele>
        <time>2017-06-20T14:41:42Z</time>
      </trkpt>
      <trkpt lat="49.49932" lon="1.10969">
        <ele>171</ele>
        <time>2017-06-20T14:41:42Z</time>
      </trkpt>
      <trkpt lat="49.49934" lon="1.10962">
        <ele>171</ele>
        <time>2017-06-20T14:41:59Z</time>
      </trkpt>
      <trkpt lat="49.49939" lon="1.10947">
        <ele>169</ele>
        <time>2017-06-20T14:41:59Z</time>
      </trkpt>
      <trkpt lat="49.49942" lon="1.10939">
        <ele>169</ele>
        <time>2017-06-20T14:41:59Z</time>
      </trkpt>
      <trkpt lat="49.49945" lon="1.10936">
        <ele>169</ele>
        <time>2017-06-20T14:41:59Z</time>
      </trkpt>
      <trkpt lat="49.49946" lon="1.10923">
        <ele>169</ele>
        <time>2017-06-20T14:42:15Z</time>
      </trkpt>
      <trkpt lat="49.49946" lon="1.10921">
        <ele>169</ele>
        <time>2017-06-20T14:42:15Z</time>
      </trkpt>
      <trkpt lat="49.49948" lon="1.1091">
        <ele>169</ele>
        <time>2017-06-20T14:42:15Z</time>
      </trkpt>
      <trkpt lat="49.49947" lon="1.10905">
        <ele>169</ele>
        <time>2017-06-20T14:42:15Z</time>
      </trkpt>
      <trkpt lat="49.49947" lon="1.109">
        <ele>169</ele>
        <time>2017-06-20T14:42:30Z</time>
      </trkpt>
      <trkpt lat="49.49948" lon="1.10897">
        <ele>169</ele>
        <time>2017-06-20T14:42:30Z</time>
      </trkpt>
      <trkpt lat="49.49948" lon="1.10887">
        <ele>169</ele>
        <time>2017-06-20T14:42:30Z</time>
      </trkpt>
      <trkpt lat="49.49947" lon="1.10881">
        <ele>169</ele>
        <time>2017-06-20T14:42:30Z</time>
      </trkpt>
      <trkpt lat="49.49949" lon="1.10871">
        <ele>169</ele>
        <time>2017-06-20T14:42:47Z</time>
      </trkpt>
      <trkpt lat="49.4995" lon="1.10863">
        <ele>169</ele>
        <time>2017-06-20T14:42:47Z</time>
      </trkpt>
      <trkpt lat="49.49952" lon="1.10854">
        <ele>169</ele>
        <time>2017-06-20T14:42:47Z</time>
      </trkpt>
      <trkpt lat="49.49952" lon="1.10845">
        <ele>169</ele>
        <time>2017-06-20T14:42:47Z</time>
      </trkpt>
      <trkpt lat="49.49952" lon="1.10837">
        <ele>169</ele>
        <time>2017-06-20T14:43:02Z</time>
      </trkpt>
      <trkpt lat="49.49952" lon="1.10831">
        <ele>169</ele>
        <time>2017-06-20T14:43:02Z</time>
      </trkpt>
      <trkpt lat="49.4995" lon="1.10829">
        <ele>169</ele>
        <time>2017-06-20T14:43:02Z</time>
      </trkpt>
      <trkpt lat="49.4995" lon="1.10817">
        <ele>169</ele>
        <time>2017-06-20T14:43:03Z</time>
      </trkpt>
      <trkpt lat="49.49948" lon="1.10814">
        <ele>169</ele>
        <time>2017-06-20T14:43:19Z</time>
      </trkpt>
      <trkpt lat="49.49945" lon="1.10807">
        <ele>169</ele>
        <time>2017-06-20T14:43:19Z</time>
      </trkpt>
      <trkpt lat="49.4994" lon="1.10805">
        <ele>169</ele>
        <time>2017-06-20T14:43:19Z</time>
      </trkpt>
      <trkpt lat="49.49937" lon="1.108">
        <ele>169</ele>
        <time>2017-06-20T14:43:19Z</time>
      </trkpt>
      <trkpt lat="49.49934" lon="1.10797">
        <ele>169</ele>
        <time>2017-06-20T14:43:33Z</time>
      </trkpt>
      <trkpt lat="49.49934" lon="1.10791">
        <ele>169</ele>
        <time>2017-06-20T14:43:33Z</time>
      </trkpt>
      <trkpt lat="49.49932" lon="1.10786">
        <ele>169</ele>
        <time>2017-06-20T14:43:33Z</time>
      </trkpt>
      <trkpt lat="49.49932" lon="1.1078">
        <ele>169</ele>
        <time>2017-06-20T14:43:33Z</time>
      </trkpt>
      <trkpt lat="49.49932" lon="1.10766">
        <ele>169</ele>
        <time>2017-06-20T14:45:50Z</time>
      </trkpt>
      <trkpt lat="49.49931" lon="1.10763">
        <ele>169</ele>
        <time>2017-06-20T14:45:50Z</time>
      </trkpt>
      <trkpt lat="49.49928" lon="1.10761">
        <ele>169</ele>
        <time>2017-06-20T14:45:50Z</time>
      </trkpt>
      <trkpt lat="49.49926" lon="1.10758">
        <ele>169</ele>
        <time>2017-06-20T14:45:50Z</time>
      </trkpt>
      <trkpt lat="49.49923" lon="1.10752">
        <ele>169</ele>
        <time>2017-06-20T14:45:50Z</time>
      </trkpt>
      <trkpt lat="49.49923" lon="1.10746">
        <ele>169</ele>
        <time>2017-06-20T14:46:06Z</time>
      </trkpt>
      <trkpt lat="49.49923" lon="1.10742">
        <ele>169</ele>
        <time>2017-06-20T14:46:07Z</time>
      </trkpt>
      <trkpt lat="49.49925" lon="1.10736">
        <ele>169</ele>
        <time>2017-06-20T14:46:07Z</time>
      </trkpt>
      <trkpt lat="49.49921" lon="1.10731">
        <ele>169</ele>
        <time>2017-06-20T14:46:07Z</time>
      </trkpt>
      <trkpt lat="49.4992" lon="1.10725">
        <ele>169</ele>
        <time>2017-06-20T14:46:22Z</time>
      </trkpt>
      <trkpt lat="49.49919" lon="1.10721">
        <ele>169</ele>
        <time>2017-06-20T14:46:22Z</time>
      </trkpt>
      <trkpt lat="49.49918" lon="1.10717">
        <ele>169</ele>
        <time>2017-06-20T14:46:22Z</time>
      </trkpt>
      <trkpt lat="49.49916" lon="1.10713">
        <ele>169</ele>
        <time>2017-06-20T14:46:22Z</time>
      </trkpt>
      <trkpt lat="49.49913" lon="1.10705">
        <ele>172</ele>
        <time>2017-06-20T14:46:37Z</time>
      </trkpt>
      <trkpt lat="49.49911" lon="1.10703">
        <ele>172</ele>
        <time>2017-06-20T14:46:37Z</time>
      </trkpt>
      <trkpt lat="49.49902" lon="1.10691">
        <ele>172</ele>
        <time>2017-06-20T14:46:37Z</time>
      </trkpt>
      <trkpt lat="49.499" lon="1.10689">
        <ele>172</ele>
        <time>2017-06-20T14:46:37Z</time>
      </trkpt>
      <trkpt lat="49.49899" lon="1.10686">
        <ele>172</ele>
        <time>2017-06-20T14:46:54Z</time>
      </trkpt>
      <trkpt lat="49.49896" lon="1.10679">
        <ele>172</ele>
        <time>2017-06-20T14:46:54Z</time>
      </trkpt>
      <trkpt lat="49.49894" lon="1.10674">
        <ele>172</ele>
        <time>2017-06-20T14:46:54Z</time>
      </trkpt>
      <trkpt lat="49.49892" lon="1.10668">
        <ele>172</ele>
        <time>2017-06-20T14:46:54Z</time>
      </trkpt>
      <trkpt lat="49.49891" lon="1.10662">
        <ele>172</ele>
        <time>2017-06-20T14:47:11Z</time>
      </trkpt>
      <trkpt lat="49.49888" lon="1.10658">
        <ele>172</ele>
        <time>2017-06-20T14:47:11Z</time>
      </trkpt>
      <trkpt lat="49.49884" lon="1.10651">
        <ele>172</ele>
        <time>2017-06-20T14:47:11Z</time>
      </trkpt>
      <trkpt lat="49.49882" lon="1.10639">
        <ele>172</ele>
        <time>2017-06-20T14:47:11Z</time>
      </trkpt>
      <trkpt lat="49.4988" lon="1.10632">
        <ele>172</ele>
        <time>2017-06-20T14:47:29Z</time>
      </trkpt>
      <trkpt lat="49.49879" lon="1.10625">
        <ele>172</ele>
        <time>2017-06-20T14:47:29Z</time>
      </trkpt>
      <trkpt lat="49.49877" lon="1.10622">
        <ele>173</ele>
        <time>2017-06-20T14:47:29Z</time>
      </trkpt>
      <trkpt lat="49.49879" lon="1.1062">
        <ele>173</ele>
        <time>2017-06-20T14:47:29Z</time>
      </trkpt>
      <trkpt lat="49.49879" lon="1.10617">
        <ele>173</ele>
        <time>2017-06-20T14:47:29Z</time>
      </trkpt>
      <trkpt lat="49.49877" lon="1.10615">
        <ele>173</ele>
        <time>2017-06-20T14:47:46Z</time>
      </trkpt>
      <trkpt lat="49.49874" lon="1.10607">
        <ele>172</ele>
        <time>2017-06-20T14:47:46Z</time>
      </trkpt>
      <trkpt lat="49.49872" lon="1.10601">
        <ele>172</ele>
        <time>2017-06-20T14:47:46Z</time>
      </trkpt>
      <trkpt lat="49.49868" lon="1.10587">
        <ele>172</ele>
        <time>2017-06-20T14:47:46Z</time>
      </trkpt>
      <trkpt lat="49.49865" lon="1.10582">
        <ele>172</ele>
        <time>2017-06-20T14:48:01Z</time>
      </trkpt>
      <trkpt lat="49.49863" lon="1.10578">
        <ele>172</ele>
        <time>2017-06-20T14:48:01Z</time>
      </trkpt>
      <trkpt lat="49.49861" lon="1.10569">
        <ele>172</ele>
        <time>2017-06-20T14:48:01Z</time>
      </trkpt>
      <trkpt lat="49.49862" lon="1.10561">
        <ele>172</ele>
        <time>2017-06-20T14:48:01Z</time>
      </trkpt>
      <trkpt lat="49.49856" lon="1.10553">
        <ele>172</ele>
        <time>2017-06-20T14:48:17Z</time>
      </trkpt>
      <trkpt lat="49.49856" lon="1.10545">
        <ele>172</ele>
        <time>2017-06-20T14:48:17Z</time>
      </trkpt>
      <trkpt lat="49.49853" lon="1.1054">
        <ele>173</ele>
        <time>2017-06-20T14:48:17Z</time>
      </trkpt>
      <trkpt lat="49.49853" lon="1.10537">
        <ele>173</ele>
        <time>2017-06-20T14:48:17Z</time>
      </trkpt>
      <trkpt lat="49.49853" lon="1.10532">
        <ele>173</ele>
        <time>2017-06-20T14:48:35Z</time>
      </trkpt>
      <trkpt lat="49.49851" lon="1.10525">
        <ele>173</ele>
        <time>2017-06-20T14:48:35Z</time>
      </trkpt>
      <trkpt lat="49.49847" lon="1.10522">
        <ele>173</ele>
        <time>2017-06-20T14:48:35Z</time>
      </trkpt>
      <trkpt lat="49.49846" lon="1.10519">
        <ele>173</ele>
        <time>2017-06-20T14:48:35Z</time>
      </trkpt>
      <trkpt lat="49.49846" lon="1.10515">
        <ele>173</ele>
        <time>2017-06-20T14:50:26Z</time>
      </trkpt>
      <trkpt lat="49.49846" lon="1.10515">
        <ele>173</ele>
        <time>2017-06-20T14:50:26Z</time>
      </trkpt>
      <trkpt lat="49.49846" lon="1.10515">
        <ele>173</ele>
        <time>2017-06-20T14:50:26Z</time>
      </trkpt>
      <trkpt lat="49.49844" lon="1.10509">
        <ele>173</ele>
        <time>2017-06-20T14:50:26Z</time>
      </trkpt>
      <trkpt lat="49.49842" lon="1.10506">
        <ele>173</ele>
        <time>2017-06-20T14:50:26Z</time>
      </trkpt>
      <trkpt lat="49.49841" lon="1.10502">
        <ele>173</ele>
        <time>2017-06-20T14:50:55Z</time>
      </trkpt>
      <trkpt lat="49.49841" lon="1.10499">
        <ele>173</ele>
        <time>2017-06-20T14:50:55Z</time>
      </trkpt>
      <trkpt lat="49.49841" lon="1.10497">
        <ele>173</ele>
        <time>2017-06-20T14:50:55Z</time>
      </trkpt>
      <trkpt lat="49.49842" lon="1.10496">
        <ele>173</ele>
        <time>2017-06-20T14:50:55Z</time>
      </trkpt>
      <trkpt lat="49.49844" lon="1.1049">
        <ele>173</ele>
        <time>2017-06-20T14:50:55Z</time>
      </trkpt>
      <trkpt lat="49.49845" lon="1.10486">
        <ele>173</ele>
        <time>2017-06-20T14:51:09Z</time>
      </trkpt>
      <trkpt lat="49.49845" lon="1.10484">
        <ele>173</ele>
        <time>2017-06-20T14:51:09Z</time>
      </trkpt>
      <trkpt lat="49.49845" lon="1.10476">
        <ele>173</ele>
        <time>2017-06-20T14:51:09Z</time>
      </trkpt>
      <trkpt lat="49.49844" lon="1.10472">
        <ele>173</ele>
        <time>2017-06-20T14:51:09Z</time>
      </trkpt>
      <trkpt lat="49.49843" lon="1.10468">
        <ele>173</ele>
        <time>2017-06-20T14:51:30Z</time>
      </trkpt>
      <trkpt lat="49.49839" lon="1.10469">
        <ele>173</ele>
        <time>2017-06-20T14:51:31Z</time>
      </trkpt>
      <trkpt lat="49.49838" lon="1.1047">
        <ele>173</ele>
        <time>2017-06-20T14:51:31Z</time>
      </trkpt>
      <trkpt lat="49.49837" lon="1.10469">
        <ele>173</ele>
        <time>2017-06-20T14:51:31Z</time>
      </trkpt>
      <trkpt lat="49.4983" lon="1.10464">
        <ele>173</ele>
        <time>2017-06-20T14:51:31Z</time>
      </trkpt>
      <trkpt lat="49.49825" lon="1.10455">
        <ele>174</ele>
        <time>2017-06-20T14:52:05Z</time>
      </trkpt>
      <trkpt lat="49.49825" lon="1.10455">
        <ele>174</ele>
        <time>2017-06-20T14:52:05Z</time>
      </trkpt>
      <trkpt lat="49.49825" lon="1.10455">
        <ele>174</ele>
        <time>2017-06-20T14:52:05Z</time>
      </trkpt>
      <trkpt lat="49.49824" lon="1.10456">
        <ele>174</ele>
        <time>2017-06-20T14:52:05Z</time>
      </trkpt>
      <trkpt lat="49.49816" lon="1.10458">
        <ele>174</ele>
        <time>2017-06-20T14:52:05Z</time>
      </trkpt>
      <trkpt lat="49.49813" lon="1.10452">
        <ele>174</ele>
        <time>2017-06-20T14:52:25Z</time>
      </trkpt>
      <trkpt lat="49.49812" lon="1.10453">
        <ele>174</ele>
        <time>2017-06-20T14:52:25Z</time>
      </trkpt>
      <trkpt lat="49.49811" lon="1.1045">
        <ele>174</ele>
        <time>2017-06-20T14:52:25Z</time>
      </trkpt>
      <trkpt lat="49.49805" lon="1.10451">
        <ele>174</ele>
        <time>2017-06-20T14:52:25Z</time>
      </trkpt>
      <trkpt lat="49.49799" lon="1.10447">
        <ele>174</ele>
        <time>2017-06-20T14:52:25Z</time>
      </trkpt>
      <trkpt lat="49.49795" lon="1.10448">
        <ele>174</ele>
        <time>2017-06-20T14:52:42Z</time>
      </trkpt>
      <trkpt lat="49.4979" lon="1.10444">
        <ele>172</ele>
        <time>2017-06-20T14:52:42Z</time>
      </trkpt>
      <trkpt lat="49.49784" lon="1.10442">
        <ele>172</ele>
        <time>2017-06-20T14:52:42Z</time>
      </trkpt>
      <trkpt lat="49.49777" lon="1.10445">
        <ele>172</ele>
        <time>2017-06-20T14:52:42Z</time>
      </trkpt>
      <trkpt lat="49.49772" lon="1.10446">
        <ele>172</ele>
        <time>2017-06-20T14:53:06Z</time>
      </trkpt>
      <trkpt lat="49.4977" lon="1.10447">
        <ele>172</ele>
        <time>2017-06-20T14:53:06Z</time>
      </trkpt>
      <trkpt lat="49.49769" lon="1.10447">
        <ele>172</ele>
        <time>2017-06-20T14:53:06Z</time>
      </trkpt>
      <trkpt lat="49.49768" lon="1.10447">
        <ele>172</ele>
        <time>2017-06-20T14:53:06Z</time>
      </trkpt>
      <trkpt lat="49.4976" lon="1.1044">
        <ele>172</ele>
        <time>2017-06-20T14:53:06Z</time>
      </trkpt>
      <trkpt lat="49.49756" lon="1.10437">
        <ele>172</ele>
        <time>2017-06-20T14:53:22Z</time>
      </trkpt>
      <trkpt lat="49.49753" lon="1.10437">
        <ele>172</ele>
        <time>2017-06-20T14:53:22Z</time>
      </trkpt>
      <trkpt lat="49.49747" lon="1.10436">
        <ele>172</ele>
        <time>2017-06-20T14:53:22Z</time>
      </trkpt>
      <trkpt lat="49.49745" lon="1.10436">
        <ele>172</ele>
        <time>2017-06-20T14:53:22Z</time>
      </trkpt>
      <trkpt lat="49.49745" lon="1.10436">
        <ele>172</ele>
        <time>2017-06-20T14:53:38Z</time>
      </trkpt>
      <trkpt lat="49.49745" lon="1.10436">
        <ele>172</ele>
        <time>2017-06-20T14:53:38Z</time>
      </trkpt>
      <trkpt lat="49.49735" lon="1.10437">
        <ele>172</ele>
        <time>2017-06-20T14:53:38Z</time>
      </trkpt>
      <trkpt lat="49.49726" lon="1.10432">
        <ele>172</ele>
        <time>2017-06-20T14:53:38Z</time>
      </trkpt>
      <trkpt lat="49.49722" lon="1.10426">
        <ele>172</ele>
        <time>2017-06-20T14:53:55Z</time>
      </trkpt>
      <trkpt lat="49.49719" lon="1.10419">
        <ele>172</ele>
        <time>2017-06-20T14:53:55Z</time>
      </trkpt>
      <trkpt lat="49.49716" lon="1.10409">
        <ele>172</ele>
        <time>2017-06-20T14:53:55Z</time>
      </trkpt>
      <trkpt lat="49.49712" lon="1.10406">
        <ele>172</ele>
        <time>2017-06-20T14:53:55Z</time>
      </trkpt>
      <trkpt lat="49.4971" lon="1.10403">
        <ele>172</ele>
        <time>2017-06-20T14:54:09Z</time>
      </trkpt>
      <trkpt lat="49.49707" lon="1.104">
        <ele>175</ele>
        <time>2017-06-20T14:54:09Z</time>
      </trkpt>
      <trkpt lat="49.49701" lon="1.10399">
        <ele>175</ele>
        <time>2017-06-20T14:54:09Z</time>
      </trkpt>
      <trkpt lat="49.49693" lon="1.10399">
        <ele>175</ele>
        <time>2017-06-20T14:54:09Z</time>
      </trkpt>
      <trkpt lat="49.49684" lon="1.10399">
        <ele>175</ele>
        <time>2017-06-20T14:54:26Z</time>
      </trkpt>
      <trkpt lat="49.49675" lon="1.10394">
        <ele>175</ele>
        <time>2017-06-20T14:54:26Z</time>
      </trkpt>
      <trkpt lat="49.49669" lon="1.10389">
        <ele>175</ele>
        <time>2017-06-20T14:54:26Z</time>
      </trkpt>
      <trkpt lat="49.49665" lon="1.10384">
        <ele>175</ele>
        <time>2017-06-20T14:54:26Z</time>
      </trkpt>
      <trkpt lat="49.49656" lon="1.10382">
        <ele>175</ele>
        <time>2017-06-20T14:54:59Z</time>
      </trkpt>
      <trkpt lat="49.49654" lon="1.10381">
        <ele>175</ele>
        <time>2017-06-20T14:54:59Z</time>
      </trkpt>
      <trkpt lat="49.49654" lon="1.10381">
        <ele>175</ele>
        <time>2017-06-20T14:54:59Z</time>
      </trkpt>
      <trkpt lat="49.49651" lon="1.10378">
        <ele>175</ele>
        <time>2017-06-20T14:54:59Z</time>
      </trkpt>
      <trkpt lat="49.49641" lon="1.10379">
        <ele>175</ele>
        <time>2017-06-20T14:54:59Z</time>
      </trkpt>
      <trkpt lat="49.49637" lon="1.10376">
        <ele>175</ele>
        <time>2017-06-20T14:55:18Z</time>
      </trkpt>
      <trkpt lat="49.49635" lon="1.10376">
        <ele>175</ele>
        <time>2017-06-20T14:55:18Z</time>
      </trkpt>
      <trkpt lat="49.49633" lon="1.10375">
        <ele>175</ele>
        <time>2017-06-20T14:55:18Z</time>
      </trkpt>
      <trkpt lat="49.49632" lon="1.10375">
        <ele>173</ele>
        <time>2017-06-20T14:55:18Z</time>
      </trkpt>
      <trkpt lat="49.49626" lon="1.10371">
        <ele>173</ele>
        <time>2017-06-20T14:55:18Z</time>
      </trkpt>
      <trkpt lat="49.49621" lon="1.10371">
        <ele>176</ele>
        <time>2017-06-20T14:55:49Z</time>
      </trkpt>
      <trkpt lat="49.49621" lon="1.10371">
        <ele>176</ele>
        <time>2017-06-20T14:55:49Z</time>
      </trkpt>
      <trkpt lat="49.49619" lon="1.1037">
        <ele>176</ele>
        <time>2017-06-20T14:55:49Z</time>
      </trkpt>
      <trkpt lat="49.49616" lon="1.10369">
        <ele>176</ele>
        <time>2017-06-20T14:55:49Z</time>
      </trkpt>
      <trkpt lat="49.49613" lon="1.10368">
        <ele>176</ele>
        <time>2017-06-20T14:55:49Z</time>
      </trkpt>
      <trkpt lat="49.4961" lon="1.10363">
        <ele>176</ele>
        <time>2017-06-20T14:56:22Z</time>
      </trkpt>
      <trkpt lat="49.4961" lon="1.10363">
        <ele>176</ele>
        <time>2017-06-20T14:56:22Z</time>
      </trkpt>
      <trkpt lat="49.49611" lon="1.10358">
        <ele>176</ele>
        <time>2017-06-20T14:56:22Z</time>
      </trkpt>
      <trkpt lat="49.49608" lon="1.10354">
        <ele>176</ele>
        <time>2017-06-20T14:56:22Z</time>
      </trkpt>
      <trkpt lat="49.49604" lon="1.10348">
        <ele>176</ele>
        <time>2017-06-20T14:56:22Z</time>
      </trkpt>
      <trkpt lat="49.49601" lon="1.10335">
        <ele>176</ele>
        <time>2017-06-20T14:56:37Z</time>
      </trkpt>
      <trkpt lat="49.496" lon="1.10328">
        <ele>176</ele>
        <time>2017-06-20T14:56:37Z</time>
      </trkpt>
      <trkpt lat="49.49597" lon="1.10319">
        <ele>176</ele>
        <time>2017-06-20T14:56:37Z</time>
      </trkpt>
      <trkpt lat="49.49598" lon="1.10309">
        <ele>176</ele>
        <time>2017-06-20T14:56:37Z</time>
      </trkpt>
      <trkpt lat="49.49599" lon="1.103">
        <ele>176</ele>
        <time>2017-06-20T14:56:54Z</time>
      </trkpt>
      <trkpt lat="49.49597" lon="1.10292">
        <ele>176</ele>
        <time>2017-06-20T14:56:54Z</time>
      </trkpt>
      <trkpt lat="49.49592" lon="1.10283">
        <ele>177</ele>
        <time>2017-06-20T14:56:54Z</time>
      </trkpt>
      <trkpt lat="49.49592" lon="1.10276">
        <ele>177</ele>
        <time>2017-06-20T14:56:54Z</time>
      </trkpt>
      <trkpt lat="49.49591" lon="1.1027">
        <ele>177</ele>
        <time>2017-06-20T14:57:10Z</time>
      </trkpt>
      <trkpt lat="49.49592" lon="1.10268">
        <ele>177</ele>
        <time>2017-06-20T14:57:10Z</time>
      </trkpt>
      <trkpt lat="49.49589" lon="1.10258">
        <ele>177</ele>
        <time>2017-06-20T14:57:10Z</time>
      </trkpt>
      <trkpt lat="49.49587" lon="1.10253">
        <ele>177</ele>
        <time>2017-06-20T14:57:10Z</time>
      </trkpt>
      <trkpt lat="49.49587" lon="1.10251">
        <ele>177</ele>
        <time>2017-06-20T14:57:30Z</time>
      </trkpt>
      <trkpt lat="49.49587" lon="1.10249">
        <ele>177</ele>
        <time>2017-06-20T14:57:30Z</time>
      </trkpt>
      <trkpt lat="49.49586" lon="1.10247">
        <ele>177</ele>
        <time>2017-06-20T14:57:30Z</time>
      </trkpt>
      <trkpt lat="49.49586" lon="1.10247">
        <ele>177</ele>
        <time>2017-06-20T14:57:30Z</time>
      </trkpt>
      <trkpt lat="49.49585" lon="1.10233">
        <ele>177</ele>
        <time>2017-06-20T14:57:30Z</time>
      </trkpt>
      <trkpt lat="49.49584" lon="1.10224">
        <ele>177</ele>
        <time>2017-06-20T14:57:46Z</time>
      </trkpt>
      <trkpt lat="49.49584" lon="1.10209">
        <ele>177</ele>
        <time>2017-06-20T14:57:46Z</time>
      </trkpt>
      <trkpt lat="49.49582" lon="1.10206">
        <ele>179</ele>
        <time>2017-06-20T14:57:46Z</time>
      </trkpt>
      <trkpt lat="49.49582" lon="1.10202">
        <ele>179</ele>
        <time>2017-06-20T14:57:46Z</time>
      </trkpt>
      <trkpt lat="49.49582" lon="1.10199">
        <ele>179</ele>
        <time>2017-06-20T14:58:04Z</time>
      </trkpt>
      <trkpt lat="49.49582" lon="1.10181">
        <ele>179</ele>
        <time>2017-06-20T14:58:04Z</time>
      </trkpt>
      <trkpt lat="49.49582" lon="1.10174">
        <ele>179</ele>
        <time>2017-06-20T14:58:04Z</time>
      </trkpt>
      <trkpt lat="49.49583" lon="1.10158">
        <ele>179</ele>
        <time>2017-06-20T14:58:04Z</time>
      </trkpt>
      <trkpt lat="49.4958" lon="1.10149">
        <ele>179</ele>
        <time>2017-06-20T14:58:22Z</time>
      </trkpt>
      <trkpt lat="49.4958" lon="1.10136">
        <ele>179</ele>
        <time>2017-06-20T14:58:22Z</time>
      </trkpt>
      <trkpt lat="49.49578" lon="1.10128">
        <ele>179</ele>
        <time>2017-06-20T14:58:22Z</time>
      </trkpt>
      <trkpt lat="49.49577" lon="1.10121">
        <ele>177</ele>
        <time>2017-06-20T14:58:22Z</time>
      </trkpt>
      <trkpt lat="49.49576" lon="1.10112">
        <ele>177</ele>
        <time>2017-06-20T14:58:37Z</time>
      </trkpt>
      <trkpt lat="49.49573" lon="1.10104">
        <ele>177</ele>
        <time>2017-06-20T14:58:37Z</time>
      </trkpt>
      <trkpt lat="49.49572" lon="1.10098">
        <ele>177</ele>
        <time>2017-06-20T14:58:37Z</time>
      </trkpt>
      <trkpt lat="49.49572" lon="1.10089">
        <ele>177</ele>
        <time>2017-06-20T14:58:37Z</time>
      </trkpt>
      <trkpt lat="49.49576" lon="1.10082">
        <ele>177</ele>
        <time>2017-06-20T14:58:54Z</time>
      </trkpt>
      <trkpt lat="49.49577" lon="1.10075">
        <ele>177</ele>
        <time>2017-06-20T14:58:54Z</time>
      </trkpt>
      <trkpt lat="49.49573" lon="1.10068">
        <ele>177</ele>
        <time>2017-06-20T14:58:54Z</time>
      </trkpt>
      <trkpt lat="49.49572" lon="1.10061">
        <ele>177</ele>
        <time>2017-06-20T14:58:54Z</time>
      </trkpt>
      <trkpt lat="49.49571" lon="1.10053">
        <ele>177</ele>
        <time>2017-06-20T14:59:11Z</time>
      </trkpt>
      <trkpt lat="49.49569" lon="1.10048">
        <ele>177</ele>
        <time>2017-06-20T14:59:11Z</time>
      </trkpt>
      <trkpt lat="49.4957" lon="1.1004">
        <ele>175</ele>
        <time>2017-06-20T14:59:11Z</time>
      </trkpt>
      <trkpt lat="49.49569" lon="1.10037">
        <ele>175</ele>
        <time>2017-06-20T14:59:11Z</time>
      </trkpt>
      <trkpt lat="49.49567" lon="1.10033">
        <ele>175</ele>
        <time>2017-06-20T14:59:27Z</time>
      </trkpt>
      <trkpt lat="49.49567" lon="1.1003">
        <ele>175</ele>
        <time>2017-06-20T14:59:27Z</time>
      </trkpt>
      <trkpt lat="49.49566" lon="1.10025">
        <ele>175</ele>
        <time>2017-06-20T14:59:27Z</time>
      </trkpt>
      <trkpt lat="49.49566" lon="1.10015">
        <ele>175</ele>
        <time>2017-06-20T14:59:27Z</time>
      </trkpt>
      <trkpt lat="49.49565" lon="1.10012">
        <ele>175</ele>
        <time>2017-06-20T14:59:43Z</time>
      </trkpt>
      <trkpt lat="49.49566" lon="1.09998">
        <ele>175</ele>
        <time>2017-06-20T14:59:43Z</time>
      </trkpt>
      <trkpt lat="49.49567" lon="1.09986">
        <ele>175</ele>
        <time>2017-06-20T14:59:43Z</time>
      </trkpt>
      <trkpt lat="49.49567" lon="1.09977">
        <ele>175</ele>
        <time>2017-06-20T14:59:43Z</time>
      </trkpt>
      <trkpt lat="49.49567" lon="1.09964">
        <ele>175</ele>
        <time>2017-06-20T14:59:57Z</time>
      </trkpt>
      <trkpt lat="49.49565" lon="1.09953">
        <ele>172</ele>
        <time>2017-06-20T14:59:57Z</time>
      </trkpt>
      <trkpt lat="49.49563" lon="1.09941">
        <ele>172</ele>
        <time>2017-06-20T14:59:57Z</time>
      </trkpt>
      <trkpt lat="49.49561" lon="1.09933">
        <ele>172</ele>
        <time>2017-06-20T14:59:57Z</time>
      </trkpt>
      <trkpt lat="49.49558" lon="1.09929">
        <ele>172</ele>
        <time>2017-06-20T15:00:15Z</time>
      </trkpt>
      <trkpt lat="49.49557" lon="1.0992">
        <ele>172</ele>
        <time>2017-06-20T15:00:15Z</time>
      </trkpt>
      <trkpt lat="49.49559" lon="1.0991">
        <ele>172</ele>
        <time>2017-06-20T15:00:15Z</time>
      </trkpt>
      <trkpt lat="49.4956" lon="1.09897">
        <ele>172</ele>
        <time>2017-06-20T15:00:15Z</time>
      </trkpt>
      <trkpt lat="49.49561" lon="1.09892">
        <ele>172</ele>
        <time>2017-06-20T15:00:31Z</time>
      </trkpt>
      <trkpt lat="49.49561" lon="1.0989">
        <ele>172</ele>
        <time>2017-06-20T15:00:31Z</time>
      </trkpt>
      <trkpt lat="49.4956" lon="1.09879">
        <ele>172</ele>
        <time>2017-06-20T15:00:31Z</time>
      </trkpt>
      <trkpt lat="49.49561" lon="1.09866">
        <ele>172</ele>
        <time>2017-06-20T15:00:31Z</time>
      </trkpt>
      <trkpt lat="49.49559" lon="1.09856">
        <ele>172</ele>
        <time>2017-06-20T15:00:46Z</time>
      </trkpt>
      <trkpt lat="49.49558" lon="1.09847">
        <ele>172</ele>
        <time>2017-06-20T15:00:46Z</time>
      </trkpt>
      <trkpt lat="49.49557" lon="1.09839">
        <ele>172</ele>
        <time>2017-06-20T15:00:46Z</time>
      </trkpt>
      <trkpt lat="49.49556" lon="1.09832">
        <ele>172</ele>
        <time>2017-06-20T15:00:46Z</time>
      </trkpt>
      <trkpt lat="49.49557" lon="1.09824">
        <ele>172</ele>
        <time>2017-06-20T15:01:01Z</time>
      </trkpt>
      <trkpt lat="49.49555" lon="1.09812">
        <ele>172</ele>
        <time>2017-06-20T15:01:01Z</time>
      </trkpt>
      <trkpt lat="49.49555" lon="1.09806">
        <ele>172</ele>
        <time>2017-06-20T15:01:02Z</time>
      </trkpt>
      <trkpt lat="49.49553" lon="1.09801">
        <ele>172</ele>
        <time>2017-06-20T15:01:02Z</time>
      </trkpt>
      <trkpt lat="49.49555" lon="1.09792">
        <ele>172</ele>
        <time>2017-06-20T15:01:18Z</time>
      </trkpt>
      <trkpt lat="49.49554" lon="1.09785">
        <ele>173</ele>
        <time>2017-06-20T15:01:18Z</time>
      </trkpt>
      <trkpt lat="49.49552" lon="1.09776">
        <ele>173</ele>
        <time>2017-06-20T15:01:18Z</time>
      </trkpt>
      <trkpt lat="49.49552" lon="1.09773">
        <ele>173</ele>
        <time>2017-06-20T15:01:18Z</time>
      </trkpt>
      <trkpt lat="49.4955" lon="1.09762">
        <ele>173</ele>
        <time>2017-06-20T15:01:35Z</time>
      </trkpt>
      <trkpt lat="49.49548" lon="1.09756">
        <ele>173</ele>
        <time>2017-06-20T15:01:35Z</time>
      </trkpt>
      <trkpt lat="49.49547" lon="1.09747">
        <ele>173</ele>
        <time>2017-06-20T15:01:35Z</time>
      </trkpt>
      <trkpt lat="49.49547" lon="1.09738">
        <ele>173</ele>
        <time>2017-06-20T15:01:35Z</time>
      </trkpt>
      <trkpt lat="49.49548" lon="1.09733">
        <ele>173</ele>
        <time>2017-06-20T15:01:50Z</time>
      </trkpt>
      <trkpt lat="49.49545" lon="1.09724">
        <ele>173</ele>
        <time>2017-06-20T15:01:50Z</time>
      </trkpt>
      <trkpt lat="49.49549" lon="1.09716">
        <ele>173</ele>
        <time>2017-06-20T15:01:50Z</time>
      </trkpt>
      <trkpt lat="49.49545" lon="1.09709">
        <ele>173</ele>
        <time>2017-06-20T15:01:50Z</time>
      </trkpt>
      <trkpt lat="49.49544" lon="1.09703">
        <ele>175</ele>
        <time>2017-06-20T15:02:05Z</time>
      </trkpt>
      <trkpt lat="49.49544" lon="1.09698">
        <ele>175</ele>
        <time>2017-06-20T15:02:07Z</time>
      </trkpt>
      <trkpt lat="49.49546" lon="1.09686">
        <ele>175</ele>
        <time>2017-06-20T15:02:07Z</time>
      </trkpt>
      <trkpt lat="49.49544" lon="1.09678">
        <ele>175</ele>
        <time>2017-06-20T15:02:07Z</time>
      </trkpt>
      <trkpt lat="49.49543" lon="1.0967">
        <ele>175</ele>
        <time>2017-06-20T15:02:22Z</time>
      </trkpt>
      <trkpt lat="49.49541" lon="1.09663">
        <ele>177</ele>
        <time>2017-06-20T15:02:22Z</time>
      </trkpt>
      <trkpt lat="49.49542" lon="1.09654">
        <ele>175</ele>
        <time>2017-06-20T15:02:22Z</time>
      </trkpt>
      <trkpt lat="49.49541" lon="1.09647">
        <ele>177</ele>
        <time>2017-06-20T15:02:22Z</time>
      </trkpt>
      <trkpt lat="49.49539" lon="1.0964">
        <ele>177</ele>
        <time>2017-06-20T15:02:38Z</time>
      </trkpt>
      <trkpt lat="49.49539" lon="1.09636">
        <ele>177</ele>
        <time>2017-06-20T15:02:38Z</time>
      </trkpt>
      <trkpt lat="49.49537" lon="1.09626">
        <ele>177</ele>
        <time>2017-06-20T15:02:38Z</time>
      </trkpt>
      <trkpt lat="49.49536" lon="1.09616">
        <ele>177</ele>
        <time>2017-06-20T15:02:38Z</time>
      </trkpt>
      <trkpt lat="49.49535" lon="1.09609">
        <ele>177</ele>
        <time>2017-06-20T15:02:55Z</time>
      </trkpt>
      <trkpt lat="49.49535" lon="1.09601">
        <ele>177</ele>
        <time>2017-06-20T15:02:55Z</time>
      </trkpt>
      <trkpt lat="49.49534" lon="1.09592">
        <ele>177</ele>
        <time>2017-06-20T15:02:55Z</time>
      </trkpt>
      <trkpt lat="49.49533" lon="1.09585">
        <ele>177</ele>
        <time>2017-06-20T15:02:55Z</time>
      </trkpt>
      <trkpt lat="49.49532" lon="1.09582">
        <ele>177</ele>
        <time>2017-06-20T15:03:11Z</time>
      </trkpt>
      <trkpt lat="49.49531" lon="1.09573">
        <ele>177</ele>
        <time>2017-06-20T15:03:11Z</time>
      </trkpt>
      <trkpt lat="49.49531" lon="1.09562">
        <ele>177</ele>
        <time>2017-06-20T15:03:11Z</time>
      </trkpt>
      <trkpt lat="49.4953" lon="1.09555">
        <ele>177</ele>
        <time>2017-06-20T15:03:11Z</time>
      </trkpt>
      <trkpt lat="49.49529" lon="1.09548">
        <ele>177</ele>
        <time>2017-06-20T15:03:25Z</time>
      </trkpt>
      <trkpt lat="49.49528" lon="1.09539">
        <ele>175</ele>
        <time>2017-06-20T15:03:25Z</time>
      </trkpt>
      <trkpt lat="49.4953" lon="1.09533">
        <ele>175</ele>
        <time>2017-06-20T15:03:25Z</time>
      </trkpt>
      <trkpt lat="49.49528" lon="1.09524">
        <ele>175</ele>
        <time>2017-06-20T15:03:25Z</time>
      </trkpt>
      <trkpt lat="49.49527" lon="1.0952">
        <ele>175</ele>
        <time>2017-06-20T15:03:43Z</time>
      </trkpt>
      <trkpt lat="49.49525" lon="1.09509">
        <ele>175</ele>
        <time>2017-06-20T15:03:43Z</time>
      </trkpt>
      <trkpt lat="49.49523" lon="1.09504">
        <ele>175</ele>
        <time>2017-06-20T15:03:43Z</time>
      </trkpt>
      <trkpt lat="49.49522" lon="1.09493">
        <ele>175</ele>
        <time>2017-06-20T15:03:43Z</time>
      </trkpt>
      <trkpt lat="49.49521" lon="1.09483">
        <ele>175</ele>
        <time>2017-06-20T15:03:59Z</time>
      </trkpt>
      <trkpt lat="49.4952" lon="1.09481">
        <ele>175</ele>
        <time>2017-06-20T15:03:59Z</time>
      </trkpt>
      <trkpt lat="49.4952" lon="1.09474">
        <ele>175</ele>
        <time>2017-06-20T15:03:59Z</time>
      </trkpt>
      <trkpt lat="49.49519" lon="1.09469">
        <ele>175</ele>
        <time>2017-06-20T15:03:59Z</time>
      </trkpt>
      <trkpt lat="49.49519" lon="1.0946">
        <ele>175</ele>
        <time>2017-06-20T15:04:13Z</time>
      </trkpt>
      <trkpt lat="49.49519" lon="1.0945">
        <ele>173</ele>
        <time>2017-06-20T15:04:13Z</time>
      </trkpt>
      <trkpt lat="49.49518" lon="1.09447">
        <ele>173</ele>
        <time>2017-06-20T15:04:13Z</time>
      </trkpt>
      <trkpt lat="49.49518" lon="1.09435">
        <ele>173</ele>
        <time>2017-06-20T15:04:13Z</time>
      </trkpt>
      <trkpt lat="49.49518" lon="1.09426">
        <ele>173</ele>
        <time>2017-06-20T15:04:34Z</time>
      </trkpt>
      <trkpt lat="49.49518" lon="1.09422">
        <ele>173</ele>
        <time>2017-06-20T15:04:34Z</time>
      </trkpt>
      <trkpt lat="49.49516" lon="1.0941">
        <ele>173</ele>
        <time>2017-06-20T15:04:34Z</time>
      </trkpt>
      <trkpt lat="49.49515" lon="1.09402">
        <ele>173</ele>
        <time>2017-06-20T15:04:34Z</time>
      </trkpt>
      <trkpt lat="49.49513" lon="1.094">
        <ele>173</ele>
        <time>2017-06-20T15:04:49Z</time>
      </trkpt>
      <trkpt lat="49.49511" lon="1.09392">
        <ele>173</ele>
        <time>2017-06-20T15:04:49Z</time>
      </trkpt>
      <trkpt lat="49.49512" lon="1.09382">
        <ele>173</ele>
        <time>2017-06-20T15:04:49Z</time>
      </trkpt>
      <trkpt lat="49.4951" lon="1.09381">
        <ele>173</ele>
        <time>2017-06-20T15:04:49Z</time>
      </trkpt>
      <trkpt lat="49.49509" lon="1.0938">
        <ele>173</ele>
        <time>2017-06-20T15:05:06Z</time>
      </trkpt>
      <trkpt lat="49.49509" lon="1.09366">
        <ele>172</ele>
        <time>2017-06-20T15:05:06Z</time>
      </trkpt>
      <trkpt lat="49.49512" lon="1.09357">
        <ele>172</ele>
        <time>2017-06-20T15:05:06Z</time>
      </trkpt>
      <trkpt lat="49.49513" lon="1.09349">
        <ele>172</ele>
        <time>2017-06-20T15:05:06Z</time>
      </trkpt>
      <trkpt lat="49.49513" lon="1.09343">
        <ele>172</ele>
        <time>2017-06-20T15:05:22Z</time>
      </trkpt>
      <trkpt lat="49.49511" lon="1.09335">
        <ele>172</ele>
        <time>2017-06-20T15:05:22Z</time>
      </trkpt>
      <trkpt lat="49.4951" lon="1.09328">
        <ele>172</ele>
        <time>2017-06-20T15:05:22Z</time>
      </trkpt>
      <trkpt lat="49.4951" lon="1.09324">
        <ele>172</ele>
        <time>2017-06-20T15:05:22Z</time>
      </trkpt>
      <trkpt lat="49.49507" lon="1.09319">
        <ele>172</ele>
        <time>2017-06-20T15:05:39Z</time>
      </trkpt>
      <trkpt lat="49.49506" lon="1.09301">
        <ele>172</ele>
        <time>2017-06-20T15:05:39Z</time>
      </trkpt>
      <trkpt lat="49.49506" lon="1.09293">
        <ele>172</ele>
        <time>2017-06-20T15:05:39Z</time>
      </trkpt>
      <trkpt lat="49.49503" lon="1.09283">
        <ele>169</ele>
        <time>2017-06-20T15:05:39Z</time>
      </trkpt>
      <trkpt lat="49.49503" lon="1.09277">
        <ele>169</ele>
        <time>2017-06-20T15:05:55Z</time>
      </trkpt>
      <trkpt lat="49.49503" lon="1.09272">
        <ele>169</ele>
        <time>2017-06-20T15:05:55Z</time>
      </trkpt>
      <trkpt lat="49.49504" lon="1.09266">
        <ele>169</ele>
        <time>2017-06-20T15:05:55Z</time>
      </trkpt>
      <trkpt lat="49.49502" lon="1.09259">
        <ele>169</ele>
        <time>2017-06-20T15:05:55Z</time>
      </trkpt>
      <trkpt lat="49.49503" lon="1.09257">
        <ele>169</ele>
        <time>2017-06-20T15:06:09Z</time>
      </trkpt>
      <trkpt lat="49.49499" lon="1.09248">
        <ele>169</ele>
        <time>2017-06-20T15:06:09Z</time>
      </trkpt>
      <trkpt lat="49.49497" lon="1.09243">
        <ele>169</ele>
        <time>2017-06-20T15:06:09Z</time>
      </trkpt>
      <trkpt lat="49.49497" lon="1.0923">
        <ele>169</ele>
        <time>2017-06-20T15:06:09Z</time>
      </trkpt>
      <trkpt lat="49.49495" lon="1.09227">
        <ele>169</ele>
        <time>2017-06-20T15:06:27Z</time>
      </trkpt>
      <trkpt lat="49.49493" lon="1.09223">
        <ele>169</ele>
        <time>2017-06-20T15:06:27Z</time>
      </trkpt>
      <trkpt lat="49.49493" lon="1.09218">
        <ele>169</ele>
        <time>2017-06-20T15:06:27Z</time>
      </trkpt>
      <trkpt lat="49.49494" lon="1.09207">
        <ele>166</ele>
        <time>2017-06-20T15:06:27Z</time>
      </trkpt>
      <trkpt lat="49.49494" lon="1.09202">
        <ele>166</ele>
        <time>2017-06-20T15:06:42Z</time>
      </trkpt>
      <trkpt lat="49.49494" lon="1.09188">
        <ele>166</ele>
        <time>2017-06-20T15:06:42Z</time>
      </trkpt>
      <trkpt lat="49.49496" lon="1.0918">
        <ele>166</ele>
        <time>2017-06-20T15:06:42Z</time>
      </trkpt>
      <trkpt lat="49.49497" lon="1.09178">
        <ele>166</ele>
        <time>2017-06-20T15:06:42Z</time>
      </trkpt>
      <trkpt lat="49.49495" lon="1.09164">
        <ele>166</ele>
        <time>2017-06-20T15:06:59Z</time>
      </trkpt>
      <trkpt lat="49.49494" lon="1.09162">
        <ele>166</ele>
        <time>2017-06-20T15:06:59Z</time>
      </trkpt>
      <trkpt lat="49.49495" lon="1.09156">
        <ele>166</ele>
        <time>2017-06-20T15:06:59Z</time>
      </trkpt>
      <trkpt lat="49.49494" lon="1.09148">
        <ele>166</ele>
        <time>2017-06-20T15:06:59Z</time>
      </trkpt>
      <trkpt lat="49.49494" lon="1.09143">
        <ele>166</ele>
        <time>2017-06-20T15:07:13Z</time>
      </trkpt>
      <trkpt lat="49.49495" lon="1.09141">
        <ele>166</ele>
        <time>2017-06-20T15:07:13Z</time>
      </trkpt>
      <trkpt lat="49.49494" lon="1.09133">
        <ele>166</ele>
        <time>2017-06-20T15:07:13Z</time>
      </trkpt>
      <trkpt lat="49.49492" lon="1.09129">
        <ele>166</ele>
        <time>2017-06-20T15:07:13Z</time>
      </trkpt>
      <trkpt lat="49.49491" lon="1.09121">
        <ele>165</ele>
        <time>2017-06-20T15:07:31Z</time>
      </trkpt>
      <trkpt lat="49.4949" lon="1.09114">
        <ele>165</ele>
        <time>2017-06-20T15:07:31Z</time>
      </trkpt>
      <trkpt lat="49.49488" lon="1.09112">
        <ele>165</ele>
        <time>2017-06-20T15:07:31Z</time>
      </trkpt>
      <trkpt lat="49.49488" lon="1.09106">
        <ele>165</ele>
        <time>2017-06-20T15:07:31Z</time>
      </trkpt>
      <trkpt lat="49.4949" lon="1.09089">
        <ele>165</ele>
        <time>2017-06-20T15:08:57Z</time>
      </trkpt>
      <trkpt lat="49.4949" lon="1.09088">
        <ele>165</ele>
        <time>2017-06-20T15:08:58Z</time>
      </trkpt>
      <trkpt lat="49.4949" lon="1.09088">
        <ele>165</ele>
        <time>2017-06-20T15:08:58Z</time>
      </trkpt>
      <trkpt lat="49.4949" lon="1.09088">
        <ele>165</ele>
        <time>2017-06-20T15:08:58Z</time>
      </trkpt>
      <trkpt lat="49.4949" lon="1.09088">
        <ele>165</ele>
        <time>2017-06-20T15:08:58Z</time>
      </trkpt>
      <trkpt lat="49.49488" lon="1.09079">
        <ele>165</ele>
        <time>2017-06-20T15:09:13Z</time>
      </trkpt>
      <trkpt lat="49.49489" lon="1.0907">
        <ele>165</ele>
        <time>2017-06-20T15:09:13Z</time>
      </trkpt>
      <trkpt lat="49.4949" lon="1.09064">
        <ele>165</ele>
        <time>2017-06-20T15:09:13Z</time>
      </trkpt>
      <trkpt lat="49.49489" lon="1.09058">
        <ele>165</ele>
        <time>2017-06-20T15:09:13Z</time>
      </trkpt>
      <trkpt lat="49.49491" lon="1.0905">
        <ele>165</ele>
        <time>2017-06-20T15:09:30Z</time>
      </trkpt>
      <trkpt lat="49.49493" lon="1.09039">
        <ele>167</ele>
        <time>2017-06-20T15:09:30Z</time>
      </trkpt>
      <trkpt lat="49.49492" lon="1.0903">
        <ele>167</ele>
        <time>2017-06-20T15:09:30Z</time>
      </trkpt>
      <trkpt lat="49.49492" lon="1.09023">
        <ele>167</ele>
        <time>2017-06-20T15:09:30Z</time>
      </trkpt>
      <trkpt lat="49.49491" lon="1.09017">
        <ele>167</ele>
        <time>2017-06-20T15:09:47Z</time>
      </trkpt>
      <trkpt lat="49.49492" lon="1.09008">
        <ele>167</ele>
        <time>2017-06-20T15:09:47Z</time>
      </trkpt>
      <trkpt lat="49.49491" lon="1.08999">
        <ele>167</ele>
        <time>2017-06-20T15:09:47Z</time>
      </trkpt>
      <trkpt lat="49.49489" lon="1.08994">
        <ele>167</ele>
        <time>2017-06-20T15:09:47Z</time>
      </trkpt>
      <trkpt lat="49.4949" lon="1.08987">
        <ele>167</ele>
        <time>2017-06-20T15:10:02Z</time>
      </trkpt>
      <trkpt lat="49.49489" lon="1.08978">
        <ele>167</ele>
        <time>2017-06-20T15:10:02Z</time>
      </trkpt>
      <trkpt lat="49.4949" lon="1.08969">
        <ele>167</ele>
        <time>2017-06-20T15:10:02Z</time>
      </trkpt>
      <trkpt lat="49.49488" lon="1.0896">
        <ele>167</ele>
        <time>2017-06-20T15:10:02Z</time>
      </trkpt>
      <trkpt lat="49.49485" lon="1.08953">
        <ele>167</ele>
        <time>2017-06-20T15:10:17Z</time>
      </trkpt>
      <trkpt lat="49.49485" lon="1.08948">
        <ele>167</ele>
        <time>2017-06-20T15:10:17Z</time>
      </trkpt>
      <trkpt lat="49.49485" lon="1.08937">
        <ele>167</ele>
        <time>2017-06-20T15:10:17Z</time>
      </trkpt>
      <trkpt lat="49.49485" lon="1.08926">
        <ele>167</ele>
        <time>2017-06-20T15:10:17Z</time>
      </trkpt>
      <trkpt lat="49.49485" lon="1.0892">
        <ele>167</ele>
        <time>2017-06-20T15:10:34Z</time>
      </trkpt>
      <trkpt lat="49.49483" lon="1.08909">
        <ele>167</ele>
        <time>2017-06-20T15:10:34Z</time>
      </trkpt>
      <trkpt lat="49.49483" lon="1.08903">
        <ele>167</ele>
        <time>2017-06-20T15:10:34Z</time>
      </trkpt>
      <trkpt lat="49.49482" lon="1.08894">
        <ele>167</ele>
        <time>2017-06-20T15:10:34Z</time>
      </trkpt>
      <trkpt lat="49.49483" lon="1.08891">
        <ele>167</ele>
        <time>2017-06-20T15:10:49Z</time>
      </trkpt>
      <trkpt lat="49.49485" lon="1.08884">
        <ele>167</ele>
        <time>2017-06-20T15:10:49Z</time>
      </trkpt>
      <trkpt lat="49.49484" lon="1.08878">
        <ele>167</ele>
        <time>2017-06-20T15:10:49Z</time>
      </trkpt>
      <trkpt lat="49.49483" lon="1.08871">
        <ele>166</ele>
        <time>2017-06-20T15:10:49Z</time>
      </trkpt>
      <trkpt lat="49.49484" lon="1.08864">
        <ele>166</ele>
        <time>2017-06-20T15:11:07Z</time>
      </trkpt>
      <trkpt lat="49.49487" lon="1.08853">
        <ele>166</ele>
        <time>2017-06-20T15:11:07Z</time>
      </trkpt>
      <trkpt lat="49.49488" lon="1.08848">
        <ele>166</ele>
        <time>2017-06-20T15:11:07Z</time>
      </trkpt>
      <trkpt lat="49.49489" lon="1.0884">
        <ele>166</ele>
        <time>2017-06-20T15:11:07Z</time>
      </trkpt>
      <trkpt lat="49.49488" lon="1.08832">
        <ele>166</ele>
        <time>2017-06-20T15:11:30Z</time>
      </trkpt>
      <trkpt lat="49.49488" lon="1.0883">
        <ele>166</ele>
        <time>2017-06-20T15:11:30Z</time>
      </trkpt>
      <trkpt lat="49.49488" lon="1.08828">
        <ele>166</ele>
        <time>2017-06-20T15:11:30Z</time>
      </trkpt>
      <trkpt lat="49.49488" lon="1.08827">
        <ele>166</ele>
        <time>2017-06-20T15:11:30Z</time>
      </trkpt>
      <trkpt lat="49.4949" lon="1.08808">
        <ele>166</ele>
        <time>2017-06-20T15:11:30Z</time>
      </trkpt>
      <trkpt lat="49.4949" lon="1.08791">
        <ele>166</ele>
        <time>2017-06-20T15:11:46Z</time>
      </trkpt>
      <trkpt lat="49.49489" lon="1.08788">
        <ele>166</ele>
        <time>2017-06-20T15:11:46Z</time>
      </trkpt>
      <trkpt lat="49.49488" lon="1.08778">
        <ele>166</ele>
        <time>2017-06-20T15:11:47Z</time>
      </trkpt>
      <trkpt lat="49.49489" lon="1.08768">
        <ele>166</ele>
        <time>2017-06-20T15:11:47Z</time>
      </trkpt>
      <trkpt lat="49.49487" lon="1.08752">
        <ele>166</ele>
        <time>2017-06-20T15:12:06Z</time>
      </trkpt>
      <trkpt lat="49.49486" lon="1.08743">
        <ele>166</ele>
        <time>2017-06-20T15:12:06Z</time>
      </trkpt>
      <trkpt lat="49.49486" lon="1.08738">
        <ele>166</ele>
        <time>2017-06-20T15:12:06Z</time>
      </trkpt>
      <trkpt lat="49.49486" lon="1.08727">
        <ele>166</ele>
        <time>2017-06-20T15:12:06Z</time>
      </trkpt>
      <trkpt lat="49.49487" lon="1.08723">
        <ele>166</ele>
        <time>2017-06-20T15:12:21Z</time>
      </trkpt>
      <trkpt lat="49.49487" lon="1.08716">
        <ele>166</ele>
        <time>2017-06-20T15:12:21Z</time>
      </trkpt>
      <trkpt lat="49.49488" lon="1.08708">
        <ele>166</ele>
        <time>2017-06-20T15:12:21Z</time>
      </trkpt>
      <trkpt lat="49.49486" lon="1.08698">
        <ele>166</ele>
        <time>2017-06-20T15:12:21Z</time>
      </trkpt>
      <trkpt lat="49.49488" lon="1.08689">
        <ele>166</ele>
        <time>2017-06-20T15:12:38Z</time>
      </trkpt>
      <trkpt lat="49.49486" lon="1.08681">
        <ele>166</ele>
        <time>2017-06-20T15:12:38Z</time>
      </trkpt>
      <trkpt lat="49.49486" lon="1.08675">
        <ele>166</ele>
        <time>2017-06-20T15:12:38Z</time>
      </trkpt>
      <trkpt lat="49.49487" lon="1.08669">
        <ele>166</ele>
        <time>2017-06-20T15:12:38Z</time>
      </trkpt>
      <trkpt lat="49.49486" lon="1.08668">
        <ele>166</ele>
        <time>2017-06-20T15:12:55Z</time>
      </trkpt>
      <trkpt lat="49.49486" lon="1.0866">
        <ele>166</ele>
        <time>2017-06-20T15:12:55Z</time>
      </trkpt>
      <trkpt lat="49.49485" lon="1.08655">
        <ele>166</ele>
        <time>2017-06-20T15:12:55Z</time>
      </trkpt>
      <trkpt lat="49.49484" lon="1.08647">
        <ele>166</ele>
        <time>2017-06-20T15:12:55Z</time>
      </trkpt>
      <trkpt lat="49.49484" lon="1.08642">
        <ele>166</ele>
        <time>2017-06-20T15:13:10Z</time>
      </trkpt>
      <trkpt lat="49.49485" lon="1.0863">
        <ele>166</ele>
        <time>2017-06-20T15:13:10Z</time>
      </trkpt>
      <trkpt lat="49.49486" lon="1.08625">
        <ele>166</ele>
        <time>2017-06-20T15:13:10Z</time>
      </trkpt>
      <trkpt lat="49.49487" lon="1.08624">
        <ele>164</ele>
        <time>2017-06-20T15:13:10Z</time>
      </trkpt>
      <trkpt lat="49.49487" lon="1.08606">
        <ele>164</ele>
        <time>2017-06-20T15:13:31Z</time>
      </trkpt>
      <trkpt lat="49.49488" lon="1.08593">
        <ele>164</ele>
        <time>2017-06-20T15:13:31Z</time>
      </trkpt>
      <trkpt lat="49.4949" lon="1.08583">
        <ele>164</ele>
        <time>2017-06-20T15:13:31Z</time>
      </trkpt>
      <trkpt lat="49.4949" lon="1.08577">
        <ele>164</ele>
        <time>2017-06-20T15:13:31Z</time>
      </trkpt>
      <trkpt lat="49.49488" lon="1.08568">
        <ele>164</ele>
        <time>2017-06-20T15:13:45Z</time>
      </trkpt>
      <trkpt lat="49.49486" lon="1.08554">
        <ele>164</ele>
        <time>2017-06-20T15:13:45Z</time>
      </trkpt>
      <trkpt lat="49.49486" lon="1.08549">
        <ele>164</ele>
        <time>2017-06-20T15:13:45Z</time>
      </trkpt>
      <trkpt lat="49.49488" lon="1.08545">
        <ele>164</ele>
        <time>2017-06-20T15:13:45Z</time>
      </trkpt>
      <trkpt lat="49.49489" lon="1.08542">
        <ele>164</ele>
        <time>2017-06-20T15:14:07Z</time>
      </trkpt>
      <trkpt lat="49.49492" lon="1.0854">
        <ele>161</ele>
        <time>2017-06-20T15:14:07Z</time>
      </trkpt>
      <trkpt lat="49.49488" lon="1.08533">
        <ele>161</ele>
        <time>2017-06-20T15:14:07Z</time>
      </trkpt>
      <trkpt lat="49.49485" lon="1.08531">
        <ele>161</ele>
        <time>2017-06-20T15:14:07Z</time>
      </trkpt>
      <trkpt lat="49.49487" lon="1.08527">
        <ele>161</ele>
        <time>2017-06-20T15:14:07Z</time>
      </trkpt>
      <trkpt lat="49.49486" lon="1.08518">
        <ele>161</ele>
        <time>2017-06-20T15:14:23Z</time>
      </trkpt>
      <trkpt lat="49.49486" lon="1.08512">
        <ele>161</ele>
        <time>2017-06-20T15:14:23Z</time>
      </trkpt>
      <trkpt lat="49.49485" lon="1.08502">
        <ele>161</ele>
        <time>2017-06-20T15:14:23Z</time>
      </trkpt>
      <trkpt lat="49.49484" lon="1.085">
        <ele>161</ele>
        <time>2017-06-20T15:14:23Z</time>
      </trkpt>
      <trkpt lat="49.49484" lon="1.0849">
        <ele>161</ele>
        <time>2017-06-20T15:14:43Z</time>
      </trkpt>
      <trkpt lat="49.49484" lon="1.08487">
        <ele>161</ele>
        <time>2017-06-20T15:14:43Z</time>
      </trkpt>
      <trkpt lat="49.49485" lon="1.08481">
        <ele>161</ele>
        <time>2017-06-20T15:14:43Z</time>
      </trkpt>
      <trkpt lat="49.49485" lon="1.08479">
        <ele>161</ele>
        <time>2017-06-20T15:14:43Z</time>
      </trkpt>
      <trkpt lat="49.49486" lon="1.08476">
        <ele>161</ele>
        <time>2017-06-20T15:14:43Z</time>
      </trkpt>
      <trkpt lat="49.49486" lon="1.08457">
        <ele>162</ele>
        <time>2017-06-20T15:14:58Z</time>
      </trkpt>
      <trkpt lat="49.49486" lon="1.08443">
        <ele>162</ele>
        <time>2017-06-20T15:14:58Z</time>
      </trkpt>
      <trkpt lat="49.49486" lon="1.08434">
        <ele>162</ele>
        <time>2017-06-20T15:14:58Z</time>
      </trkpt>
      <trkpt lat="49.49485" lon="1.08429">
        <ele>162</ele>
        <time>2017-06-20T15:14:58Z</time>
      </trkpt>
      <trkpt lat="49.49485" lon="1.08422">
        <ele>162</ele>
        <time>2017-06-20T15:15:15Z</time>
      </trkpt>
      <trkpt lat="49.49484" lon="1.08416">
        <ele>162</ele>
        <time>2017-06-20T15:15:15Z</time>
      </trkpt>
      <trkpt lat="49.49487" lon="1.08402">
        <ele>162</ele>
        <time>2017-06-20T15:15:15Z</time>
      </trkpt>
      <trkpt lat="49.49486" lon="1.08393">
        <ele>162</ele>
        <time>2017-06-20T15:15:15Z</time>
      </trkpt>
      <trkpt lat="49.49488" lon="1.08381">
        <ele>162</ele>
        <time>2017-06-20T15:15:34Z</time>
      </trkpt>
      <trkpt lat="49.49486" lon="1.08374">
        <ele>162</ele>
        <time>2017-06-20T15:15:34Z</time>
      </trkpt>
      <trkpt lat="49.49486" lon="1.08368">
        <ele>162</ele>
        <time>2017-06-20T15:15:34Z</time>
      </trkpt>
      <trkpt lat="49.49484" lon="1.08362">
        <ele>162</ele>
        <time>2017-06-20T15:15:34Z</time>
      </trkpt>
      <trkpt lat="49.49486" lon="1.08351">
        <ele>162</ele>
        <time>2017-06-20T15:15:54Z</time>
      </trkpt>
      <trkpt lat="49.49486" lon="1.0835">
        <ele>162</ele>
        <time>2017-06-20T15:15:54Z</time>
      </trkpt>
      <trkpt lat="49.49486" lon="1.08341">
        <ele>162</ele>
        <time>2017-06-20T15:15:54Z</time>
      </trkpt>
      <trkpt lat="49.49485" lon="1.08333">
        <ele>162</ele>
        <time>2017-06-20T15:15:54Z</time>
      </trkpt>
      <trkpt lat="49.49481" lon="1.0832">
        <ele>162</ele>
        <time>2017-06-20T15:16:09Z</time>
      </trkpt>
      <trkpt lat="49.4948" lon="1.08315">
        <ele>162</ele>
        <time>2017-06-20T15:16:09Z</time>
      </trkpt>
      <trkpt lat="49.4948" lon="1.08308">
        <ele>162</ele>
        <time>2017-06-20T15:16:09Z</time>
      </trkpt>
      <trkpt lat="49.49479" lon="1.08301">
        <ele>162</ele>
        <time>2017-06-20T15:16:09Z</time>
      </trkpt>
      <trkpt lat="49.49481" lon="1.08295">
        <ele>162</ele>
        <time>2017-06-20T15:16:26Z</time>
      </trkpt>
      <trkpt lat="49.49482" lon="1.08289">
        <ele>161</ele>
        <time>2017-06-20T15:16:26Z</time>
      </trkpt>
      <trkpt lat="49.49481" lon="1.08279">
        <ele>161</ele>
        <time>2017-06-20T15:16:26Z</time>
      </trkpt>
      <trkpt lat="49.49483" lon="1.08273">
        <ele>161</ele>
        <time>2017-06-20T15:16:26Z</time>
      </trkpt>
      <trkpt lat="49.49484" lon="1.0826">
        <ele>161</ele>
        <time>2017-06-20T15:16:43Z</time>
      </trkpt>
      <trkpt lat="49.49485" lon="1.08259">
        <ele>161</ele>
        <time>2017-06-20T15:16:43Z</time>
      </trkpt>
      <trkpt lat="49.49484" lon="1.08248">
        <ele>161</ele>
        <time>2017-06-20T15:16:43Z</time>
      </trkpt>
      <trkpt lat="49.49482" lon="1.0824">
        <ele>161</ele>
        <time>2017-06-20T15:16:43Z</time>
      </trkpt>
      <trkpt lat="49.49478" lon="1.08228">
        <ele>161</ele>
        <time>2017-06-20T15:17:02Z</time>
      </trkpt>
      <trkpt lat="49.4948" lon="1.08219">
        <ele>161</ele>
        <time>2017-06-20T15:17:02Z</time>
      </trkpt>
      <trkpt lat="49.49482" lon="1.08208">
        <ele>160</ele>
        <time>2017-06-20T15:17:02Z</time>
      </trkpt>
      <trkpt lat="49.49481" lon="1.08205">
        <ele>160</ele>
        <time>2017-06-20T15:17:02Z</time>
      </trkpt>
      <trkpt lat="49.49483" lon="1.08193">
        <ele>160</ele>
        <time>2017-06-20T15:17:19Z</time>
      </trkpt>
      <trkpt lat="49.49484" lon="1.08184">
        <ele>160</ele>
        <time>2017-06-20T15:17:19Z</time>
      </trkpt>
      <trkpt lat="49.49482" lon="1.0818">
        <ele>160</ele>
        <time>2017-06-20T15:17:19Z</time>
      </trkpt>
      <trkpt lat="49.49483" lon="1.08171">
        <ele>160</ele>
        <time>2017-06-20T15:17:19Z</time>
      </trkpt>
      <trkpt lat="49.49486" lon="1.08165">
        <ele>160</ele>
        <time>2017-06-20T15:17:33Z</time>
      </trkpt>
      <trkpt lat="49.49483" lon="1.08159">
        <ele>160</ele>
        <time>2017-06-20T15:17:33Z</time>
      </trkpt>
      <trkpt lat="49.49483" lon="1.08157">
        <ele>160</ele>
        <time>2017-06-20T15:17:33Z</time>
      </trkpt>
      <trkpt lat="49.49482" lon="1.08152">
        <ele>160</ele>
        <time>2017-06-20T15:17:33Z</time>
      </trkpt>
      <trkpt lat="49.49481" lon="1.08143">
        <ele>160</ele>
        <time>2017-06-20T15:17:50Z</time>
      </trkpt>
      <trkpt lat="49.49482" lon="1.08131">
        <ele>160</ele>
        <time>2017-06-20T15:17:50Z</time>
      </trkpt>
      <trkpt lat="49.49486" lon="1.0812">
        <ele>159</ele>
        <time>2017-06-20T15:17:50Z</time>
      </trkpt>
      <trkpt lat="49.49483" lon="1.08113">
        <ele>159</ele>
        <time>2017-06-20T15:17:50Z</time>
      </trkpt>
      <trkpt lat="49.49483" lon="1.08105">
        <ele>159</ele>
        <time>2017-06-20T15:18:07Z</time>
      </trkpt>
      <trkpt lat="49.49483" lon="1.08097">
        <ele>159</ele>
        <time>2017-06-20T15:18:07Z</time>
      </trkpt>
      <trkpt lat="49.49483" lon="1.08089">
        <ele>159</ele>
        <time>2017-06-20T15:18:07Z</time>
      </trkpt>
      <trkpt lat="49.49485" lon="1.08079">
        <ele>159</ele>
        <time>2017-06-20T15:18:07Z</time>
      </trkpt>
      <trkpt lat="49.49484" lon="1.08071">
        <ele>159</ele>
        <time>2017-06-20T15:18:26Z</time>
      </trkpt>
      <trkpt lat="49.49484" lon="1.0807">
        <ele>159</ele>
        <time>2017-06-20T15:18:26Z</time>
      </trkpt>
      <trkpt lat="49.49484" lon="1.08049">
        <ele>159</ele>
        <time>2017-06-20T15:18:26Z</time>
      </trkpt>
      <trkpt lat="49.49486" lon="1.0804">
        <ele>157</ele>
        <time>2017-06-20T15:18:26Z</time>
      </trkpt>
      <trkpt lat="49.49485" lon="1.08032">
        <ele>157</ele>
        <time>2017-06-20T15:18:43Z</time>
      </trkpt>
      <trkpt lat="49.49482" lon="1.08023">
        <ele>157</ele>
        <time>2017-06-20T15:18:43Z</time>
      </trkpt>
      <trkpt lat="49.49483" lon="1.08018">
        <ele>157</ele>
        <time>2017-06-20T15:18:43Z</time>
      </trkpt>
      <trkpt lat="49.49482" lon="1.08009">
        <ele>157</ele>
        <time>2017-06-20T15:18:43Z</time>
      </trkpt>
      <trkpt lat="49.49483" lon="1.08">
        <ele>157</ele>
        <time>2017-06-20T15:18:58Z</time>
      </trkpt>
      <trkpt lat="49.49481" lon="1.07991">
        <ele>157</ele>
        <time>2017-06-20T15:18:58Z</time>
      </trkpt>
      <trkpt lat="49.49479" lon="1.07987">
        <ele>157</ele>
        <time>2017-06-20T15:18:58Z</time>
      </trkpt>
      <trkpt lat="49.49479" lon="1.07976">
        <ele>157</ele>
        <time>2017-06-20T15:18:58Z</time>
      </trkpt>
      <trkpt lat="49.49482" lon="1.07968">
        <ele>157</ele>
        <time>2017-06-20T15:19:13Z</time>
      </trkpt>
      <trkpt lat="49.49483" lon="1.07965">
        <ele>157</ele>
        <time>2017-06-20T15:19:13Z</time>
      </trkpt>
      <trkpt lat="49.49482" lon="1.07956">
        <ele>153</ele>
        <time>2017-06-20T15:19:13Z</time>
      </trkpt>
      <trkpt lat="49.49479" lon="1.07946">
        <ele>153</ele>
        <time>2017-06-20T15:19:13Z</time>
      </trkpt>
      <trkpt lat="49.4948" lon="1.07935">
        <ele>153</ele>
        <time>2017-06-20T15:19:37Z</time>
      </trkpt>
      <trkpt lat="49.4948" lon="1.07932">
        <ele>153</ele>
        <time>2017-06-20T15:19:37Z</time>
      </trkpt>
      <trkpt lat="49.4948" lon="1.07928">
        <ele>153</ele>
        <time>2017-06-20T15:19:37Z</time>
      </trkpt>
      <trkpt lat="49.49479" lon="1.07926">
        <ele>153</ele>
        <time>2017-06-20T15:19:37Z</time>
      </trkpt>
      <trkpt lat="49.49479" lon="1.07925">
        <ele>153</ele>
        <time>2017-06-20T15:19:37Z</time>
      </trkpt>
      <trkpt lat="49.4948" lon="1.07924">
        <ele>153</ele>
        <time>2017-06-20T15:20:06Z</time>
      </trkpt>
      <trkpt lat="49.49478" lon="1.0792">
        <ele>153</ele>
        <time>2017-06-20T15:20:06Z</time>
      </trkpt>
      <trkpt lat="49.49476" lon="1.07919">
        <ele>153</ele>
        <time>2017-06-20T15:20:06Z</time>
      </trkpt>
      <trkpt lat="49.49476" lon="1.07912">
        <ele>153</ele>
        <time>2017-06-20T15:20:06Z</time>
      </trkpt>
      <trkpt lat="49.49474" lon="1.07908">
        <ele>153</ele>
        <time>2017-06-20T15:20:06Z</time>
      </trkpt>
      <trkpt lat="49.49474" lon="1.07898">
        <ele>153</ele>
        <time>2017-06-20T15:20:23Z</time>
      </trkpt>
      <trkpt lat="49.49475" lon="1.07892">
        <ele>153</ele>
        <time>2017-06-20T15:20:23Z</time>
      </trkpt>
      <trkpt lat="49.49475" lon="1.07886">
        <ele>153</ele>
        <time>2017-06-20T15:20:23Z</time>
      </trkpt>
      <trkpt lat="49.49476" lon="1.07878">
        <ele>153</ele>
        <time>2017-06-20T15:20:23Z</time>
      </trkpt>
      <trkpt lat="49.49477" lon="1.07868">
        <ele>150</ele>
        <time>2017-06-20T15:20:37Z</time>
      </trkpt>
      <trkpt lat="49.49478" lon="1.07861">
        <ele>150</ele>
        <time>2017-06-20T15:20:37Z</time>
      </trkpt>
      <trkpt lat="49.49478" lon="1.07852">
        <ele>150</ele>
        <time>2017-06-20T15:20:37Z</time>
      </trkpt>
      <trkpt lat="49.49478" lon="1.07847">
        <ele>150</ele>
        <time>2017-06-20T15:20:37Z</time>
      </trkpt>
      <trkpt lat="49.49476" lon="1.07846">
        <ele>150</ele>
        <time>2017-06-20T15:20:54Z</time>
      </trkpt>
      <trkpt lat="49.49476" lon="1.07836">
        <ele>150</ele>
        <time>2017-06-20T15:20:54Z</time>
      </trkpt>
      <trkpt lat="49.49476" lon="1.07828">
        <ele>150</ele>
        <time>2017-06-20T15:20:54Z</time>
      </trkpt>
      <trkpt lat="49.49477" lon="1.0782">
        <ele>150</ele>
        <time>2017-06-20T15:20:54Z</time>
      </trkpt>
      <trkpt lat="49.49479" lon="1.07814">
        <ele>150</ele>
        <time>2017-06-20T15:21:10Z</time>
      </trkpt>
      <trkpt lat="49.49478" lon="1.07806">
        <ele>150</ele>
        <time>2017-06-20T15:21:10Z</time>
      </trkpt>
      <trkpt lat="49.49477" lon="1.07802">
        <ele>150</ele>
        <time>2017-06-20T15:21:10Z</time>
      </trkpt>
      <trkpt lat="49.49479" lon="1.07792">
        <ele>150</ele>
        <time>2017-06-20T15:21:10Z</time>
      </trkpt>
      <trkpt lat="49.49479" lon="1.07789">
        <ele>147</ele>
        <time>2017-06-20T15:21:26Z</time>
      </trkpt>
      <trkpt lat="49.49476" lon="1.0778">
        <ele>147</ele>
        <time>2017-06-20T15:21:26Z</time>
      </trkpt>
      <trkpt lat="49.49475" lon="1.07772">
        <ele>147</ele>
        <time>2017-06-20T15:21:26Z</time>
      </trkpt>
      <trkpt lat="49.49476" lon="1.07765">
        <ele>147</ele>
        <time>2017-06-20T15:21:27Z</time>
      </trkpt>
      <trkpt lat="49.49476" lon="1.07751">
        <ele>147</ele>
        <time>2017-06-20T15:21:42Z</time>
      </trkpt>
      <trkpt lat="49.49476" lon="1.07744">
        <ele>147</ele>
        <time>2017-06-20T15:21:42Z</time>
      </trkpt>
      <trkpt lat="49.49477" lon="1.07736">
        <ele>147</ele>
        <time>2017-06-20T15:21:42Z</time>
      </trkpt>
      <trkpt lat="49.49476" lon="1.07731">
        <ele>147</ele>
        <time>2017-06-20T15:21:42Z</time>
      </trkpt>
      <trkpt lat="49.49474" lon="1.07725">
        <ele>147</ele>
        <time>2017-06-20T15:21:57Z</time>
      </trkpt>
      <trkpt lat="49.49473" lon="1.07717">
        <ele>147</ele>
        <time>2017-06-20T15:21:57Z</time>
      </trkpt>
      <trkpt lat="49.49474" lon="1.07704">
        <ele>144</ele>
        <time>2017-06-20T15:21:57Z</time>
      </trkpt>
      <trkpt lat="49.49474" lon="1.07701">
        <ele>144</ele>
        <time>2017-06-20T15:21:57Z</time>
      </trkpt>
      <trkpt lat="49.49479" lon="1.07692">
        <ele>144</ele>
        <time>2017-06-20T15:22:13Z</time>
      </trkpt>
      <trkpt lat="49.49479" lon="1.07684">
        <ele>144</ele>
        <time>2017-06-20T15:22:13Z</time>
      </trkpt>
      <trkpt lat="49.49477" lon="1.07678">
        <ele>144</ele>
        <time>2017-06-20T15:22:13Z</time>
      </trkpt>
      <trkpt lat="49.49475" lon="1.0767">
        <ele>144</ele>
        <time>2017-06-20T15:22:13Z</time>
      </trkpt>
      <trkpt lat="49.49477" lon="1.0766">
        <ele>144</ele>
        <time>2017-06-20T15:22:31Z</time>
      </trkpt>
      <trkpt lat="49.49477" lon="1.07657">
        <ele>144</ele>
        <time>2017-06-20T15:22:31Z</time>
      </trkpt>
      <trkpt lat="49.49478" lon="1.0765">
        <ele>144</ele>
        <time>2017-06-20T15:22:31Z</time>
      </trkpt>
      <trkpt lat="49.49478" lon="1.07641">
        <ele>144</ele>
        <time>2017-06-20T15:22:31Z</time>
      </trkpt>
      <trkpt lat="49.49478" lon="1.07632">
        <ele>144</ele>
        <time>2017-06-20T15:22:46Z</time>
      </trkpt>
      <trkpt lat="49.49478" lon="1.07623">
        <ele>141</ele>
        <time>2017-06-20T15:22:46Z</time>
      </trkpt>
      <trkpt lat="49.49477" lon="1.0762">
        <ele>141</ele>
        <time>2017-06-20T15:22:46Z</time>
      </trkpt>
      <trkpt lat="49.49476" lon="1.07616">
        <ele>141</ele>
        <time>2017-06-20T15:22:46Z</time>
      </trkpt>
      <trkpt lat="49.49474" lon="1.07609">
        <ele>141</ele>
        <time>2017-06-20T15:23:01Z</time>
      </trkpt>
      <trkpt lat="49.49475" lon="1.07603">
        <ele>141</ele>
        <time>2017-06-20T15:23:01Z</time>
      </trkpt>
      <trkpt lat="49.49474" lon="1.07594">
        <ele>141</ele>
        <time>2017-06-20T15:23:01Z</time>
      </trkpt>
      <trkpt lat="49.49474" lon="1.07592">
        <ele>141</ele>
        <time>2017-06-20T15:23:01Z</time>
      </trkpt>
      <trkpt lat="49.49474" lon="1.07589">
        <ele>141</ele>
        <time>2017-06-20T15:23:18Z</time>
      </trkpt>
      <trkpt lat="49.49475" lon="1.07588">
        <ele>141</ele>
        <time>2017-06-20T15:23:18Z</time>
      </trkpt>
      <trkpt lat="49.49475" lon="1.07587">
        <ele>141</ele>
        <time>2017-06-20T15:23:18Z</time>
      </trkpt>
      <trkpt lat="49.49474" lon="1.0757">
        <ele>141</ele>
        <time>2017-06-20T15:23:18Z</time>
      </trkpt>
      <trkpt lat="49.49474" lon="1.07561">
        <ele>141</ele>
        <time>2017-06-20T15:23:34Z</time>
      </trkpt>
      <trkpt lat="49.49472" lon="1.07551">
        <ele>141</ele>
        <time>2017-06-20T15:23:34Z</time>
      </trkpt>
      <trkpt lat="49.49473" lon="1.07534">
        <ele>139</ele>
        <time>2017-06-20T15:23:34Z</time>
      </trkpt>
      <trkpt lat="49.49472" lon="1.07527">
        <ele>139</ele>
        <time>2017-06-20T15:23:34Z</time>
      </trkpt>
      <trkpt lat="49.49472" lon="1.07517">
        <ele>139</ele>
        <time>2017-06-20T15:23:52Z</time>
      </trkpt>
      <trkpt lat="49.49474" lon="1.07508">
        <ele>139</ele>
        <time>2017-06-20T15:23:52Z</time>
      </trkpt>
      <trkpt lat="49.49473" lon="1.07506">
        <ele>139</ele>
        <time>2017-06-20T15:23:52Z</time>
      </trkpt>
      <trkpt lat="49.49472" lon="1.07504">
        <ele>139</ele>
        <time>2017-06-20T15:23:52Z</time>
      </trkpt>
      <trkpt lat="49.49471" lon="1.07498">
        <ele>139</ele>
        <time>2017-06-20T15:24:10Z</time>
      </trkpt>
      <trkpt lat="49.49472" lon="1.07493">
        <ele>139</ele>
        <time>2017-06-20T15:24:10Z</time>
      </trkpt>
      <trkpt lat="49.49473" lon="1.07489">
        <ele>139</ele>
        <time>2017-06-20T15:24:10Z</time>
      </trkpt>
      <trkpt lat="49.49473" lon="1.07487">
        <ele>139</ele>
        <time>2017-06-20T15:24:10Z</time>
      </trkpt>
      <trkpt lat="49.49473" lon="1.07484">
        <ele>139</ele>
        <time>2017-06-20T15:24:10Z</time>
      </trkpt>
      <trkpt lat="49.49473" lon="1.0748">
        <ele>139</ele>
        <time>2017-06-20T15:24:27Z</time>
      </trkpt>
      <trkpt lat="49.49474" lon="1.07474">
        <ele>139</ele>
        <time>2017-06-20T15:24:27Z</time>
      </trkpt>
      <trkpt lat="49.4947" lon="1.07469">
        <ele>139</ele>
        <time>2017-06-20T15:24:27Z</time>
      </trkpt>
      <trkpt lat="49.49468" lon="1.07463">
        <ele>139</ele>
        <time>2017-06-20T15:24:27Z</time>
      </trkpt>
      <trkpt lat="49.49467" lon="1.07457">
        <ele>135</ele>
        <time>2017-06-20T15:24:42Z</time>
      </trkpt>
      <trkpt lat="49.49465" lon="1.07451">
        <ele>135</ele>
        <time>2017-06-20T15:24:42Z</time>
      </trkpt>
      <trkpt lat="49.49462" lon="1.07445">
        <ele>135</ele>
        <time>2017-06-20T15:24:42Z</time>
      </trkpt>
      <trkpt lat="49.4946" lon="1.0744">
        <ele>135</ele>
        <time>2017-06-20T15:24:42Z</time>
      </trkpt>
      <trkpt lat="49.49459" lon="1.07433">
        <ele>135</ele>
        <time>2017-06-20T15:24:58Z</time>
      </trkpt>
      <trkpt lat="49.49457" lon="1.07429">
        <ele>141</ele>
        <time>2017-06-20T15:24:58Z</time>
      </trkpt>
      <trkpt lat="49.49454" lon="1.07424">
        <ele>141</ele>
        <time>2017-06-20T15:24:58Z</time>
      </trkpt>
      <trkpt lat="49.49453" lon="1.0742">
        <ele>141</ele>
        <time>2017-06-20T15:24:58Z</time>
      </trkpt>
      <trkpt lat="49.49447" lon="1.07416">
        <ele>141</ele>
        <time>2017-06-20T15:25:15Z</time>
      </trkpt>
      <trkpt lat="49.49443" lon="1.07413">
        <ele>141</ele>
        <time>2017-06-20T15:25:15Z</time>
      </trkpt>
      <trkpt lat="49.4944" lon="1.0741">
        <ele>141</ele>
        <time>2017-06-20T15:25:15Z</time>
      </trkpt>
      <trkpt lat="49.49434" lon="1.07407">
        <ele>141</ele>
        <time>2017-06-20T15:25:15Z</time>
      </trkpt>
      <trkpt lat="49.4943" lon="1.07404">
        <ele>141</ele>
        <time>2017-06-20T15:25:30Z</time>
      </trkpt>
      <trkpt lat="49.49424" lon="1.07402">
        <ele>141</ele>
        <time>2017-06-20T15:25:30Z</time>
      </trkpt>
      <trkpt lat="49.49422" lon="1.07398">
        <ele>141</ele>
        <time>2017-06-20T15:25:30Z</time>
      </trkpt>
      <trkpt lat="49.49417" lon="1.07396">
        <ele>141</ele>
        <time>2017-06-20T15:25:30Z</time>
      </trkpt>
      <trkpt lat="49.4941" lon="1.07395">
        <ele>141</ele>
        <time>2017-06-20T15:25:47Z</time>
      </trkpt>
      <trkpt lat="49.49402" lon="1.07394">
        <ele>141</ele>
        <time>2017-06-20T15:25:47Z</time>
      </trkpt>
      <trkpt lat="49.494" lon="1.07392">
        <ele>141</ele>
        <time>2017-06-20T15:25:47Z</time>
      </trkpt>
      <trkpt lat="49.49398" lon="1.0739">
        <ele>141</ele>
        <time>2017-06-20T15:25:47Z</time>
      </trkpt>
      <trkpt lat="49.4939" lon="1.07387">
        <ele>141</ele>
        <time>2017-06-20T15:26:05Z</time>
      </trkpt>
      <trkpt lat="49.49385" lon="1.07383">
        <ele>141</ele>
        <time>2017-06-20T15:26:05Z</time>
      </trkpt>
      <trkpt lat="49.4938" lon="1.07382">
        <ele>141</ele>
        <time>2017-06-20T15:26:05Z</time>
      </trkpt>
      <trkpt lat="49.49376" lon="1.07378">
        <ele>141</ele>
        <time>2017-06-20T15:26:05Z</time>
      </trkpt>
      <trkpt lat="49.49374" lon="1.07376">
        <ele>144</ele>
        <time>2017-06-20T15:26:22Z</time>
      </trkpt>
      <trkpt lat="49.49365" lon="1.07373">
        <ele>145</ele>
        <time>2017-06-20T15:26:22Z</time>
      </trkpt>
      <trkpt lat="49.49364" lon="1.07372">
        <ele>145</ele>
        <time>2017-06-20T15:26:22Z</time>
      </trkpt>
      <trkpt lat="49.49356" lon="1.07371">
        <ele>145</ele>
        <time>2017-06-20T15:26:22Z</time>
      </trkpt>
      <trkpt lat="49.49353" lon="1.0737">
        <ele>145</ele>
        <time>2017-06-20T15:26:37Z</time>
      </trkpt>
      <trkpt lat="49.49349" lon="1.07369">
        <ele>145</ele>
        <time>2017-06-20T15:26:37Z</time>
      </trkpt>
      <trkpt lat="49.49344" lon="1.07365">
        <ele>145</ele>
        <time>2017-06-20T15:26:37Z</time>
      </trkpt>
      <trkpt lat="49.4934" lon="1.07361">
        <ele>145</ele>
        <time>2017-06-20T15:26:37Z</time>
      </trkpt>
      <trkpt lat="49.49336" lon="1.0736">
        <ele>145</ele>
        <time>2017-06-20T15:26:55Z</time>
      </trkpt>
      <trkpt lat="49.49327" lon="1.07356">
        <ele>145</ele>
        <time>2017-06-20T15:26:55Z</time>
      </trkpt>
      <trkpt lat="49.49324" lon="1.07352">
        <ele>145</ele>
        <time>2017-06-20T15:26:55Z</time>
      </trkpt>
      <trkpt lat="49.49321" lon="1.07348">
        <ele>145</ele>
        <time>2017-06-20T15:26:55Z</time>
      </trkpt>
      <trkpt lat="49.49317" lon="1.07347">
        <ele>145</ele>
        <time>2017-06-20T15:27:10Z</time>
      </trkpt>
      <trkpt lat="49.49315" lon="1.07348">
        <ele>145</ele>
        <time>2017-06-20T15:27:10Z</time>
      </trkpt>
      <trkpt lat="49.49306" lon="1.07345">
        <ele>145</ele>
        <time>2017-06-20T15:27:10Z</time>
      </trkpt>
      <trkpt lat="49.493" lon="1.07344">
        <ele>145</ele>
        <time>2017-06-20T15:27:10Z</time>
      </trkpt>
      <trkpt lat="49.49287" lon="1.07337">
        <ele>145</ele>
        <time>2017-06-20T15:27:29Z</time>
      </trkpt>
      <trkpt lat="49.49282" lon="1.07335">
        <ele>145</ele>
        <time>2017-06-20T15:27:29Z</time>
      </trkpt>
      <trkpt lat="49.49276" lon="1.07332">
        <ele>145</ele>
        <time>2017-06-20T15:27:29Z</time>
      </trkpt>
      <trkpt lat="49.49271" lon="1.0733">
        <ele>145</ele>
        <time>2017-06-20T15:27:29Z</time>
      </trkpt>
      <trkpt lat="49.49269" lon="1.07329">
        <ele>145</ele>
        <time>2017-06-20T15:27:46Z</time>
      </trkpt>
      <trkpt lat="49.49262" lon="1.07326">
        <ele>145</ele>
        <time>2017-06-20T15:27:46Z</time>
      </trkpt>
      <trkpt lat="49.49261" lon="1.07326">
        <ele>145</ele>
        <time>2017-06-20T15:27:47Z</time>
      </trkpt>
      <trkpt lat="49.49253" lon="1.07322">
        <ele>145</ele>
        <time>2017-06-20T15:27:47Z</time>
      </trkpt>
      <trkpt lat="49.49249" lon="1.07322">
        <ele>145</ele>
        <time>2017-06-20T15:28:02Z</time>
      </trkpt>
      <trkpt lat="49.49242" lon="1.07321">
        <ele>145</ele>
        <time>2017-06-20T15:28:02Z</time>
      </trkpt>
      <trkpt lat="49.49238" lon="1.0732">
        <ele>145</ele>
        <time>2017-06-20T15:28:02Z</time>
      </trkpt>
      <trkpt lat="49.49232" lon="1.07319">
        <ele>145</ele>
        <time>2017-06-20T15:28:02Z</time>
      </trkpt>
      <trkpt lat="49.49221" lon="1.07317">
        <ele>145</ele>
        <time>2017-06-20T15:30:51Z</time>
      </trkpt>
      <trkpt lat="49.49221" lon="1.07317">
        <ele>145</ele>
        <time>2017-06-20T15:30:51Z</time>
      </trkpt>
      <trkpt lat="49.49221" lon="1.07317">
        <ele>145</ele>
        <time>2017-06-20T15:30:51Z</time>
      </trkpt>
      <trkpt lat="49.49221" lon="1.07316">
        <ele>145</ele>
        <time>2017-06-20T15:30:51Z</time>
      </trkpt>
      <trkpt lat="49.49216" lon="1.07315">
        <ele>145</ele>
        <time>2017-06-20T15:30:51Z</time>
      </trkpt>
      <trkpt lat="49.49216" lon="1.07309">
        <ele>145</ele>
        <time>2017-06-20T15:32:42Z</time>
      </trkpt>
      <trkpt lat="49.49216" lon="1.07309">
        <ele>145</ele>
        <time>2017-06-20T15:32:42Z</time>
      </trkpt>
      <trkpt lat="49.49217" lon="1.07307">
        <ele>145</ele>
        <time>2017-06-20T15:32:42Z</time>
      </trkpt>
      <trkpt lat="49.49216" lon="1.07304">
        <ele>145</ele>
        <time>2017-06-20T15:32:42Z</time>
      </trkpt>
      <trkpt lat="49.49215" lon="1.07301">
        <ele>145</ele>
        <time>2017-06-20T15:32:42Z</time>
      </trkpt>
      <trkpt lat="49.49215" lon="1.07297">
        <ele>145</ele>
        <time>2017-06-20T15:32:58Z</time>
      </trkpt>
      <trkpt lat="49.49211" lon="1.07295">
        <ele>145</ele>
        <time>2017-06-20T15:32:58Z</time>
      </trkpt>
      <trkpt lat="49.4921" lon="1.0729">
        <ele>146</ele>
        <time>2017-06-20T15:32:58Z</time>
      </trkpt>
      <trkpt lat="49.49207" lon="1.07287">
        <ele>143</ele>
        <time>2017-06-20T15:32:58Z</time>
      </trkpt>
      <trkpt lat="49.49205" lon="1.07286">
        <ele>143</ele>
        <time>2017-06-20T15:33:14Z</time>
      </trkpt>
      <trkpt lat="49.49204" lon="1.07285">
        <ele>143</ele>
        <time>2017-06-20T15:33:14Z</time>
      </trkpt>
      <trkpt lat="49.49195" lon="1.07274">
        <ele>143</ele>
        <time>2017-06-20T15:33:14Z</time>
      </trkpt>
      <trkpt lat="49.49192" lon="1.0727">
        <ele>143</ele>
        <time>2017-06-20T15:33:14Z</time>
      </trkpt>
      <trkpt lat="49.49187" lon="1.07264">
        <ele>143</ele>
        <time>2017-06-20T15:33:31Z</time>
      </trkpt>
      <trkpt lat="49.49182" lon="1.0726">
        <ele>143</ele>
        <time>2017-06-20T15:33:31Z</time>
      </trkpt>
      <trkpt lat="49.49176" lon="1.07255">
        <ele>143</ele>
        <time>2017-06-20T15:33:31Z</time>
      </trkpt>
      <trkpt lat="49.4917" lon="1.0725">
        <ele>143</ele>
        <time>2017-06-20T15:33:31Z</time>
      </trkpt>
      <trkpt lat="49.49166" lon="1.07245">
        <ele>143</ele>
        <time>2017-06-20T15:33:47Z</time>
      </trkpt>
      <trkpt lat="49.49163" lon="1.07241">
        <ele>143</ele>
        <time>2017-06-20T15:33:47Z</time>
      </trkpt>
      <trkpt lat="49.49161" lon="1.07238">
        <ele>143</ele>
        <time>2017-06-20T15:33:47Z</time>
      </trkpt>
      <trkpt lat="49.49153" lon="1.07236">
        <ele>143</ele>
        <time>2017-06-20T15:33:47Z</time>
      </trkpt>
      <trkpt lat="49.49151" lon="1.07231">
        <ele>143</ele>
        <time>2017-06-20T15:34:02Z</time>
      </trkpt>
      <trkpt lat="49.49145" lon="1.07225">
        <ele>143</ele>
        <time>2017-06-20T15:34:02Z</time>
      </trkpt>
      <trkpt lat="49.49137" lon="1.07222">
        <ele>143</ele>
        <time>2017-06-20T15:34:02Z</time>
      </trkpt>
      <trkpt lat="49.49133" lon="1.07219">
        <ele>143</ele>
        <time>2017-06-20T15:34:02Z</time>
      </trkpt>
      <trkpt lat="49.49134" lon="1.07215">
        <ele>143</ele>
        <time>2017-06-20T15:34:23Z</time>
      </trkpt>
      <trkpt lat="49.49134" lon="1.07213">
        <ele>143</ele>
        <time>2017-06-20T15:34:23Z</time>
      </trkpt>
      <trkpt lat="49.49131" lon="1.07212">
        <ele>143</ele>
        <time>2017-06-20T15:34:23Z</time>
      </trkpt>
      <trkpt lat="49.49129" lon="1.07205">
        <ele>143</ele>
        <time>2017-06-20T15:34:23Z</time>
      </trkpt>
      <trkpt lat="49.49125" lon="1.07197">
        <ele>138</ele>
        <time>2017-06-20T15:34:23Z</time>
      </trkpt>
      <trkpt lat="49.49121" lon="1.07193">
        <ele>138</ele>
        <time>2017-06-20T15:34:39Z</time>
      </trkpt>
      <trkpt lat="49.49116" lon="1.07189">
        <ele>138</ele>
        <time>2017-06-20T15:34:39Z</time>
      </trkpt>
      <trkpt lat="49.49114" lon="1.07186">
        <ele>138</ele>
        <time>2017-06-20T15:34:40Z</time>
      </trkpt>
      <trkpt lat="49.49112" lon="1.07185">
        <ele>138</ele>
        <time>2017-06-20T15:34:40Z</time>
      </trkpt>
      <trkpt lat="49.49102" lon="1.07178">
        <ele>138</ele>
        <time>2017-06-20T15:34:57Z</time>
      </trkpt>
      <trkpt lat="49.49096" lon="1.07172">
        <ele>138</ele>
        <time>2017-06-20T15:34:57Z</time>
      </trkpt>
      <trkpt lat="49.49093" lon="1.07166">
        <ele>138</ele>
        <time>2017-06-20T15:34:57Z</time>
      </trkpt>
      <trkpt lat="49.49091" lon="1.07164">
        <ele>138</ele>
        <time>2017-06-20T15:34:58Z</time>
      </trkpt>
      <trkpt lat="49.49087" lon="1.0716">
        <ele>138</ele>
        <time>2017-06-20T15:35:14Z</time>
      </trkpt>
      <trkpt lat="49.49087" lon="1.07159">
        <ele>138</ele>
        <time>2017-06-20T15:35:14Z</time>
      </trkpt>
      <trkpt lat="49.49082" lon="1.07151">
        <ele>138</ele>
        <time>2017-06-20T15:35:14Z</time>
      </trkpt>
      <trkpt lat="49.49077" lon="1.07148">
        <ele>138</ele>
        <time>2017-06-20T15:35:14Z</time>
      </trkpt>
      <trkpt lat="49.49069" lon="1.07141">
        <ele>138</ele>
        <time>2017-06-20T15:35:29Z</time>
      </trkpt>
      <trkpt lat="49.49063" lon="1.07135">
        <ele>138</ele>
        <time>2017-06-20T15:35:29Z</time>
      </trkpt>
      <trkpt lat="49.49059" lon="1.07132">
        <ele>138</ele>
        <time>2017-06-20T15:35:29Z</time>
      </trkpt>
      <trkpt lat="49.49054" lon="1.07127">
        <ele>138</ele>
        <time>2017-06-20T15:35:29Z</time>
      </trkpt>
      <trkpt lat="49.49052" lon="1.07122">
        <ele>139</ele>
        <time>2017-06-20T15:35:46Z</time>
      </trkpt>
      <trkpt lat="49.49046" lon="1.0712">
        <ele>139</ele>
        <time>2017-06-20T15:35:46Z</time>
      </trkpt>
      <trkpt lat="49.49041" lon="1.07113">
        <ele>126</ele>
        <time>2017-06-20T15:35:46Z</time>
      </trkpt>
      <trkpt lat="49.49035" lon="1.07107">
        <ele>126</ele>
        <time>2017-06-20T15:35:46Z</time>
      </trkpt>
      <trkpt lat="49.49031" lon="1.07104">
        <ele>126</ele>
        <time>2017-06-20T15:36:01Z</time>
      </trkpt>
      <trkpt lat="49.49031" lon="1.07097">
        <ele>126</ele>
        <time>2017-06-20T15:36:01Z</time>
      </trkpt>
      <trkpt lat="49.49029" lon="1.07092">
        <ele>126</ele>
        <time>2017-06-20T15:36:01Z</time>
      </trkpt>
      <trkpt lat="49.49025" lon="1.07089">
        <ele>126</ele>
        <time>2017-06-20T15:36:01Z</time>
      </trkpt>
      <trkpt lat="49.49018" lon="1.07086">
        <ele>126</ele>
        <time>2017-06-20T15:36:30Z</time>
      </trkpt>
      <trkpt lat="49.49017" lon="1.07084">
        <ele>126</ele>
        <time>2017-06-20T15:36:30Z</time>
      </trkpt>
      <trkpt lat="49.49017" lon="1.07084">
        <ele>126</ele>
        <time>2017-06-20T15:36:30Z</time>
      </trkpt>
      <trkpt lat="49.49017" lon="1.07084">
        <ele>126</ele>
        <time>2017-06-20T15:36:30Z</time>
      </trkpt>
      <trkpt lat="49.49005" lon="1.07073">
        <ele>126</ele>
        <time>2017-06-20T15:36:30Z</time>
      </trkpt>
      <trkpt lat="49.49002" lon="1.0707">
        <ele>126</ele>
        <time>2017-06-20T15:36:50Z</time>
      </trkpt>
      <trkpt lat="49.49" lon="1.07068">
        <ele>126</ele>
        <time>2017-06-20T15:36:50Z</time>
      </trkpt>
      <trkpt lat="49.48999" lon="1.07067">
        <ele>126</ele>
        <time>2017-06-20T15:36:50Z</time>
      </trkpt>
      <trkpt lat="49.48999" lon="1.07066">
        <ele>126</ele>
        <time>2017-06-20T15:36:50Z</time>
      </trkpt>
      <trkpt lat="49.48994" lon="1.07063">
        <ele>126</ele>
        <time>2017-06-20T15:36:50Z</time>
      </trkpt>
      <trkpt lat="49.48983" lon="1.07053">
        <ele>126</ele>
        <time>2017-06-20T15:37:07Z</time>
      </trkpt>
      <trkpt lat="49.4898" lon="1.07047">
        <ele>126</ele>
        <time>2017-06-20T15:37:07Z</time>
      </trkpt>
      <trkpt lat="49.48976" lon="1.0704">
        <ele>128</ele>
        <time>2017-06-20T15:37:07Z</time>
      </trkpt>
      <trkpt lat="49.48968" lon="1.07037">
        <ele>128</ele>
        <time>2017-06-20T15:37:07Z</time>
      </trkpt>
      <trkpt lat="49.48966" lon="1.07036">
        <ele>128</ele>
        <time>2017-06-20T15:37:22Z</time>
      </trkpt>
      <trkpt lat="49.48964" lon="1.07034">
        <ele>128</ele>
        <time>2017-06-20T15:37:22Z</time>
      </trkpt>
      <trkpt lat="49.48963" lon="1.0703">
        <ele>128</ele>
        <time>2017-06-20T15:37:22Z</time>
      </trkpt>
      <trkpt lat="49.48958" lon="1.07025">
        <ele>104</ele>
        <time>2017-06-20T15:37:22Z</time>
      </trkpt>
      <trkpt lat="49.48955" lon="1.07022">
        <ele>104</ele>
        <time>2017-06-20T15:37:39Z</time>
      </trkpt>
      <trkpt lat="49.48951" lon="1.0702">
        <ele>104</ele>
        <time>2017-06-20T15:37:39Z</time>
      </trkpt>
      <trkpt lat="49.48946" lon="1.07018">
        <ele>104</ele>
        <time>2017-06-20T15:37:39Z</time>
      </trkpt>
      <trkpt lat="49.48941" lon="1.0701">
        <ele>104</ele>
        <time>2017-06-20T15:37:39Z</time>
      </trkpt>
      <trkpt lat="49.48938" lon="1.07005">
        <ele>104</ele>
        <time>2017-06-20T15:37:54Z</time>
      </trkpt>
      <trkpt lat="49.48934" lon="1.07">
        <ele>104</ele>
        <time>2017-06-20T15:37:54Z</time>
      </trkpt>
      <trkpt lat="49.4893" lon="1.06996">
        <ele>104</ele>
        <time>2017-06-20T15:37:54Z</time>
      </trkpt>
      <trkpt lat="49.48926" lon="1.06992">
        <ele>104</ele>
        <time>2017-06-20T15:37:54Z</time>
      </trkpt>
      <trkpt lat="49.48923" lon="1.06989">
        <ele>104</ele>
        <time>2017-06-20T15:38:11Z</time>
      </trkpt>
      <trkpt lat="49.4892" lon="1.06983">
        <ele>104</ele>
        <time>2017-06-20T15:38:11Z</time>
      </trkpt>
      <trkpt lat="49.48914" lon="1.06981">
        <ele>104</ele>
        <time>2017-06-20T15:38:11Z</time>
      </trkpt>
      <trkpt lat="49.48906" lon="1.06977">
        <ele>104</ele>
        <time>2017-06-20T15:38:11Z</time>
      </trkpt>
      <trkpt lat="49.48905" lon="1.06972">
        <ele>104</ele>
        <time>2017-06-20T15:38:30Z</time>
      </trkpt>
      <trkpt lat="49.48903" lon="1.06968">
        <ele>104</ele>
        <time>2017-06-20T15:38:30Z</time>
      </trkpt>
      <trkpt lat="49.489" lon="1.06965">
        <ele>104</ele>
        <time>2017-06-20T15:38:30Z</time>
      </trkpt>
      <trkpt lat="49.48898" lon="1.06964">
        <ele>104</ele>
        <time>2017-06-20T15:38:30Z</time>
      </trkpt>
      <trkpt lat="49.48895" lon="1.06961">
        <ele>104</ele>
        <time>2017-06-20T15:38:30Z</time>
      </trkpt>
      <trkpt lat="49.48894" lon="1.06959">
        <ele>104</ele>
        <time>2017-06-20T15:38:51Z</time>
      </trkpt>
      <trkpt lat="49.48894" lon="1.06959">
        <ele>104</ele>
        <time>2017-06-20T15:38:51Z</time>
      </trkpt>
      <trkpt lat="49.48894" lon="1.06958">
        <ele>104</ele>
        <time>2017-06-20T15:38:51Z</time>
      </trkpt>
      <trkpt lat="49.4889" lon="1.06951">
        <ele>110</ele>
        <time>2017-06-20T15:38:51Z</time>
      </trkpt>
      <trkpt lat="49.48881" lon="1.0694">
        <ele>110</ele>
        <time>2017-06-20T15:38:51Z</time>
      </trkpt>
      <trkpt lat="49.48879" lon="1.06937">
        <ele>110</ele>
        <time>2017-06-20T15:39:05Z</time>
      </trkpt>
      <trkpt lat="49.48873" lon="1.06928">
        <ele>84</ele>
        <time>2017-06-20T15:39:06Z</time>
      </trkpt>
      <trkpt lat="49.48868" lon="1.06921">
        <ele>84</ele>
        <time>2017-06-20T15:39:07Z</time>
      </trkpt>
      <trkpt lat="49.48864" lon="1.06918">
        <ele>84</ele>
        <time>2017-06-20T15:39:07Z</time>
      </trkpt>
      <trkpt lat="49.48861" lon="1.06916">
        <ele>84</ele>
        <time>2017-06-20T15:39:30Z</time>
      </trkpt>
      <trkpt lat="49.48861" lon="1.06916">
        <ele>84</ele>
        <time>2017-06-20T15:39:30Z</time>
      </trkpt>
      <trkpt lat="49.48857" lon="1.06912">
        <ele>84</ele>
        <time>2017-06-20T15:39:30Z</time>
      </trkpt>
      <trkpt lat="49.48855" lon="1.06911">
        <ele>84</ele>
        <time>2017-06-20T15:39:30Z</time>
      </trkpt>
      <trkpt lat="49.4885" lon="1.06905">
        <ele>84</ele>
        <time>2017-06-20T15:39:30Z</time>
      </trkpt>
      <trkpt lat="49.48847" lon="1.06902">
        <ele>84</ele>
        <time>2017-06-20T15:39:46Z</time>
      </trkpt>
      <trkpt lat="49.48845" lon="1.06901">
        <ele>84</ele>
        <time>2017-06-20T15:39:46Z</time>
      </trkpt>
      <trkpt lat="49.48838" lon="1.06896">
        <ele>84</ele>
        <time>2017-06-20T15:39:46Z</time>
      </trkpt>
      <trkpt lat="49.48837" lon="1.06894">
        <ele>84</ele>
        <time>2017-06-20T15:39:46Z</time>
      </trkpt>
      <trkpt lat="49.48835" lon="1.06891">
        <ele>84</ele>
        <time>2017-06-20T15:40:03Z</time>
      </trkpt>
      <trkpt lat="49.48834" lon="1.06888">
        <ele>84</ele>
        <time>2017-06-20T15:40:03Z</time>
      </trkpt>
      <trkpt lat="49.4883" lon="1.06882">
        <ele>84</ele>
        <time>2017-06-20T15:40:03Z</time>
      </trkpt>
      <trkpt lat="49.48826" lon="1.06877">
        <ele>84</ele>
        <time>2017-06-20T15:40:03Z</time>
      </trkpt>
      <trkpt lat="49.48821" lon="1.06872">
        <ele>83</ele>
        <time>2017-06-20T15:40:17Z</time>
      </trkpt>
      <trkpt lat="49.48815" lon="1.0687">
        <ele>83</ele>
        <time>2017-06-20T15:40:17Z</time>
      </trkpt>
      <trkpt lat="49.48811" lon="1.06866">
        <ele>83</ele>
        <time>2017-06-20T15:40:17Z</time>
      </trkpt>
      <trkpt lat="49.48807" lon="1.06863">
        <ele>83</ele>
        <time>2017-06-20T15:40:17Z</time>
      </trkpt>
      <trkpt lat="49.48805" lon="1.06858">
        <ele>83</ele>
        <time>2017-06-20T15:40:37Z</time>
      </trkpt>
      <trkpt lat="49.48803" lon="1.06856">
        <ele>83</ele>
        <time>2017-06-20T15:40:40Z</time>
      </trkpt>
      <trkpt lat="49.48801" lon="1.06855">
        <ele>83</ele>
        <time>2017-06-20T15:40:40Z</time>
      </trkpt>
      <trkpt lat="49.48801" lon="1.06852">
        <ele>83</ele>
        <time>2017-06-20T15:40:40Z</time>
      </trkpt>
      <trkpt lat="49.48798" lon="1.06845">
        <ele>83</ele>
        <time>2017-06-20T15:40:40Z</time>
      </trkpt>
      <trkpt lat="49.48797" lon="1.06842">
        <ele>83</ele>
        <time>2017-06-20T15:40:58Z</time>
      </trkpt>
      <trkpt lat="49.48794" lon="1.0684">
        <ele>83</ele>
        <time>2017-06-20T15:40:58Z</time>
      </trkpt>
      <trkpt lat="49.48791" lon="1.0684">
        <ele>71</ele>
        <time>2017-06-20T15:40:58Z</time>
      </trkpt>
      <trkpt lat="49.48789" lon="1.0684">
        <ele>71</ele>
        <time>2017-06-20T15:40:58Z</time>
      </trkpt>
      <trkpt lat="49.48782" lon="1.06842">
        <ele>71</ele>
        <time>2017-06-20T15:40:58Z</time>
      </trkpt>
      <trkpt lat="49.48774" lon="1.06842">
        <ele>71</ele>
        <time>2017-06-20T15:41:14Z</time>
      </trkpt>
      <trkpt lat="49.48761" lon="1.06843">
        <ele>71</ele>
        <time>2017-06-20T15:41:14Z</time>
      </trkpt>
      <trkpt lat="49.48761" lon="1.06842">
        <ele>71</ele>
        <time>2017-06-20T15:41:14Z</time>
      </trkpt>
      <trkpt lat="49.48759" lon="1.06844">
        <ele>71</ele>
        <time>2017-06-20T15:41:14Z</time>
      </trkpt>
      <trkpt lat="49.48755" lon="1.06851">
        <ele>71</ele>
        <time>2017-06-20T15:42:53Z</time>
      </trkpt>
      <trkpt lat="49.48755" lon="1.06851">
        <ele>71</ele>
        <time>2017-06-20T15:42:53Z</time>
      </trkpt>
      <trkpt lat="49.48755" lon="1.06851">
        <ele>71</ele>
        <time>2017-06-20T15:42:54Z</time>
      </trkpt>
      <trkpt lat="49.48755" lon="1.06852">
        <ele>71</ele>
        <time>2017-06-20T15:42:54Z</time>
      </trkpt>
      <trkpt lat="49.48755" lon="1.06858">
        <ele>71</ele>
        <time>2017-06-20T15:42:54Z</time>
      </trkpt>
      <trkpt lat="49.48754" lon="1.06863">
        <ele>71</ele>
        <time>2017-06-20T15:43:10Z</time>
      </trkpt>
      <trkpt lat="49.48754" lon="1.06868">
        <ele>71</ele>
        <time>2017-06-20T15:43:10Z</time>
      </trkpt>
      <trkpt lat="49.48755" lon="1.06875">
        <ele>71</ele>
        <time>2017-06-20T15:43:10Z</time>
      </trkpt>
      <trkpt lat="49.48757" lon="1.06882">
        <ele>74</ele>
        <time>2017-06-20T15:43:10Z</time>
      </trkpt>
      <trkpt lat="49.4876" lon="1.0689">
        <ele>74</ele>
        <time>2017-06-20T15:43:25Z</time>
      </trkpt>
      <trkpt lat="49.4876" lon="1.06897">
        <ele>74</ele>
        <time>2017-06-20T15:43:25Z</time>
      </trkpt>
      <trkpt lat="49.48764" lon="1.06906">
        <ele>74</ele>
        <time>2017-06-20T15:43:25Z</time>
      </trkpt>
      <trkpt lat="49.48764" lon="1.06908">
        <ele>74</ele>
        <time>2017-06-20T15:43:25Z</time>
      </trkpt>
      <trkpt lat="49.48766" lon="1.06915">
        <ele>74</ele>
        <time>2017-06-20T15:43:42Z</time>
      </trkpt>
      <trkpt lat="49.48769" lon="1.06925">
        <ele>74</ele>
        <time>2017-06-20T15:43:42Z</time>
      </trkpt>
      <trkpt lat="49.4877" lon="1.06926">
        <ele>74</ele>
        <time>2017-06-20T15:43:42Z</time>
      </trkpt>
      <trkpt lat="49.48771" lon="1.0693">
        <ele>74</ele>
        <time>2017-06-20T15:43:42Z</time>
      </trkpt>
      <trkpt lat="49.48773" lon="1.0694">
        <ele>74</ele>
        <time>2017-06-20T15:44:05Z</time>
      </trkpt>
      <trkpt lat="49.48773" lon="1.0694">
        <ele>74</ele>
        <time>2017-06-20T15:44:05Z</time>
      </trkpt>
      <trkpt lat="49.48779" lon="1.06951">
        <ele>74</ele>
        <time>2017-06-20T15:44:05Z</time>
      </trkpt>
      <trkpt lat="49.48782" lon="1.06958">
        <ele>74</ele>
        <time>2017-06-20T15:44:05Z</time>
      </trkpt>
      <trkpt lat="49.48788" lon="1.06965">
        <ele>79</ele>
        <time>2017-06-20T15:44:23Z</time>
      </trkpt>
      <trkpt lat="49.48791" lon="1.06972">
        <ele>79</ele>
        <time>2017-06-20T15:44:23Z</time>
      </trkpt>
      <trkpt lat="49.48792" lon="1.06979">
        <ele>81</ele>
        <time>2017-06-20T15:44:23Z</time>
      </trkpt>
      <trkpt lat="49.48794" lon="1.06988">
        <ele>81</ele>
        <time>2017-06-20T15:44:23Z</time>
      </trkpt>
      <trkpt lat="49.48794" lon="1.06989">
        <ele>81</ele>
        <time>2017-06-20T15:44:37Z</time>
      </trkpt>
      <trkpt lat="49.48797" lon="1.06995">
        <ele>81</ele>
        <time>2017-06-20T15:44:37Z</time>
      </trkpt>
      <trkpt lat="49.48799" lon="1.07">
        <ele>81</ele>
        <time>2017-06-20T15:44:37Z</time>
      </trkpt>
      <trkpt lat="49.48805" lon="1.07009">
        <ele>81</ele>
        <time>2017-06-20T15:44:37Z</time>
      </trkpt>
      <trkpt lat="49.48807" lon="1.07017">
        <ele>81</ele>
        <time>2017-06-20T15:44:55Z</time>
      </trkpt>
      <trkpt lat="49.48808" lon="1.07021">
        <ele>81</ele>
        <time>2017-06-20T15:44:55Z</time>
      </trkpt>
      <trkpt lat="49.48809" lon="1.07021">
        <ele>81</ele>
        <time>2017-06-20T15:44:56Z</time>
      </trkpt>
      <trkpt lat="49.48812" lon="1.07028">
        <ele>81</ele>
        <time>2017-06-20T15:44:56Z</time>
      </trkpt>
      <trkpt lat="49.48817" lon="1.07037">
        <ele>81</ele>
        <time>2017-06-20T15:45:15Z</time>
      </trkpt>
      <trkpt lat="49.48823" lon="1.07046">
        <ele>80</ele>
        <time>2017-06-20T15:45:15Z</time>
      </trkpt>
      <trkpt lat="49.48825" lon="1.07048">
        <ele>80</ele>
        <time>2017-06-20T15:45:15Z</time>
      </trkpt>
      <trkpt lat="49.48827" lon="1.07049">
        <ele>80</ele>
        <time>2017-06-20T15:45:15Z</time>
      </trkpt>
      <trkpt lat="49.48833" lon="1.07056">
        <ele>80</ele>
        <time>2017-06-20T15:45:31Z</time>
      </trkpt>
      <trkpt lat="49.48833" lon="1.07058">
        <ele>80</ele>
        <time>2017-06-20T15:45:31Z</time>
      </trkpt>
      <trkpt lat="49.48835" lon="1.07059">
        <ele>80</ele>
        <time>2017-06-20T15:45:31Z</time>
      </trkpt>
      <trkpt lat="49.48841" lon="1.0707">
        <ele>80</ele>
        <time>2017-06-20T15:45:31Z</time>
      </trkpt>
      <trkpt lat="49.48844" lon="1.07079">
        <ele>80</ele>
        <time>2017-06-20T15:45:55Z</time>
      </trkpt>
      <trkpt lat="49.48845" lon="1.0708">
        <ele>80</ele>
        <time>2017-06-20T15:45:55Z</time>
      </trkpt>
      <trkpt lat="49.48847" lon="1.07083">
        <ele>80</ele>
        <time>2017-06-20T15:45:55Z</time>
      </trkpt>
      <trkpt lat="49.4885" lon="1.07088">
        <ele>80</ele>
        <time>2017-06-20T15:45:55Z</time>
      </trkpt>
      <trkpt lat="49.48855" lon="1.07101">
        <ele>80</ele>
        <time>2017-06-20T15:45:55Z</time>
      </trkpt>
      <trkpt lat="49.48858" lon="1.07109">
        <ele>80</ele>
        <time>2017-06-20T15:46:10Z</time>
      </trkpt>
      <trkpt lat="49.4886" lon="1.07118">
        <ele>80</ele>
        <time>2017-06-20T15:46:10Z</time>
      </trkpt>
      <trkpt lat="49.48863" lon="1.07126">
        <ele>83</ele>
        <time>2017-06-20T15:46:10Z</time>
      </trkpt>
      <trkpt lat="49.48863" lon="1.0713">
        <ele>83</ele>
        <time>2017-06-20T15:46:10Z</time>
      </trkpt>
      <trkpt lat="49.48865" lon="1.07134">
        <ele>83</ele>
        <time>2017-06-20T15:46:26Z</time>
      </trkpt>
      <trkpt lat="49.48869" lon="1.07145">
        <ele>83</ele>
        <time>2017-06-20T15:46:26Z</time>
      </trkpt>
      <trkpt lat="49.48872" lon="1.07151">
        <ele>83</ele>
        <time>2017-06-20T15:46:26Z</time>
      </trkpt>
      <trkpt lat="49.48874" lon="1.07153">
        <ele>83</ele>
        <time>2017-06-20T15:46:26Z</time>
      </trkpt>
      <trkpt lat="49.48874" lon="1.07155">
        <ele>83</ele>
        <time>2017-06-20T15:46:42Z</time>
      </trkpt>
      <trkpt lat="49.48878" lon="1.07165">
        <ele>90</ele>
        <time>2017-06-20T15:46:42Z</time>
      </trkpt>
      <trkpt lat="49.48879" lon="1.0717">
        <ele>90</ele>
        <time>2017-06-20T15:46:42Z</time>
      </trkpt>
      <trkpt lat="49.48881" lon="1.07176">
        <ele>90</ele>
        <time>2017-06-20T15:46:42Z</time>
      </trkpt>
      <trkpt lat="49.48885" lon="1.07184">
        <ele>90</ele>
        <time>2017-06-20T15:46:59Z</time>
      </trkpt>
      <trkpt lat="49.4889" lon="1.07194">
        <ele>90</ele>
        <time>2017-06-20T15:46:59Z</time>
      </trkpt>
      <trkpt lat="49.48891" lon="1.072">
        <ele>90</ele>
        <time>2017-06-20T15:46:59Z</time>
      </trkpt>
      <trkpt lat="49.48893" lon="1.07206">
        <ele>90</ele>
        <time>2017-06-20T15:46:59Z</time>
      </trkpt>
      <trkpt lat="49.48894" lon="1.07213">
        <ele>86</ele>
        <time>2017-06-20T15:47:15Z</time>
      </trkpt>
      <trkpt lat="49.48896" lon="1.07215">
        <ele>86</ele>
        <time>2017-06-20T15:47:15Z</time>
      </trkpt>
      <trkpt lat="49.48897" lon="1.07219">
        <ele>86</ele>
        <time>2017-06-20T15:47:15Z</time>
      </trkpt>
      <trkpt lat="49.48901" lon="1.07226">
        <ele>86</ele>
        <time>2017-06-20T15:47:15Z</time>
      </trkpt>
      <trkpt lat="49.48902" lon="1.07228">
        <ele>86</ele>
        <time>2017-06-20T15:47:31Z</time>
      </trkpt>
      <trkpt lat="49.48906" lon="1.07236">
        <ele>86</ele>
        <time>2017-06-20T15:47:31Z</time>
      </trkpt>
      <trkpt lat="49.48908" lon="1.07245">
        <ele>86</ele>
        <time>2017-06-20T15:47:31Z</time>
      </trkpt>
      <trkpt lat="49.48911" lon="1.07247">
        <ele>86</ele>
        <time>2017-06-20T15:47:31Z</time>
      </trkpt>
      <trkpt lat="49.48923" lon="1.0728">
        <ele>86</ele>
        <time>2017-06-20T15:48:06Z</time>
      </trkpt>
      <trkpt lat="49.48926" lon="1.07292">
        <ele>86</ele>
        <time>2017-06-20T15:48:06Z</time>
      </trkpt>
      <trkpt lat="49.48928" lon="1.07298">
        <ele>88</ele>
        <time>2017-06-20T15:48:06Z</time>
      </trkpt>
      <trkpt lat="49.4893" lon="1.07303">
        <ele>88</ele>
        <time>2017-06-20T15:48:06Z</time>
      </trkpt>
      <trkpt lat="49.48936" lon="1.07312">
        <ele>88</ele>
        <time>2017-06-20T15:48:06Z</time>
      </trkpt>
      <trkpt lat="49.48938" lon="1.0732">
        <ele>88</ele>
        <time>2017-06-20T15:48:22Z</time>
      </trkpt>
      <trkpt lat="49.48941" lon="1.07326">
        <ele>88</ele>
        <time>2017-06-20T15:48:22Z</time>
      </trkpt>
      <trkpt lat="49.48945" lon="1.07333">
        <ele>88</ele>
        <time>2017-06-20T15:48:22Z</time>
      </trkpt>
      <trkpt lat="49.48946" lon="1.07337">
        <ele>88</ele>
        <time>2017-06-20T15:48:22Z</time>
      </trkpt>
      <trkpt lat="49.48948" lon="1.07342">
        <ele>88</ele>
        <time>2017-06-20T15:48:37Z</time>
      </trkpt>
      <trkpt lat="49.48951" lon="1.07347">
        <ele>88</ele>
        <time>2017-06-20T15:48:37Z</time>
      </trkpt>
      <trkpt lat="49.48954" lon="1.07354">
        <ele>88</ele>
        <time>2017-06-20T15:48:37Z</time>
      </trkpt>
      <trkpt lat="49.48956" lon="1.0736">
        <ele>88</ele>
        <time>2017-06-20T15:48:37Z</time>
      </trkpt>
      <trkpt lat="49.4896" lon="1.07364">
        <ele>101</ele>
        <time>2017-06-20T15:48:54Z</time>
      </trkpt>
      <trkpt lat="49.48962" lon="1.07371">
        <ele>101</ele>
        <time>2017-06-20T15:48:54Z</time>
      </trkpt>
      <trkpt lat="49.48963" lon="1.07375">
        <ele>101</ele>
        <time>2017-06-20T15:48:54Z</time>
      </trkpt>
      <trkpt lat="49.48965" lon="1.07376">
        <ele>96</ele>
        <time>2017-06-20T15:48:54Z</time>
      </trkpt>
      <trkpt lat="49.48969" lon="1.07387">
        <ele>96</ele>
        <time>2017-06-20T15:49:11Z</time>
      </trkpt>
      <trkpt lat="49.48971" lon="1.07394">
        <ele>96</ele>
        <time>2017-06-20T15:49:11Z</time>
      </trkpt>
      <trkpt lat="49.48973" lon="1.07396">
        <ele>96</ele>
        <time>2017-06-20T15:49:11Z</time>
      </trkpt>
      <trkpt lat="49.48975" lon="1.07401">
        <ele>96</ele>
        <time>2017-06-20T15:49:11Z</time>
      </trkpt>
      <trkpt lat="49.48978" lon="1.07409">
        <ele>96</ele>
        <time>2017-06-20T15:49:45Z</time>
      </trkpt>
      <trkpt lat="49.48977" lon="1.07409">
        <ele>96</ele>
        <time>2017-06-20T15:49:46Z</time>
      </trkpt>
      <trkpt lat="49.48979" lon="1.07421">
        <ele>96</ele>
        <time>2017-06-20T15:49:46Z</time>
      </trkpt>
      <trkpt lat="49.48981" lon="1.07429">
        <ele>96</ele>
        <time>2017-06-20T15:49:46Z</time>
      </trkpt>
      <trkpt lat="49.48981" lon="1.07431">
        <ele>96</ele>
        <time>2017-06-20T15:49:46Z</time>
      </trkpt>
      <trkpt lat="49.48978" lon="1.07443">
        <ele>96</ele>
        <time>2017-06-20T15:50:38Z</time>
      </trkpt>
      <trkpt lat="49.48977" lon="1.07444">
        <ele>96</ele>
        <time>2017-06-20T15:50:38Z</time>
      </trkpt>
      <trkpt lat="49.48974" lon="1.07446">
        <ele>96</ele>
        <time>2017-06-20T15:50:38Z</time>
      </trkpt>
      <trkpt lat="49.48971" lon="1.07448">
        <ele>96</ele>
        <time>2017-06-20T15:50:38Z</time>
      </trkpt>
      <trkpt lat="49.48972" lon="1.07455">
        <ele>96</ele>
        <time>2017-06-20T15:50:38Z</time>
      </trkpt>
      <trkpt lat="49.4897" lon="1.07459">
        <ele>97</ele>
        <time>2017-06-20T15:50:55Z</time>
      </trkpt>
      <trkpt lat="49.48971" lon="1.07466">
        <ele>97</ele>
        <time>2017-06-20T15:50:55Z</time>
      </trkpt>
      <trkpt lat="49.48973" lon="1.07476">
        <ele>97</ele>
        <time>2017-06-20T15:50:55Z</time>
      </trkpt>
      <trkpt lat="49.48972" lon="1.07484">
        <ele>97</ele>
        <time>2017-06-20T15:50:55Z</time>
      </trkpt>
      <trkpt lat="49.48973" lon="1.07491">
        <ele>97</ele>
        <time>2017-06-20T15:51:10Z</time>
      </trkpt>
      <trkpt lat="49.48973" lon="1.07498">
        <ele>97</ele>
        <time>2017-06-20T15:51:10Z</time>
      </trkpt>
      <trkpt lat="49.4897" lon="1.07506">
        <ele>97</ele>
        <time>2017-06-20T15:51:10Z</time>
      </trkpt>
      <trkpt lat="49.4897" lon="1.07512">
        <ele>97</ele>
        <time>2017-06-20T15:51:10Z</time>
      </trkpt>
      <trkpt lat="49.48969" lon="1.07517">
        <ele>97</ele>
        <time>2017-06-20T15:51:25Z</time>
      </trkpt>
      <trkpt lat="49.48967" lon="1.07524">
        <ele>97</ele>
        <time>2017-06-20T15:51:26Z</time>
      </trkpt>
      <trkpt lat="49.4896" lon="1.07533">
        <ele>97</ele>
        <time>2017-06-20T15:51:26Z</time>
      </trkpt>
      <trkpt lat="49.48959" lon="1.07542">
        <ele>106</ele>
        <time>2017-06-20T15:51:27Z</time>
      </trkpt>
      <trkpt lat="49.48959" lon="1.07548">
        <ele>106</ele>
        <time>2017-06-20T15:51:41Z</time>
      </trkpt>
      <trkpt lat="49.48954" lon="1.07558">
        <ele>97</ele>
        <time>2017-06-20T15:51:41Z</time>
      </trkpt>
      <trkpt lat="49.48953" lon="1.07566">
        <ele>97</ele>
        <time>2017-06-20T15:51:41Z</time>
      </trkpt>
      <trkpt lat="49.48954" lon="1.07574">
        <ele>97</ele>
        <time>2017-06-20T15:51:41Z</time>
      </trkpt>
      <trkpt lat="49.48952" lon="1.07577">
        <ele>97</ele>
        <time>2017-06-20T15:51:58Z</time>
      </trkpt>
      <trkpt lat="49.48951" lon="1.07583">
        <ele>97</ele>
        <time>2017-06-20T15:51:58Z</time>
      </trkpt>
      <trkpt lat="49.48949" lon="1.07595">
        <ele>97</ele>
        <time>2017-06-20T15:51:58Z</time>
      </trkpt>
      <trkpt lat="49.48948" lon="1.07603">
        <ele>97</ele>
        <time>2017-06-20T15:51:58Z</time>
      </trkpt>
      <trkpt lat="49.48947" lon="1.07611">
        <ele>97</ele>
        <time>2017-06-20T15:52:13Z</time>
      </trkpt>
      <trkpt lat="49.48947" lon="1.07618">
        <ele>97</ele>
        <time>2017-06-20T15:52:13Z</time>
      </trkpt>
      <trkpt lat="49.48947" lon="1.07625">
        <ele>100</ele>
        <time>2017-06-20T15:52:13Z</time>
      </trkpt>
      <trkpt lat="49.48947" lon="1.07627">
        <ele>100</ele>
        <time>2017-06-20T15:52:13Z</time>
      </trkpt>
      <trkpt lat="49.48944" lon="1.07632">
        <ele>100</ele>
        <time>2017-06-20T15:52:30Z</time>
      </trkpt>
      <trkpt lat="49.48945" lon="1.07643">
        <ele>100</ele>
        <time>2017-06-20T15:52:30Z</time>
      </trkpt>
      <trkpt lat="49.48945" lon="1.07648">
        <ele>100</ele>
        <time>2017-06-20T15:52:30Z</time>
      </trkpt>
      <trkpt lat="49.48945" lon="1.0766">
        <ele>100</ele>
        <time>2017-06-20T15:52:30Z</time>
      </trkpt>
      <trkpt lat="49.48943" lon="1.07666">
        <ele>100</ele>
        <time>2017-06-20T15:52:45Z</time>
      </trkpt>
      <trkpt lat="49.48941" lon="1.07673">
        <ele>100</ele>
        <time>2017-06-20T15:52:45Z</time>
      </trkpt>
      <trkpt lat="49.48938" lon="1.07679">
        <ele>100</ele>
        <time>2017-06-20T15:52:45Z</time>
      </trkpt>
      <trkpt lat="49.48937" lon="1.07686">
        <ele>100</ele>
        <time>2017-06-20T15:52:45Z</time>
      </trkpt>
      <trkpt lat="49.48938" lon="1.07694">
        <ele>100</ele>
        <time>2017-06-20T15:53:02Z</time>
      </trkpt>
      <trkpt lat="49.48933" lon="1.07699">
        <ele>100</ele>
        <time>2017-06-20T15:53:02Z</time>
      </trkpt>
      <trkpt lat="49.48933" lon="1.07701">
        <ele>100</ele>
        <time>2017-06-20T15:53:02Z</time>
      </trkpt>
      <trkpt lat="49.48935" lon="1.07707">
        <ele>100</ele>
        <time>2017-06-20T15:53:02Z</time>
      </trkpt>
      <trkpt lat="49.48933" lon="1.07709">
        <ele>104</ele>
        <time>2017-06-20T15:53:26Z</time>
      </trkpt>
      <trkpt lat="49.48934" lon="1.07714">
        <ele>104</ele>
        <time>2017-06-20T15:53:26Z</time>
      </trkpt>
      <trkpt lat="49.4893" lon="1.07719">
        <ele>104</ele>
        <time>2017-06-20T15:53:26Z</time>
      </trkpt>
      <trkpt lat="49.48929" lon="1.0772">
        <ele>104</ele>
        <time>2017-06-20T15:53:26Z</time>
      </trkpt>
      <trkpt lat="49.48931" lon="1.07728">
        <ele>104</ele>
        <time>2017-06-20T15:53:26Z</time>
      </trkpt>
      <trkpt lat="49.4893" lon="1.07729">
        <ele>104</ele>
        <time>2017-06-20T15:53:41Z</time>
      </trkpt>
      <trkpt lat="49.48928" lon="1.07743">
        <ele>104</ele>
        <time>2017-06-20T15:53:41Z</time>
      </trkpt>
      <trkpt lat="49.48929" lon="1.07752">
        <ele>104</ele>
        <time>2017-06-20T15:53:41Z</time>
      </trkpt>
      <trkpt lat="49.48927" lon="1.07755">
        <ele>104</ele>
        <time>2017-06-20T15:53:41Z</time>
      </trkpt>
      <trkpt lat="49.48928" lon="1.07763">
        <ele>104</ele>
        <time>2017-06-20T15:53:58Z</time>
      </trkpt>
      <trkpt lat="49.48925" lon="1.07773">
        <ele>104</ele>
        <time>2017-06-20T15:53:58Z</time>
      </trkpt>
      <trkpt lat="49.48924" lon="1.07777">
        <ele>104</ele>
        <time>2017-06-20T15:53:58Z</time>
      </trkpt>
      <trkpt lat="49.48926" lon="1.07787">
        <ele>104</ele>
        <time>2017-06-20T15:53:58Z</time>
      </trkpt>
      <trkpt lat="49.48924" lon="1.07792">
        <ele>108</ele>
        <time>2017-06-20T15:54:14Z</time>
      </trkpt>
      <trkpt lat="49.48924" lon="1.07794">
        <ele>108</ele>
        <time>2017-06-20T15:54:14Z</time>
      </trkpt>
      <trkpt lat="49.4892" lon="1.07806">
        <ele>108</ele>
        <time>2017-06-20T15:54:14Z</time>
      </trkpt>
      <trkpt lat="49.4892" lon="1.07811">
        <ele>108</ele>
        <time>2017-06-20T15:54:14Z</time>
      </trkpt>
      <trkpt lat="49.48917" lon="1.07816">
        <ele>108</ele>
        <time>2017-06-20T15:54:30Z</time>
      </trkpt>
      <trkpt lat="49.48915" lon="1.07817">
        <ele>108</ele>
        <time>2017-06-20T15:54:31Z</time>
      </trkpt>
      <trkpt lat="49.48916" lon="1.07824">
        <ele>108</ele>
        <time>2017-06-20T15:54:31Z</time>
      </trkpt>
      <trkpt lat="49.48909" lon="1.07834">
        <ele>108</ele>
        <time>2017-06-20T15:54:31Z</time>
      </trkpt>
      <trkpt lat="49.48904" lon="1.07849">
        <ele>108</ele>
        <time>2017-06-20T15:54:55Z</time>
      </trkpt>
      <trkpt lat="49.48902" lon="1.07858">
        <ele>108</ele>
        <time>2017-06-20T15:54:55Z</time>
      </trkpt>
      <trkpt lat="49.48893" lon="1.07863">
        <ele>108</ele>
        <time>2017-06-20T15:54:55Z</time>
      </trkpt>
      <trkpt lat="49.48891" lon="1.07875">
        <ele>112</ele>
        <time>2017-06-20T15:54:56Z</time>
      </trkpt>
      <trkpt lat="49.48888" lon="1.07879">
        <ele>112</ele>
        <time>2017-06-20T15:55:10Z</time>
      </trkpt>
      <trkpt lat="49.48884" lon="1.0788">
        <ele>112</ele>
        <time>2017-06-20T15:55:10Z</time>
      </trkpt>
      <trkpt lat="49.48882" lon="1.07885">
        <ele>112</ele>
        <time>2017-06-20T15:55:10Z</time>
      </trkpt>
      <trkpt lat="49.4888" lon="1.07889">
        <ele>112</ele>
        <time>2017-06-20T15:55:10Z</time>
      </trkpt>
      <trkpt lat="49.48879" lon="1.0789">
        <ele>112</ele>
        <time>2017-06-20T15:55:30Z</time>
      </trkpt>
      <trkpt lat="49.48878" lon="1.07891">
        <ele>112</ele>
        <time>2017-06-20T15:55:30Z</time>
      </trkpt>
      <trkpt lat="49.48878" lon="1.07894">
        <ele>112</ele>
        <time>2017-06-20T15:55:30Z</time>
      </trkpt>
      <trkpt lat="49.48876" lon="1.079">
        <ele>112</ele>
        <time>2017-06-20T15:55:30Z</time>
      </trkpt>
      <trkpt lat="49.48875" lon="1.07905">
        <ele>111</ele>
        <time>2017-06-20T15:55:30Z</time>
      </trkpt>
      <trkpt lat="49.48865" lon="1.07919">
        <ele>111</ele>
        <time>2017-06-20T15:55:55Z</time>
      </trkpt>
      <trkpt lat="49.48857" lon="1.07924">
        <ele>111</ele>
        <time>2017-06-20T15:55:55Z</time>
      </trkpt>
      <trkpt lat="49.48858" lon="1.07936">
        <ele>111</ele>
        <time>2017-06-20T15:55:55Z</time>
      </trkpt>
      <trkpt lat="49.48855" lon="1.07941">
        <ele>111</ele>
        <time>2017-06-20T15:55:55Z</time>
      </trkpt>
      <trkpt lat="49.48855" lon="1.07942">
        <ele>111</ele>
        <time>2017-06-20T15:56:10Z</time>
      </trkpt>
      <trkpt lat="49.48852" lon="1.07945">
        <ele>111</ele>
        <time>2017-06-20T15:56:10Z</time>
      </trkpt>
      <trkpt lat="49.48849" lon="1.07951">
        <ele>111</ele>
        <time>2017-06-20T15:56:10Z</time>
      </trkpt>
      <trkpt lat="49.48846" lon="1.07957">
        <ele>111</ele>
        <time>2017-06-20T15:56:10Z</time>
      </trkpt>
      <trkpt lat="49.4884" lon="1.07963">
        <ele>113</ele>
        <time>2017-06-20T15:56:25Z</time>
      </trkpt>
      <trkpt lat="49.48841" lon="1.0797">
        <ele>113</ele>
        <time>2017-06-20T15:56:25Z</time>
      </trkpt>
      <trkpt lat="49.4884" lon="1.07983">
        <ele>113</ele>
        <time>2017-06-20T15:56:25Z</time>
      </trkpt>
      <trkpt lat="49.48837" lon="1.07986">
        <ele>113</ele>
        <time>2017-06-20T15:56:25Z</time>
      </trkpt>
      <trkpt lat="49.48833" lon="1.0799">
        <ele>113</ele>
        <time>2017-06-20T15:56:42Z</time>
      </trkpt>
      <trkpt lat="49.48827" lon="1.07997">
        <ele>113</ele>
        <time>2017-06-20T15:56:42Z</time>
      </trkpt>
      <trkpt lat="49.48824" lon="1.08002">
        <ele>113</ele>
        <time>2017-06-20T15:56:42Z</time>
      </trkpt>
      <trkpt lat="49.48818" lon="1.08006">
        <ele>113</ele>
        <time>2017-06-20T15:56:42Z</time>
      </trkpt>
      <trkpt lat="49.48816" lon="1.08008">
        <ele>113</ele>
        <time>2017-06-20T15:56:59Z</time>
      </trkpt>
      <trkpt lat="49.48809" lon="1.08012">
        <ele>113</ele>
        <time>2017-06-20T15:56:59Z</time>
      </trkpt>
      <trkpt lat="49.48807" lon="1.0802">
        <ele>113</ele>
        <time>2017-06-20T15:56:59Z</time>
      </trkpt>
      <trkpt lat="49.48804" lon="1.08026">
        <ele>113</ele>
        <time>2017-06-20T15:56:59Z</time>
      </trkpt>
      <trkpt lat="49.48802" lon="1.08031">
        <ele>113</ele>
        <time>2017-06-20T15:57:15Z</time>
      </trkpt>
      <trkpt lat="49.48801" lon="1.08041">
        <ele>113</ele>
        <time>2017-06-20T15:57:15Z</time>
      </trkpt>
      <trkpt lat="49.488" lon="1.08047">
        <ele>118</ele>
        <time>2017-06-20T15:57:15Z</time>
      </trkpt>
      <trkpt lat="49.48797" lon="1.08053">
        <ele>118</ele>
        <time>2017-06-20T15:57:15Z</time>
      </trkpt>
      <trkpt lat="49.48794" lon="1.08056">
        <ele>118</ele>
        <time>2017-06-20T15:57:31Z</time>
      </trkpt>
      <trkpt lat="49.48788" lon="1.08063">
        <ele>121</ele>
        <time>2017-06-20T15:57:31Z</time>
      </trkpt>
      <trkpt lat="49.48787" lon="1.08068">
        <ele>121</ele>
        <time>2017-06-20T15:57:31Z</time>
      </trkpt>
      <trkpt lat="49.48786" lon="1.08075">
        <ele>121</ele>
        <time>2017-06-20T15:57:31Z</time>
      </trkpt>
      <trkpt lat="49.48788" lon="1.08082">
        <ele>121</ele>
        <time>2017-06-20T15:57:45Z</time>
      </trkpt>
      <trkpt lat="49.48788" lon="1.08087">
        <ele>121</ele>
        <time>2017-06-20T15:57:45Z</time>
      </trkpt>
      <trkpt lat="49.48786" lon="1.08094">
        <ele>121</ele>
        <time>2017-06-20T15:57:45Z</time>
      </trkpt>
      <trkpt lat="49.48793" lon="1.08116">
        <ele>118</ele>
        <time>2017-06-20T15:57:45Z</time>
      </trkpt>
      <trkpt lat="49.48796" lon="1.08121">
        <ele>118</ele>
        <time>2017-06-20T15:58:10Z</time>
      </trkpt>
      <trkpt lat="49.48792" lon="1.08126">
        <ele>122</ele>
        <time>2017-06-20T15:58:11Z</time>
      </trkpt>
      <trkpt lat="49.48793" lon="1.08129">
        <ele>122</ele>
        <time>2017-06-20T15:58:11Z</time>
      </trkpt>
      <trkpt lat="49.4879" lon="1.08129">
        <ele>125</ele>
        <time>2017-06-20T15:58:11Z</time>
      </trkpt>
      <trkpt lat="49.48787" lon="1.08131">
        <ele>125</ele>
        <time>2017-06-20T15:58:11Z</time>
      </trkpt>
      <trkpt lat="49.48787" lon="1.08137">
        <ele>125</ele>
        <time>2017-06-20T15:58:26Z</time>
      </trkpt>
      <trkpt lat="49.48791" lon="1.08145">
        <ele>125</ele>
        <time>2017-06-20T15:58:26Z</time>
      </trkpt>
      <trkpt lat="49.48791" lon="1.08148">
        <ele>125</ele>
        <time>2017-06-20T15:58:27Z</time>
      </trkpt>
      <trkpt lat="49.4879" lon="1.08154">
        <ele>125</ele>
        <time>2017-06-20T15:58:27Z</time>
      </trkpt>
      <trkpt lat="49.48792" lon="1.08157">
        <ele>122</ele>
        <time>2017-06-20T15:58:42Z</time>
      </trkpt>
      <trkpt lat="49.48795" lon="1.08165">
        <ele>122</ele>
        <time>2017-06-20T15:58:42Z</time>
      </trkpt>
      <trkpt lat="49.48795" lon="1.08166">
        <ele>122</ele>
        <time>2017-06-20T15:58:42Z</time>
      </trkpt>
      <trkpt lat="49.48792" lon="1.08174">
        <ele>122</ele>
        <time>2017-06-20T15:58:42Z</time>
      </trkpt>
      <trkpt lat="49.48799" lon="1.08184">
        <ele>122</ele>
        <time>2017-06-20T15:58:59Z</time>
      </trkpt>
      <trkpt lat="49.48801" lon="1.08194">
        <ele>122</ele>
        <time>2017-06-20T15:58:59Z</time>
      </trkpt>
      <trkpt lat="49.48805" lon="1.08203">
        <ele>122</ele>
        <time>2017-06-20T15:58:59Z</time>
      </trkpt>
      <trkpt lat="49.48808" lon="1.0821">
        <ele>122</ele>
        <time>2017-06-20T15:58:59Z</time>
      </trkpt>
      <trkpt lat="49.48811" lon="1.08215">
        <ele>122</ele>
        <time>2017-06-20T15:59:14Z</time>
      </trkpt>
      <trkpt lat="49.48813" lon="1.08224">
        <ele>122</ele>
        <time>2017-06-20T15:59:14Z</time>
      </trkpt>
      <trkpt lat="49.48813" lon="1.08229">
        <ele>122</ele>
        <time>2017-06-20T15:59:14Z</time>
      </trkpt>
      <trkpt lat="49.48816" lon="1.0824">
        <ele>122</ele>
        <time>2017-06-20T15:59:14Z</time>
      </trkpt>
      <trkpt lat="49.48816" lon="1.08243">
        <ele>122</ele>
        <time>2017-06-20T15:59:29Z</time>
      </trkpt>
      <trkpt lat="49.48817" lon="1.08248">
        <ele>122</ele>
        <time>2017-06-20T15:59:29Z</time>
      </trkpt>
      <trkpt lat="49.48816" lon="1.08255">
        <ele>122</ele>
        <time>2017-06-20T15:59:29Z</time>
      </trkpt>
      <trkpt lat="49.4882" lon="1.08265">
        <ele>122</ele>
        <time>2017-06-20T15:59:29Z</time>
      </trkpt>
      <trkpt lat="49.48824" lon="1.08272">
        <ele>122</ele>
        <time>2017-06-20T15:59:45Z</time>
      </trkpt>
      <trkpt lat="49.48823" lon="1.08281">
        <ele>122</ele>
        <time>2017-06-20T15:59:45Z</time>
      </trkpt>
      <trkpt lat="49.48824" lon="1.08291">
        <ele>122</ele>
        <time>2017-06-20T15:59:45Z</time>
      </trkpt>
      <trkpt lat="49.48824" lon="1.08298">
        <ele>120</ele>
        <time>2017-06-20T15:59:45Z</time>
      </trkpt>
      <trkpt lat="49.48823" lon="1.08301">
        <ele>120</ele>
        <time>2017-06-20T16:00:01Z</time>
      </trkpt>
      <trkpt lat="49.4882" lon="1.08308">
        <ele>120</ele>
        <time>2017-06-20T16:00:01Z</time>
      </trkpt>
      <trkpt lat="49.4882" lon="1.08313">
        <ele>120</ele>
        <time>2017-06-20T16:00:01Z</time>
      </trkpt>
      <trkpt lat="49.4882" lon="1.0832">
        <ele>120</ele>
        <time>2017-06-20T16:00:01Z</time>
      </trkpt>
      <trkpt lat="49.48821" lon="1.08333">
        <ele>120</ele>
        <time>2017-06-20T16:00:17Z</time>
      </trkpt>
      <trkpt lat="49.48822" lon="1.08338">
        <ele>120</ele>
        <time>2017-06-20T16:00:17Z</time>
      </trkpt>
      <trkpt lat="49.48821" lon="1.08344">
        <ele>120</ele>
        <time>2017-06-20T16:00:17Z</time>
      </trkpt>
      <trkpt lat="49.48822" lon="1.08354">
        <ele>120</ele>
        <time>2017-06-20T16:00:17Z</time>
      </trkpt>
      <trkpt lat="49.48822" lon="1.08359">
        <ele>120</ele>
        <time>2017-06-20T16:00:33Z</time>
      </trkpt>
      <trkpt lat="49.48824" lon="1.08371">
        <ele>120</ele>
        <time>2017-06-20T16:00:33Z</time>
      </trkpt>
      <trkpt lat="49.48824" lon="1.08378">
        <ele>119</ele>
        <time>2017-06-20T16:00:33Z</time>
      </trkpt>
      <trkpt lat="49.48823" lon="1.08383">
        <ele>119</ele>
        <time>2017-06-20T16:00:33Z</time>
      </trkpt>
      <trkpt lat="49.48823" lon="1.08388">
        <ele>119</ele>
        <time>2017-06-20T16:00:49Z</time>
      </trkpt>
      <trkpt lat="49.48819" lon="1.08397">
        <ele>119</ele>
        <time>2017-06-20T16:00:49Z</time>
      </trkpt>
      <trkpt lat="49.4882" lon="1.084">
        <ele>119</ele>
        <time>2017-06-20T16:00:49Z</time>
      </trkpt>
      <trkpt lat="49.48818" lon="1.08408">
        <ele>119</ele>
        <time>2017-06-20T16:00:49Z</time>
      </trkpt>
      <trkpt lat="49.4882" lon="1.08419">
        <ele>119</ele>
        <time>2017-06-20T16:01:05Z</time>
      </trkpt>
      <trkpt lat="49.48816" lon="1.08424">
        <ele>119</ele>
        <time>2017-06-20T16:01:05Z</time>
      </trkpt>
      <trkpt lat="49.4882" lon="1.08437">
        <ele>119</ele>
        <time>2017-06-20T16:01:05Z</time>
      </trkpt>
      <trkpt lat="49.48824" lon="1.08442">
        <ele>119</ele>
        <time>2017-06-20T16:01:05Z</time>
      </trkpt>
      <trkpt lat="49.48821" lon="1.08447">
        <ele>119</ele>
        <time>2017-06-20T16:01:21Z</time>
      </trkpt>
      <trkpt lat="49.48822" lon="1.0845">
        <ele>119</ele>
        <time>2017-06-20T16:01:22Z</time>
      </trkpt>
      <trkpt lat="49.48825" lon="1.0846">
        <ele>123</ele>
        <time>2017-06-20T16:01:22Z</time>
      </trkpt>
      <trkpt lat="49.48825" lon="1.08468">
        <ele>123</ele>
        <time>2017-06-20T16:01:22Z</time>
      </trkpt>
      <trkpt lat="49.48825" lon="1.08474">
        <ele>123</ele>
        <time>2017-06-20T16:01:39Z</time>
      </trkpt>
      <trkpt lat="49.48825" lon="1.08481">
        <ele>123</ele>
        <time>2017-06-20T16:01:39Z</time>
      </trkpt>
      <trkpt lat="49.48831" lon="1.08493">
        <ele>123</ele>
        <time>2017-06-20T16:01:39Z</time>
      </trkpt>
      <trkpt lat="49.48829" lon="1.08502">
        <ele>123</ele>
        <time>2017-06-20T16:01:39Z</time>
      </trkpt>
      <trkpt lat="49.48828" lon="1.0851">
        <ele>123</ele>
        <time>2017-06-20T16:01:53Z</time>
      </trkpt>
      <trkpt lat="49.48831" lon="1.0852">
        <ele>123</ele>
        <time>2017-06-20T16:01:54Z</time>
      </trkpt>
      <trkpt lat="49.4883" lon="1.08526">
        <ele>123</ele>
        <time>2017-06-20T16:01:55Z</time>
      </trkpt>
      <trkpt lat="49.48828" lon="1.08532">
        <ele>123</ele>
        <time>2017-06-20T16:01:55Z</time>
      </trkpt>
      <trkpt lat="49.48827" lon="1.08536">
        <ele>123</ele>
        <time>2017-06-20T16:02:10Z</time>
      </trkpt>
      <trkpt lat="49.48825" lon="1.08542">
        <ele>129</ele>
        <time>2017-06-20T16:02:10Z</time>
      </trkpt>
      <trkpt lat="49.48829" lon="1.08555">
        <ele>129</ele>
        <time>2017-06-20T16:02:10Z</time>
      </trkpt>
      <trkpt lat="49.48827" lon="1.08561">
        <ele>129</ele>
        <time>2017-06-20T16:02:10Z</time>
      </trkpt>
      <trkpt lat="49.48826" lon="1.08569">
        <ele>129</ele>
        <time>2017-06-20T16:02:26Z</time>
      </trkpt>
      <trkpt lat="49.48824" lon="1.08578">
        <ele>129</ele>
        <time>2017-06-20T16:02:26Z</time>
      </trkpt>
      <trkpt lat="49.48825" lon="1.08586">
        <ele>129</ele>
        <time>2017-06-20T16:02:26Z</time>
      </trkpt>
      <trkpt lat="49.48825" lon="1.08591">
        <ele>129</ele>
        <time>2017-06-20T16:02:26Z</time>
      </trkpt>
      <trkpt lat="49.48827" lon="1.08598">
        <ele>129</ele>
        <time>2017-06-20T16:02:42Z</time>
      </trkpt>
      <trkpt lat="49.48826" lon="1.08602">
        <ele>129</ele>
        <time>2017-06-20T16:02:42Z</time>
      </trkpt>
      <trkpt lat="49.48827" lon="1.08607">
        <ele>129</ele>
        <time>2017-06-20T16:02:42Z</time>
      </trkpt>
      <trkpt lat="49.4883" lon="1.08614">
        <ele>129</ele>
        <time>2017-06-20T16:02:42Z</time>
      </trkpt>
      <trkpt lat="49.48834" lon="1.08623">
        <ele>129</ele>
        <time>2017-06-20T16:03:26Z</time>
      </trkpt>
      <trkpt lat="49.48834" lon="1.08623">
        <ele>129</ele>
        <time>2017-06-20T16:03:26Z</time>
      </trkpt>
      <trkpt lat="49.48834" lon="1.08623">
        <ele>129</ele>
        <time>2017-06-20T16:03:26Z</time>
      </trkpt>
      <trkpt lat="49.48834" lon="1.08623">
        <ele>129</ele>
        <time>2017-06-20T16:03:26Z</time>
      </trkpt>
      <trkpt lat="49.48831" lon="1.08632">
        <ele>135</ele>
        <time>2017-06-20T16:03:26Z</time>
      </trkpt>
      <trkpt lat="49.48828" lon="1.08639">
        <ele>135</ele>
        <time>2017-06-20T16:03:42Z</time>
      </trkpt>
      <trkpt lat="49.48834" lon="1.08639">
        <ele>135</ele>
        <time>2017-06-20T16:03:42Z</time>
      </trkpt>
      <trkpt lat="49.48842" lon="1.08631">
        <ele>135</ele>
        <time>2017-06-20T16:03:42Z</time>
      </trkpt>
      <trkpt lat="49.48846" lon="1.08624">
        <ele>129</ele>
        <time>2017-06-20T16:03:42Z</time>
      </trkpt>
      <trkpt lat="49.48839" lon="1.08659">
        <ele>135</ele>
        <time>2017-06-20T16:18:10Z</time>
      </trkpt>
      <trkpt lat="49.48843" lon="1.08669">
        <ele>135</ele>
        <time>2017-06-20T16:18:10Z</time>
      </trkpt>
      <trkpt lat="49.48845" lon="1.08671">
        <ele>135</ele>
        <time>2017-06-20T16:18:10Z</time>
      </trkpt>
      <trkpt lat="49.48845" lon="1.08678">
        <ele>135</ele>
        <time>2017-06-20T16:18:10Z</time>
      </trkpt>
      <trkpt lat="49.4885" lon="1.08681">
        <ele>135</ele>
        <time>2017-06-20T16:18:11Z</time>
      </trkpt>
      <trkpt lat="49.48851" lon="1.08684">
        <ele>135</ele>
        <time>2017-06-20T16:18:26Z</time>
      </trkpt>
      <trkpt lat="49.48865" lon="1.08696">
        <ele>135</ele>
        <time>2017-06-20T16:18:26Z</time>
      </trkpt>
      <trkpt lat="49.48867" lon="1.08699">
        <ele>135</ele>
        <time>2017-06-20T16:18:26Z</time>
      </trkpt>
      <trkpt lat="49.48869" lon="1.08704">
        <ele>135</ele>
        <time>2017-06-20T16:18:26Z</time>
      </trkpt>
      <trkpt lat="49.48874" lon="1.08714">
        <ele>145</ele>
        <time>2017-06-20T16:18:45Z</time>
      </trkpt>
      <trkpt lat="49.48877" lon="1.08721">
        <ele>139</ele>
        <time>2017-06-20T16:18:45Z</time>
      </trkpt>
      <trkpt lat="49.48881" lon="1.08731">
        <ele>139</ele>
        <time>2017-06-20T16:18:45Z</time>
      </trkpt>
      <trkpt lat="49.48883" lon="1.08737">
        <ele>139</ele>
        <time>2017-06-20T16:18:45Z</time>
      </trkpt>
      <trkpt lat="49.4889" lon="1.08743">
        <ele>139</ele>
        <time>2017-06-20T16:19:01Z</time>
      </trkpt>
      <trkpt lat="49.48892" lon="1.08747">
        <ele>139</ele>
        <time>2017-06-20T16:19:01Z</time>
      </trkpt>
      <trkpt lat="49.48898" lon="1.08751">
        <ele>139</ele>
        <time>2017-06-20T16:19:01Z</time>
      </trkpt>
      <trkpt lat="49.48909" lon="1.08757">
        <ele>139</ele>
        <time>2017-06-20T16:19:01Z</time>
      </trkpt>
      <trkpt lat="49.48917" lon="1.08762">
        <ele>139</ele>
        <time>2017-06-20T16:19:17Z</time>
      </trkpt>
      <trkpt lat="49.48917" lon="1.0877">
        <ele>139</ele>
        <time>2017-06-20T16:19:17Z</time>
      </trkpt>
      <trkpt lat="49.48913" lon="1.08772">
        <ele>139</ele>
        <time>2017-06-20T16:19:18Z</time>
      </trkpt>
      <trkpt lat="49.48908" lon="1.08776">
        <ele>139</ele>
        <time>2017-06-20T16:19:18Z</time>
      </trkpt>
      <trkpt lat="49.48914" lon="1.08793">
        <ele>143</ele>
        <time>2017-06-20T16:19:47Z</time>
      </trkpt>
      <trkpt lat="49.48915" lon="1.08796">
        <ele>143</ele>
        <time>2017-06-20T16:19:47Z</time>
      </trkpt>
      <trkpt lat="49.48919" lon="1.08801">
        <ele>143</ele>
        <time>2017-06-20T16:19:47Z</time>
      </trkpt>
      <trkpt lat="49.48917" lon="1.08804">
        <ele>143</ele>
        <time>2017-06-20T16:19:47Z</time>
      </trkpt>
      <trkpt lat="49.48922" lon="1.08812">
        <ele>143</ele>
        <time>2017-06-20T16:19:47Z</time>
      </trkpt>
      <trkpt lat="49.48926" lon="1.0882">
        <ele>143</ele>
        <time>2017-06-20T16:20:02Z</time>
      </trkpt>
      <trkpt lat="49.48925" lon="1.08826">
        <ele>143</ele>
        <time>2017-06-20T16:20:02Z</time>
      </trkpt>
      <trkpt lat="49.48926" lon="1.08833">
        <ele>143</ele>
        <time>2017-06-20T16:20:02Z</time>
      </trkpt>
      <trkpt lat="49.48928" lon="1.0884">
        <ele>143</ele>
        <time>2017-06-20T16:20:02Z</time>
      </trkpt>
      <trkpt lat="49.48931" lon="1.08848">
        <ele>143</ele>
        <time>2017-06-20T16:20:17Z</time>
      </trkpt>
      <trkpt lat="49.48933" lon="1.08854">
        <ele>143</ele>
        <time>2017-06-20T16:20:17Z</time>
      </trkpt>
      <trkpt lat="49.48933" lon="1.08867">
        <ele>143</ele>
        <time>2017-06-20T16:20:17Z</time>
      </trkpt>
      <trkpt lat="49.48934" lon="1.08869">
        <ele>143</ele>
        <time>2017-06-20T16:20:17Z</time>
      </trkpt>
      <trkpt lat="49.48935" lon="1.08885">
        <ele>147</ele>
        <time>2017-06-20T16:20:35Z</time>
      </trkpt>
      <trkpt lat="49.48937" lon="1.08891">
        <ele>147</ele>
        <time>2017-06-20T16:20:35Z</time>
      </trkpt>
      <trkpt lat="49.48936" lon="1.08896">
        <ele>147</ele>
        <time>2017-06-20T16:20:36Z</time>
      </trkpt>
      <trkpt lat="49.48934" lon="1.08901">
        <ele>147</ele>
        <time>2017-06-20T16:20:36Z</time>
      </trkpt>
      <trkpt lat="49.48933" lon="1.08902">
        <ele>147</ele>
        <time>2017-06-20T16:20:50Z</time>
      </trkpt>
      <trkpt lat="49.48935" lon="1.08909">
        <ele>147</ele>
        <time>2017-06-20T16:20:50Z</time>
      </trkpt>
      <trkpt lat="49.48935" lon="1.08916">
        <ele>147</ele>
        <time>2017-06-20T16:20:50Z</time>
      </trkpt>
      <trkpt lat="49.48935" lon="1.08921">
        <ele>147</ele>
        <time>2017-06-20T16:20:50Z</time>
      </trkpt>
      <trkpt lat="49.48935" lon="1.08929">
        <ele>147</ele>
        <time>2017-06-20T16:21:05Z</time>
      </trkpt>
      <trkpt lat="49.48935" lon="1.08934">
        <ele>147</ele>
        <time>2017-06-20T16:21:05Z</time>
      </trkpt>
      <trkpt lat="49.4894" lon="1.08948">
        <ele>147</ele>
        <time>2017-06-20T16:21:05Z</time>
      </trkpt>
      <trkpt lat="49.48939" lon="1.08955">
        <ele>147</ele>
        <time>2017-06-20T16:21:05Z</time>
      </trkpt>
      <trkpt lat="49.48938" lon="1.08961">
        <ele>148</ele>
        <time>2017-06-20T16:21:21Z</time>
      </trkpt>
      <trkpt lat="49.48939" lon="1.08971">
        <ele>148</ele>
        <time>2017-06-20T16:21:21Z</time>
      </trkpt>
      <trkpt lat="49.48936" lon="1.08976">
        <ele>148</ele>
        <time>2017-06-20T16:21:21Z</time>
      </trkpt>
      <trkpt lat="49.48937" lon="1.08981">
        <ele>148</ele>
        <time>2017-06-20T16:21:21Z</time>
      </trkpt>
      <trkpt lat="49.48939" lon="1.08988">
        <ele>148</ele>
        <time>2017-06-20T16:21:37Z</time>
      </trkpt>
      <trkpt lat="49.4894" lon="1.09">
        <ele>148</ele>
        <time>2017-06-20T16:21:37Z</time>
      </trkpt>
      <trkpt lat="49.48942" lon="1.09004">
        <ele>148</ele>
        <time>2017-06-20T16:21:37Z</time>
      </trkpt>
      <trkpt lat="49.48938" lon="1.09011">
        <ele>148</ele>
        <time>2017-06-20T16:21:37Z</time>
      </trkpt>
      <trkpt lat="49.48935" lon="1.09019">
        <ele>148</ele>
        <time>2017-06-20T16:21:55Z</time>
      </trkpt>
      <trkpt lat="49.48937" lon="1.09025">
        <ele>148</ele>
        <time>2017-06-20T16:21:55Z</time>
      </trkpt>
      <trkpt lat="49.48941" lon="1.09034">
        <ele>148</ele>
        <time>2017-06-20T16:21:55Z</time>
      </trkpt>
      <trkpt lat="49.48939" lon="1.09041">
        <ele>148</ele>
        <time>2017-06-20T16:21:55Z</time>
      </trkpt>
      <trkpt lat="49.48938" lon="1.09052">
        <ele>150</ele>
        <time>2017-06-20T16:22:10Z</time>
      </trkpt>
      <trkpt lat="49.48932" lon="1.09056">
        <ele>150</ele>
        <time>2017-06-20T16:22:10Z</time>
      </trkpt>
      <trkpt lat="49.48936" lon="1.09063">
        <ele>150</ele>
        <time>2017-06-20T16:22:10Z</time>
      </trkpt>
      <trkpt lat="49.48936" lon="1.09067">
        <ele>150</ele>
        <time>2017-06-20T16:22:10Z</time>
      </trkpt>
      <trkpt lat="49.48937" lon="1.09072">
        <ele>150</ele>
        <time>2017-06-20T16:22:25Z</time>
      </trkpt>
      <trkpt lat="49.48938" lon="1.09078">
        <ele>150</ele>
        <time>2017-06-20T16:22:25Z</time>
      </trkpt>
      <trkpt lat="49.48937" lon="1.09082">
        <ele>150</ele>
        <time>2017-06-20T16:22:25Z</time>
      </trkpt>
      <trkpt lat="49.48938" lon="1.09092">
        <ele>150</ele>
        <time>2017-06-20T16:22:25Z</time>
      </trkpt>
      <trkpt lat="49.48939" lon="1.09097">
        <ele>150</ele>
        <time>2017-06-20T16:22:41Z</time>
      </trkpt>
      <trkpt lat="49.48938" lon="1.09106">
        <ele>150</ele>
        <time>2017-06-20T16:22:41Z</time>
      </trkpt>
      <trkpt lat="49.48939" lon="1.09115">
        <ele>150</ele>
        <time>2017-06-20T16:22:41Z</time>
      </trkpt>
      <trkpt lat="49.48939" lon="1.0912">
        <ele>150</ele>
        <time>2017-06-20T16:22:41Z</time>
      </trkpt>
      <trkpt lat="49.48939" lon="1.09125">
        <ele>150</ele>
        <time>2017-06-20T16:22:58Z</time>
      </trkpt>
      <trkpt lat="49.48941" lon="1.0913">
        <ele>153</ele>
        <time>2017-06-20T16:22:58Z</time>
      </trkpt>
      <trkpt lat="49.48941" lon="1.09136">
        <ele>153</ele>
        <time>2017-06-20T16:22:58Z</time>
      </trkpt>
      <trkpt lat="49.48937" lon="1.0915">
        <ele>153</ele>
        <time>2017-06-20T16:22:58Z</time>
      </trkpt>
      <trkpt lat="49.48934" lon="1.09153">
        <ele>153</ele>
        <time>2017-06-20T16:23:14Z</time>
      </trkpt>
      <trkpt lat="49.48934" lon="1.09164">
        <ele>153</ele>
        <time>2017-06-20T16:23:14Z</time>
      </trkpt>
      <trkpt lat="49.48931" lon="1.09168">
        <ele>153</ele>
        <time>2017-06-20T16:23:14Z</time>
      </trkpt>
      <trkpt lat="49.48934" lon="1.09176">
        <ele>153</ele>
        <time>2017-06-20T16:23:14Z</time>
      </trkpt>
      <trkpt lat="49.48936" lon="1.09181">
        <ele>153</ele>
        <time>2017-06-20T16:23:29Z</time>
      </trkpt>
      <trkpt lat="49.48941" lon="1.09187">
        <ele>153</ele>
        <time>2017-06-20T16:23:29Z</time>
      </trkpt>
      <trkpt lat="49.48948" lon="1.09195">
        <ele>153</ele>
        <time>2017-06-20T16:23:29Z</time>
      </trkpt>
      <trkpt lat="49.48953" lon="1.09201">
        <ele>153</ele>
        <time>2017-06-20T16:23:30Z</time>
      </trkpt>
      <trkpt lat="49.48953" lon="1.09208">
        <ele>153</ele>
        <time>2017-06-20T16:23:47Z</time>
      </trkpt>
      <trkpt lat="49.48958" lon="1.09216">
        <ele>157</ele>
        <time>2017-06-20T16:23:47Z</time>
      </trkpt>
      <trkpt lat="49.48957" lon="1.09222">
        <ele>157</ele>
        <time>2017-06-20T16:23:47Z</time>
      </trkpt>
      <trkpt lat="49.48956" lon="1.0923">
        <ele>157</ele>
        <time>2017-06-20T16:23:47Z</time>
      </trkpt>
      <trkpt lat="49.48966" lon="1.09237">
        <ele>153</ele>
        <time>2017-06-20T16:24:11Z</time>
      </trkpt>
      <trkpt lat="49.48964" lon="1.09242">
        <ele>153</ele>
        <time>2017-06-20T16:24:11Z</time>
      </trkpt>
      <trkpt lat="49.48967" lon="1.09243">
        <ele>153</ele>
        <time>2017-06-20T16:24:11Z</time>
      </trkpt>
      <trkpt lat="49.48971" lon="1.09247">
        <ele>153</ele>
        <time>2017-06-20T16:24:11Z</time>
      </trkpt>
      <trkpt lat="49.48978" lon="1.09257">
        <ele>153</ele>
        <time>2017-06-20T16:24:11Z</time>
      </trkpt>
      <trkpt lat="49.48985" lon="1.09276">
        <ele>153</ele>
        <time>2017-06-20T16:24:45Z</time>
      </trkpt>
      <trkpt lat="49.48985" lon="1.09277">
        <ele>153</ele>
        <time>2017-06-20T16:24:46Z</time>
      </trkpt>
      <trkpt lat="49.48991" lon="1.09283">
        <ele>153</ele>
        <time>2017-06-20T16:24:46Z</time>
      </trkpt>
      <trkpt lat="49.48994" lon="1.09287">
        <ele>153</ele>
        <time>2017-06-20T16:24:46Z</time>
      </trkpt>
      <trkpt lat="49.48994" lon="1.09288">
        <ele>153</ele>
        <time>2017-06-20T16:24:46Z</time>
      </trkpt>
      <trkpt lat="49.49" lon="1.09292">
        <ele>159</ele>
        <time>2017-06-20T16:25:53Z</time>
      </trkpt>
      <trkpt lat="49.49001" lon="1.09291">
        <ele>153</ele>
        <time>2017-06-20T16:25:53Z</time>
      </trkpt>
      <trkpt lat="49.49002" lon="1.09291">
        <ele>153</ele>
        <time>2017-06-20T16:25:53Z</time>
      </trkpt>
      <trkpt lat="49.49003" lon="1.09291">
        <ele>153</ele>
        <time>2017-06-20T16:25:53Z</time>
      </trkpt>
      <trkpt lat="49.49008" lon="1.0929">
        <ele>153</ele>
        <time>2017-06-20T16:25:53Z</time>
      </trkpt>
      <trkpt lat="49.49016" lon="1.09292">
        <ele>159</ele>
        <time>2017-06-20T16:26:14Z</time>
      </trkpt>
      <trkpt lat="49.4902" lon="1.0929">
        <ele>153</ele>
        <time>2017-06-20T16:26:14Z</time>
      </trkpt>
      <trkpt lat="49.49019" lon="1.09287">
        <ele>153</ele>
        <time>2017-06-20T16:26:14Z</time>
      </trkpt>
      <trkpt lat="49.49022" lon="1.09284">
        <ele>153</ele>
        <time>2017-06-20T16:26:14Z</time>
      </trkpt>
      <trkpt lat="49.49024" lon="1.09282">
        <ele>153</ele>
        <time>2017-06-20T16:26:14Z</time>
      </trkpt>
      <trkpt lat="49.49028" lon="1.09289">
        <ele>153</ele>
        <time>2017-06-20T16:26:51Z</time>
      </trkpt>
      <trkpt lat="49.49027" lon="1.0929">
        <ele>153</ele>
        <time>2017-06-20T16:26:51Z</time>
      </trkpt>
      <trkpt lat="49.49027" lon="1.0929">
        <ele>153</ele>
        <time>2017-06-20T16:26:51Z</time>
      </trkpt>
      <trkpt lat="49.49028" lon="1.09292">
        <ele>159</ele>
        <time>2017-06-20T16:26:51Z</time>
      </trkpt>
      <trkpt lat="49.49029" lon="1.09301">
        <ele>159</ele>
        <time>2017-06-20T16:26:51Z</time>
      </trkpt>
      <trkpt lat="49.49027" lon="1.09305">
        <ele>159</ele>
        <time>2017-06-20T16:27:06Z</time>
      </trkpt>
      <trkpt lat="49.49029" lon="1.09308">
        <ele>159</ele>
        <time>2017-06-20T16:27:06Z</time>
      </trkpt>
      <trkpt lat="49.49038" lon="1.09319">
        <ele>159</ele>
        <time>2017-06-20T16:27:06Z</time>
      </trkpt>
      <trkpt lat="49.49038" lon="1.0932">
        <ele>159</ele>
        <time>2017-06-20T16:27:06Z</time>
      </trkpt>
      <trkpt lat="49.4904" lon="1.09329">
        <ele>159</ele>
        <time>2017-06-20T16:27:22Z</time>
      </trkpt>
      <trkpt lat="49.49042" lon="1.09337">
        <ele>161</ele>
        <time>2017-06-20T16:27:22Z</time>
      </trkpt>
      <trkpt lat="49.49043" lon="1.09341">
        <ele>161</ele>
        <time>2017-06-20T16:27:22Z</time>
      </trkpt>
      <trkpt lat="49.49044" lon="1.09343">
        <ele>161</ele>
        <time>2017-06-20T16:27:22Z</time>
      </trkpt>
      <trkpt lat="49.49045" lon="1.09347">
        <ele>161</ele>
        <time>2017-06-20T16:27:41Z</time>
      </trkpt>
      <trkpt lat="49.49046" lon="1.09348">
        <ele>161</ele>
        <time>2017-06-20T16:27:42Z</time>
      </trkpt>
      <trkpt lat="49.49047" lon="1.09351">
        <ele>161</ele>
        <time>2017-06-20T16:27:42Z</time>
      </trkpt>
      <trkpt lat="49.49047" lon="1.09355">
        <ele>161</ele>
        <time>2017-06-20T16:27:42Z</time>
      </trkpt>
      <trkpt lat="49.49048" lon="1.09363">
        <ele>161</ele>
        <time>2017-06-20T16:27:42Z</time>
      </trkpt>
      <trkpt lat="49.49049" lon="1.0938">
        <ele>163</ele>
        <time>2017-06-20T16:27:58Z</time>
      </trkpt>
      <trkpt lat="49.49051" lon="1.09389">
        <ele>163</ele>
        <time>2017-06-20T16:27:58Z</time>
      </trkpt>
      <trkpt lat="49.49051" lon="1.09396">
        <ele>163</ele>
        <time>2017-06-20T16:27:58Z</time>
      </trkpt>
      <trkpt lat="49.49054" lon="1.09401">
        <ele>163</ele>
        <time>2017-06-20T16:27:58Z</time>
      </trkpt>
      <trkpt lat="49.49057" lon="1.09404">
        <ele>163</ele>
        <time>2017-06-20T16:28:14Z</time>
      </trkpt>
      <trkpt lat="49.49058" lon="1.09414">
        <ele>163</ele>
        <time>2017-06-20T16:28:14Z</time>
      </trkpt>
      <trkpt lat="49.49059" lon="1.09425">
        <ele>163</ele>
        <time>2017-06-20T16:28:14Z</time>
      </trkpt>
      <trkpt lat="49.49058" lon="1.09434">
        <ele>163</ele>
        <time>2017-06-20T16:28:14Z</time>
      </trkpt>
      <trkpt lat="49.49061" lon="1.09464">
        <ele>161</ele>
        <time>2017-06-20T16:28:38Z</time>
      </trkpt>
      <trkpt lat="49.49061" lon="1.0947">
        <ele>161</ele>
        <time>2017-06-20T16:28:38Z</time>
      </trkpt>
      <trkpt lat="49.49062" lon="1.09477">
        <ele>161</ele>
        <time>2017-06-20T16:28:38Z</time>
      </trkpt>
      <trkpt lat="49.49063" lon="1.09485">
        <ele>161</ele>
        <time>2017-06-20T16:28:38Z</time>
      </trkpt>
      <trkpt lat="49.49064" lon="1.09489">
        <ele>161</ele>
        <time>2017-06-20T16:28:53Z</time>
      </trkpt>
      <trkpt lat="49.49073" lon="1.095">
        <ele>161</ele>
        <time>2017-06-20T16:28:53Z</time>
      </trkpt>
      <trkpt lat="49.49075" lon="1.09507">
        <ele>161</ele>
        <time>2017-06-20T16:28:53Z</time>
      </trkpt>
      <trkpt lat="49.49075" lon="1.09509">
        <ele>161</ele>
        <time>2017-06-20T16:28:53Z</time>
      </trkpt>
      <trkpt lat="49.49076" lon="1.09514">
        <ele>161</ele>
        <time>2017-06-20T16:29:10Z</time>
      </trkpt>
      <trkpt lat="49.49076" lon="1.0952">
        <ele>161</ele>
        <time>2017-06-20T16:29:10Z</time>
      </trkpt>
      <trkpt lat="49.49077" lon="1.09527">
        <ele>161</ele>
        <time>2017-06-20T16:29:10Z</time>
      </trkpt>
      <trkpt lat="49.49077" lon="1.0953">
        <ele>161</ele>
        <time>2017-06-20T16:29:10Z</time>
      </trkpt>
      <trkpt lat="49.49078" lon="1.09532">
        <ele>161</ele>
        <time>2017-06-20T16:29:26Z</time>
      </trkpt>
      <trkpt lat="49.49083" lon="1.09546">
        <ele>161</ele>
        <time>2017-06-20T16:29:26Z</time>
      </trkpt>
      <trkpt lat="49.49092" lon="1.09563">
        <ele>161</ele>
        <time>2017-06-20T16:29:26Z</time>
      </trkpt>
      <trkpt lat="49.49096" lon="1.0957">
        <ele>161</ele>
        <time>2017-06-20T16:29:27Z</time>
      </trkpt>
      <trkpt lat="49.49095" lon="1.09572">
        <ele>161</ele>
        <time>2017-06-20T16:29:43Z</time>
      </trkpt>
      <trkpt lat="49.49092" lon="1.09573">
        <ele>161</ele>
        <time>2017-06-20T16:29:43Z</time>
      </trkpt>
      <trkpt lat="49.49092" lon="1.09573">
        <ele>161</ele>
        <time>2017-06-20T16:29:43Z</time>
      </trkpt>
      <trkpt lat="49.49084" lon="1.09573">
        <ele>161</ele>
        <time>2017-06-20T16:29:43Z</time>
      </trkpt>
      <trkpt lat="49.4907" lon="1.09577">
        <ele>161</ele>
        <time>2017-06-20T16:30:02Z</time>
      </trkpt>
      <trkpt lat="49.49064" lon="1.09575">
        <ele>161</ele>
        <time>2017-06-20T16:30:02Z</time>
      </trkpt>
      <trkpt lat="49.49059" lon="1.09575">
        <ele>161</ele>
        <time>2017-06-20T16:30:02Z</time>
      </trkpt>
      <trkpt lat="49.49053" lon="1.09574">
        <ele>161</ele>
        <time>2017-06-20T16:30:02Z</time>
      </trkpt>
      <trkpt lat="49.49039" lon="1.09572">
        <ele>161</ele>
        <time>2017-06-20T16:30:34Z</time>
      </trkpt>
      <trkpt lat="49.49036" lon="1.09572">
        <ele>161</ele>
        <time>2017-06-20T16:30:34Z</time>
      </trkpt>
      <trkpt lat="49.49033" lon="1.09574">
        <ele>161</ele>
        <time>2017-06-20T16:30:34Z</time>
      </trkpt>
      <trkpt lat="49.49029" lon="1.09575">
        <ele>161</ele>
        <time>2017-06-20T16:30:34Z</time>
      </trkpt>
      <trkpt lat="49.49029" lon="1.09577">
        <ele>161</ele>
        <time>2017-06-20T16:30:34Z</time>
      </trkpt>
      <trkpt lat="49.49025" lon="1.09579">
        <ele>161</ele>
        <time>2017-06-20T16:30:50Z</time>
      </trkpt>
      <trkpt lat="49.49021" lon="1.09581">
        <ele>161</ele>
        <time>2017-06-20T16:30:50Z</time>
      </trkpt>
      <trkpt lat="49.49013" lon="1.09585">
        <ele>161</ele>
        <time>2017-06-20T16:30:50Z</time>
      </trkpt>
      <trkpt lat="49.49011" lon="1.09586">
        <ele>161</ele>
        <time>2017-06-20T16:30:50Z</time>
      </trkpt>
      <trkpt lat="49.48997" lon="1.09586">
        <ele>161</ele>
        <time>2017-06-20T16:31:11Z</time>
      </trkpt>
      <trkpt lat="49.48991" lon="1.09588">
        <ele>161</ele>
        <time>2017-06-20T16:31:14Z</time>
      </trkpt>
      <trkpt lat="49.48982" lon="1.09592">
        <ele>161</ele>
        <time>2017-06-20T16:31:14Z</time>
      </trkpt>
      <trkpt lat="49.48981" lon="1.09592">
        <ele>161</ele>
        <time>2017-06-20T16:31:14Z</time>
      </trkpt>
      <trkpt lat="49.48971" lon="1.09593">
        <ele>161</ele>
        <time>2017-06-20T16:31:29Z</time>
      </trkpt>
      <trkpt lat="49.48966" lon="1.09597">
        <ele>161</ele>
        <time>2017-06-20T16:31:30Z</time>
      </trkpt>
      <trkpt lat="49.4896" lon="1.09592">
        <ele>161</ele>
        <time>2017-06-20T16:31:30Z</time>
      </trkpt>
      <trkpt lat="49.48953" lon="1.09585">
        <ele>164</ele>
        <time>2017-06-20T16:31:30Z</time>
      </trkpt>
      <trkpt lat="49.48948" lon="1.09583">
        <ele>164</ele>
        <time>2017-06-20T16:31:46Z</time>
      </trkpt>
      <trkpt lat="49.48946" lon="1.09583">
        <ele>164</ele>
        <time>2017-06-20T16:31:46Z</time>
      </trkpt>
      <trkpt lat="49.48942" lon="1.09584">
        <ele>164</ele>
        <time>2017-06-20T16:31:46Z</time>
      </trkpt>
      <trkpt lat="49.48938" lon="1.09583">
        <ele>164</ele>
        <time>2017-06-20T16:31:46Z</time>
      </trkpt>
      <trkpt lat="49.4893" lon="1.09598">
        <ele>164</ele>
        <time>2017-06-20T16:32:17Z</time>
      </trkpt>
      <trkpt lat="49.48918" lon="1.09602">
        <ele>164</ele>
        <time>2017-06-20T16:32:17Z</time>
      </trkpt>
      <trkpt lat="49.48915" lon="1.096">
        <ele>164</ele>
        <time>2017-06-20T16:32:17Z</time>
      </trkpt>
      <trkpt lat="49.48914" lon="1.09594">
        <ele>164</ele>
        <time>2017-06-20T16:32:17Z</time>
      </trkpt>
      <trkpt lat="49.4891" lon="1.09592">
        <ele>164</ele>
        <time>2017-06-20T16:32:17Z</time>
      </trkpt>
      <trkpt lat="49.489" lon="1.09591">
        <ele>164</ele>
        <time>2017-06-20T16:33:07Z</time>
      </trkpt>
      <trkpt lat="49.489" lon="1.09591">
        <ele>164</ele>
        <time>2017-06-20T16:33:08Z</time>
      </trkpt>
      <trkpt lat="49.489" lon="1.09591">
        <ele>164</ele>
        <time>2017-06-20T16:33:08Z</time>
      </trkpt>
      <trkpt lat="49.489" lon="1.09591">
        <ele>164</ele>
        <time>2017-06-20T16:33:08Z</time>
      </trkpt>
      <trkpt lat="49.48892" lon="1.09591">
        <ele>164</ele>
        <time>2017-06-20T16:33:08Z</time>
      </trkpt>
      <trkpt lat="49.4889" lon="1.09591">
        <ele>164</ele>
        <time>2017-06-20T16:33:38Z</time>
      </trkpt>
      <trkpt lat="49.48889" lon="1.0959">
        <ele>164</ele>
        <time>2017-06-20T16:33:39Z</time>
      </trkpt>
      <trkpt lat="49.48886" lon="1.09593">
        <ele>164</ele>
        <time>2017-06-20T16:33:39Z</time>
      </trkpt>
      <trkpt lat="49.48883" lon="1.09597">
        <ele>164</ele>
        <time>2017-06-20T16:33:39Z</time>
      </trkpt>
      <trkpt lat="49.48879" lon="1.096">
        <ele>164</ele>
        <time>2017-06-20T16:33:39Z</time>
      </trkpt>
      <trkpt lat="49.48857" lon="1.09601">
        <ele>166</ele>
        <time>2017-06-20T16:34:07Z</time>
      </trkpt>
      <trkpt lat="49.48856" lon="1.09601">
        <ele>166</ele>
        <time>2017-06-20T16:34:07Z</time>
      </trkpt>
      <trkpt lat="49.48845" lon="1.09599">
        <ele>166</ele>
        <time>2017-06-20T16:34:07Z</time>
      </trkpt>
      <trkpt lat="49.48839" lon="1.09592">
        <ele>166</ele>
        <time>2017-06-20T16:34:07Z</time>
      </trkpt>
      <trkpt lat="49.48837" lon="1.0959">
        <ele>166</ele>
        <time>2017-06-20T16:34:23Z</time>
      </trkpt>
      <trkpt lat="49.48834" lon="1.09582">
        <ele>166</ele>
        <time>2017-06-20T16:34:23Z</time>
      </trkpt>
      <trkpt lat="49.48829" lon="1.0958">
        <ele>166</ele>
        <time>2017-06-20T16:34:23Z</time>
      </trkpt>
      <trkpt lat="49.48826" lon="1.09578">
        <ele>166</ele>
        <time>2017-06-20T16:34:23Z</time>
      </trkpt>
      <trkpt lat="49.48826" lon="1.09572">
        <ele>166</ele>
        <time>2017-06-20T16:34:39Z</time>
      </trkpt>
      <trkpt lat="49.48823" lon="1.09569">
        <ele>166</ele>
        <time>2017-06-20T16:34:39Z</time>
      </trkpt>
      <trkpt lat="49.48819" lon="1.09565">
        <ele>166</ele>
        <time>2017-06-20T16:34:39Z</time>
      </trkpt>
      <trkpt lat="49.48813" lon="1.09565">
        <ele>166</ele>
        <time>2017-06-20T16:34:39Z</time>
      </trkpt>
      <trkpt lat="49.48804" lon="1.09565">
        <ele>166</ele>
        <time>2017-06-20T16:34:58Z</time>
      </trkpt>
      <trkpt lat="49.48802" lon="1.09568">
        <ele>166</ele>
        <time>2017-06-20T16:34:58Z</time>
      </trkpt>
      <trkpt lat="49.48797" lon="1.0957">
        <ele>166</ele>
        <time>2017-06-20T16:34:58Z</time>
      </trkpt>
      <trkpt lat="49.48793" lon="1.09571">
        <ele>166</ele>
        <time>2017-06-20T16:34:58Z</time>
      </trkpt>
      <trkpt lat="49.4879" lon="1.09573">
        <ele>169</ele>
        <time>2017-06-20T16:35:19Z</time>
      </trkpt>
      <trkpt lat="49.48789" lon="1.09575">
        <ele>169</ele>
        <time>2017-06-20T16:35:19Z</time>
      </trkpt>
      <trkpt lat="49.48789" lon="1.0958">
        <ele>169</ele>
        <time>2017-06-20T16:35:19Z</time>
      </trkpt>
      <trkpt lat="49.48786" lon="1.09579">
        <ele>169</ele>
        <time>2017-06-20T16:35:19Z</time>
      </trkpt>
      <trkpt lat="49.4878" lon="1.09582">
        <ele>169</ele>
        <time>2017-06-20T16:35:19Z</time>
      </trkpt>
      <trkpt lat="49.48778" lon="1.09582">
        <ele>169</ele>
        <time>2017-06-20T16:35:39Z</time>
      </trkpt>
      <trkpt lat="49.48777" lon="1.09583">
        <ele>169</ele>
        <time>2017-06-20T16:35:39Z</time>
      </trkpt>
      <trkpt lat="49.48774" lon="1.09586">
        <ele>169</ele>
        <time>2017-06-20T16:35:39Z</time>
      </trkpt>
      <trkpt lat="49.48772" lon="1.0959">
        <ele>169</ele>
        <time>2017-06-20T16:35:39Z</time>
      </trkpt>
      <trkpt lat="49.48775" lon="1.09597">
        <ele>169</ele>
        <time>2017-06-20T16:35:39Z</time>
      </trkpt>
      <trkpt lat="49.4877" lon="1.09601">
        <ele>169</ele>
        <time>2017-06-20T16:35:53Z</time>
      </trkpt>
      <trkpt lat="49.48765" lon="1.09608">
        <ele>169</ele>
        <time>2017-06-20T16:35:54Z</time>
      </trkpt>
      <trkpt lat="49.48762" lon="1.09611">
        <ele>169</ele>
        <time>2017-06-20T16:35:54Z</time>
      </trkpt>
      <trkpt lat="49.48759" lon="1.09615">
        <ele>169</ele>
        <time>2017-06-20T16:35:54Z</time>
      </trkpt>
      <trkpt lat="49.48754" lon="1.09621">
        <ele>169</ele>
        <time>2017-06-20T16:36:11Z</time>
      </trkpt>
      <trkpt lat="49.48751" lon="1.09624">
        <ele>169</ele>
        <time>2017-06-20T16:36:11Z</time>
      </trkpt>
      <trkpt lat="49.48749" lon="1.09629">
        <ele>169</ele>
        <time>2017-06-20T16:36:11Z</time>
      </trkpt>
      <trkpt lat="49.48744" lon="1.09632">
        <ele>169</ele>
        <time>2017-06-20T16:36:11Z</time>
      </trkpt>
      <trkpt lat="49.48751" lon="1.09659">
        <ele>169</ele>
        <time>2017-06-20T16:36:35Z</time>
      </trkpt>
      <trkpt lat="49.48748" lon="1.09661">
        <ele>169</ele>
        <time>2017-06-20T16:36:35Z</time>
      </trkpt>
      <trkpt lat="49.48741" lon="1.09667">
        <ele>169</ele>
        <time>2017-06-20T16:36:35Z</time>
      </trkpt>
      <trkpt lat="49.48736" lon="1.09669">
        <ele>169</ele>
        <time>2017-06-20T16:36:35Z</time>
      </trkpt>
      <trkpt lat="49.48732" lon="1.09672">
        <ele>169</ele>
        <time>2017-06-20T16:36:50Z</time>
      </trkpt>
      <trkpt lat="49.48731" lon="1.09677">
        <ele>169</ele>
        <time>2017-06-20T16:36:50Z</time>
      </trkpt>
      <trkpt lat="49.48724" lon="1.09681">
        <ele>169</ele>
        <time>2017-06-20T16:36:50Z</time>
      </trkpt>
      <trkpt lat="49.48723" lon="1.09681">
        <ele>169</ele>
        <time>2017-06-20T16:36:50Z</time>
      </trkpt>
      <trkpt lat="49.4872" lon="1.09681">
        <ele>169</ele>
        <time>2017-06-20T16:37:06Z</time>
      </trkpt>
      <trkpt lat="49.4872" lon="1.09682">
        <ele>169</ele>
        <time>2017-06-20T16:37:06Z</time>
      </trkpt>
      <trkpt lat="49.4872" lon="1.09683">
        <ele>169</ele>
        <time>2017-06-20T16:37:06Z</time>
      </trkpt>
      <trkpt lat="49.4871" lon="1.09689">
        <ele>169</ele>
        <time>2017-06-20T16:37:06Z</time>
      </trkpt>
      <trkpt lat="49.48707" lon="1.09691">
        <ele>173</ele>
        <time>2017-06-20T16:37:22Z</time>
      </trkpt>
      <trkpt lat="49.48701" lon="1.09698">
        <ele>173</ele>
        <time>2017-06-20T16:37:22Z</time>
      </trkpt>
      <trkpt lat="49.48702" lon="1.09707">
        <ele>173</ele>
        <time>2017-06-20T16:37:22Z</time>
      </trkpt>
      <trkpt lat="49.48699" lon="1.09711">
        <ele>171</ele>
        <time>2017-06-20T16:37:22Z</time>
      </trkpt>
      <trkpt lat="49.487" lon="1.09721">
        <ele>171</ele>
        <time>2017-06-20T16:37:39Z</time>
      </trkpt>
      <trkpt lat="49.48701" lon="1.09728">
        <ele>171</ele>
        <time>2017-06-20T16:37:39Z</time>
      </trkpt>
      <trkpt lat="49.48698" lon="1.09735">
        <ele>171</ele>
        <time>2017-06-20T16:37:39Z</time>
      </trkpt>
      <trkpt lat="49.48696" lon="1.09744">
        <ele>171</ele>
        <time>2017-06-20T16:37:39Z</time>
      </trkpt>
      <trkpt lat="49.48697" lon="1.09747">
        <ele>171</ele>
        <time>2017-06-20T16:37:57Z</time>
      </trkpt>
      <trkpt lat="49.48699" lon="1.0976">
        <ele>171</ele>
        <time>2017-06-20T16:37:57Z</time>
      </trkpt>
      <trkpt lat="49.48702" lon="1.09765">
        <ele>171</ele>
        <time>2017-06-20T16:37:57Z</time>
      </trkpt>
      <trkpt lat="49.48702" lon="1.09766">
        <ele>171</ele>
        <time>2017-06-20T16:37:57Z</time>
      </trkpt>
      <trkpt lat="49.48706" lon="1.0977">
        <ele>171</ele>
        <time>2017-06-20T16:38:14Z</time>
      </trkpt>
      <trkpt lat="49.48708" lon="1.09774">
        <ele>169</ele>
        <time>2017-06-20T16:38:14Z</time>
      </trkpt>
      <trkpt lat="49.48713" lon="1.09776">
        <ele>169</ele>
        <time>2017-06-20T16:38:14Z</time>
      </trkpt>
      <trkpt lat="49.48716" lon="1.09778">
        <ele>169</ele>
        <time>2017-06-20T16:38:14Z</time>
      </trkpt>
      <trkpt lat="49.48728" lon="1.09783">
        <ele>169</ele>
        <time>2017-06-20T16:38:34Z</time>
      </trkpt>
      <trkpt lat="49.48732" lon="1.09787">
        <ele>169</ele>
        <time>2017-06-20T16:38:34Z</time>
      </trkpt>
      <trkpt lat="49.48736" lon="1.09793">
        <ele>172</ele>
        <time>2017-06-20T16:38:34Z</time>
      </trkpt>
      <trkpt lat="49.48741" lon="1.09797">
        <ele>172</ele>
        <time>2017-06-20T16:38:34Z</time>
      </trkpt>
      <trkpt lat="49.48745" lon="1.09799">
        <ele>172</ele>
        <time>2017-06-20T16:38:51Z</time>
      </trkpt>
      <trkpt lat="49.4875" lon="1.09807">
        <ele>172</ele>
        <time>2017-06-20T16:38:51Z</time>
      </trkpt>
      <trkpt lat="49.48756" lon="1.09809">
        <ele>172</ele>
        <time>2017-06-20T16:38:51Z</time>
      </trkpt>
      <trkpt lat="49.4876" lon="1.09806">
        <ele>172</ele>
        <time>2017-06-20T16:38:51Z</time>
      </trkpt>
      <trkpt lat="49.48764" lon="1.0981">
        <ele>172</ele>
        <time>2017-06-20T16:39:06Z</time>
      </trkpt>
      <trkpt lat="49.48772" lon="1.09815">
        <ele>172</ele>
        <time>2017-06-20T16:39:06Z</time>
      </trkpt>
      <trkpt lat="49.48777" lon="1.09813">
        <ele>172</ele>
        <time>2017-06-20T16:39:06Z</time>
      </trkpt>
      <trkpt lat="49.48779" lon="1.09811">
        <ele>172</ele>
        <time>2017-06-20T16:39:06Z</time>
      </trkpt>
      <trkpt lat="49.48782" lon="1.09812">
        <ele>172</ele>
        <time>2017-06-20T16:39:22Z</time>
      </trkpt>
      <trkpt lat="49.48786" lon="1.09822">
        <ele>172</ele>
        <time>2017-06-20T16:39:22Z</time>
      </trkpt>
      <trkpt lat="49.4879" lon="1.09819">
        <ele>172</ele>
        <time>2017-06-20T16:39:23Z</time>
      </trkpt>
      <trkpt lat="49.48795" lon="1.09819">
        <ele>169</ele>
        <time>2017-06-20T16:39:23Z</time>
      </trkpt>
      <trkpt lat="49.48802" lon="1.09824">
        <ele>169</ele>
        <time>2017-06-20T16:39:39Z</time>
      </trkpt>
      <trkpt lat="49.48807" lon="1.09824">
        <ele>169</ele>
        <time>2017-06-20T16:39:39Z</time>
      </trkpt>
      <trkpt lat="49.48812" lon="1.09827">
        <ele>169</ele>
        <time>2017-06-20T16:39:39Z</time>
      </trkpt>
      <trkpt lat="49.48817" lon="1.09829">
        <ele>169</ele>
        <time>2017-06-20T16:39:39Z</time>
      </trkpt>
      <trkpt lat="49.4882" lon="1.09833">
        <ele>169</ele>
        <time>2017-06-20T16:39:54Z</time>
      </trkpt>
      <trkpt lat="49.48825" lon="1.09834">
        <ele>169</ele>
        <time>2017-06-20T16:39:54Z</time>
      </trkpt>
      <trkpt lat="49.48829" lon="1.09835">
        <ele>169</ele>
        <time>2017-06-20T16:39:54Z</time>
      </trkpt>
      <trkpt lat="49.48835" lon="1.09832">
        <ele>169</ele>
        <time>2017-06-20T16:39:54Z</time>
      </trkpt>
      <trkpt lat="49.4884" lon="1.0983">
        <ele>169</ele>
        <time>2017-06-20T16:40:19Z</time>
      </trkpt>
      <trkpt lat="49.48843" lon="1.09831">
        <ele>169</ele>
        <time>2017-06-20T16:40:19Z</time>
      </trkpt>
      <trkpt lat="49.48844" lon="1.09828">
        <ele>169</ele>
        <time>2017-06-20T16:40:19Z</time>
      </trkpt>
      <trkpt lat="49.48846" lon="1.09829">
        <ele>169</ele>
        <time>2017-06-20T16:40:19Z</time>
      </trkpt>
      <trkpt lat="49.48853" lon="1.0983">
        <ele>169</ele>
        <time>2017-06-20T16:40:19Z</time>
      </trkpt>
      <trkpt lat="49.48858" lon="1.09829">
        <ele>169</ele>
        <time>2017-06-20T16:40:41Z</time>
      </trkpt>
      <trkpt lat="49.48861" lon="1.09834">
        <ele>169</ele>
        <time>2017-06-20T16:40:42Z</time>
      </trkpt>
      <trkpt lat="49.48863" lon="1.09835">
        <ele>169</ele>
        <time>2017-06-20T16:40:42Z</time>
      </trkpt>
      <trkpt lat="49.48863" lon="1.0984">
        <ele>169</ele>
        <time>2017-06-20T16:40:42Z</time>
      </trkpt>
      <trkpt lat="49.48864" lon="1.09845">
        <ele>169</ele>
        <time>2017-06-20T16:40:42Z</time>
      </trkpt>
      <trkpt lat="49.48868" lon="1.09851">
        <ele>169</ele>
        <time>2017-06-20T16:40:57Z</time>
      </trkpt>
      <trkpt lat="49.48877" lon="1.09866">
        <ele>168</ele>
        <time>2017-06-20T16:40:57Z</time>
      </trkpt>
      <trkpt lat="49.48877" lon="1.09871">
        <ele>168</ele>
        <time>2017-06-20T16:40:57Z</time>
      </trkpt>
      <trkpt lat="49.48877" lon="1.09873">
        <ele>168</ele>
        <time>2017-06-20T16:40:57Z</time>
      </trkpt>
      <trkpt lat="49.48876" lon="1.0988">
        <ele>167</ele>
        <time>2017-06-20T16:41:14Z</time>
      </trkpt>
      <trkpt lat="49.48875" lon="1.09883">
        <ele>169</ele>
        <time>2017-06-20T16:41:14Z</time>
      </trkpt>
      <trkpt lat="49.48873" lon="1.09886">
        <ele>169</ele>
        <time>2017-06-20T16:41:15Z</time>
      </trkpt>
      <trkpt lat="49.48862" lon="1.09892">
        <ele>169</ele>
        <time>2017-06-20T16:41:15Z</time>
      </trkpt>
      <trkpt lat="49.48864" lon="1.09899">
        <ele>169</ele>
        <time>2017-06-20T16:41:31Z</time>
      </trkpt>
      <trkpt lat="49.48866" lon="1.09906">
        <ele>169</ele>
        <time>2017-06-20T16:41:31Z</time>
      </trkpt>
      <trkpt lat="49.48868" lon="1.09914">
        <ele>169</ele>
        <time>2017-06-20T16:41:31Z</time>
      </trkpt>
      <trkpt lat="49.48873" lon="1.09918">
        <ele>169</ele>
        <time>2017-06-20T16:41:31Z</time>
      </trkpt>
      <trkpt lat="49.48875" lon="1.09921">
        <ele>167</ele>
        <time>2017-06-20T16:41:46Z</time>
      </trkpt>
      <trkpt lat="49.48878" lon="1.09926">
        <ele>167</ele>
        <time>2017-06-20T16:41:46Z</time>
      </trkpt>
      <trkpt lat="49.48884" lon="1.09929">
        <ele>167</ele>
        <time>2017-06-20T16:41:46Z</time>
      </trkpt>
      <trkpt lat="49.4889" lon="1.09932">
        <ele>167</ele>
        <time>2017-06-20T16:41:46Z</time>
      </trkpt>
      <trkpt lat="49.48892" lon="1.09932">
        <ele>167</ele>
        <time>2017-06-20T16:42:01Z</time>
      </trkpt>
      <trkpt lat="49.48896" lon="1.09932">
        <ele>167</ele>
        <time>2017-06-20T16:42:02Z</time>
      </trkpt>
      <trkpt lat="49.489" lon="1.09936">
        <ele>167</ele>
        <time>2017-06-20T16:42:02Z</time>
      </trkpt>
      <trkpt lat="49.48901" lon="1.09937">
        <ele>167</ele>
        <time>2017-06-20T16:42:02Z</time>
      </trkpt>
      <trkpt lat="49.48909" lon="1.09937">
        <ele>167</ele>
        <time>2017-06-20T16:42:18Z</time>
      </trkpt>
      <trkpt lat="49.48914" lon="1.09938">
        <ele>167</ele>
        <time>2017-06-20T16:42:18Z</time>
      </trkpt>
      <trkpt lat="49.4892" lon="1.09935">
        <ele>167</ele>
        <time>2017-06-20T16:42:19Z</time>
      </trkpt>
      <trkpt lat="49.48923" lon="1.09934">
        <ele>167</ele>
        <time>2017-06-20T16:42:19Z</time>
      </trkpt>
      <trkpt lat="49.48928" lon="1.09933">
        <ele>167</ele>
        <time>2017-06-20T16:42:38Z</time>
      </trkpt>
      <trkpt lat="49.4893" lon="1.09929">
        <ele>167</ele>
        <time>2017-06-20T16:42:38Z</time>
      </trkpt>
      <trkpt lat="49.48933" lon="1.09928">
        <ele>167</ele>
        <time>2017-06-20T16:42:38Z</time>
      </trkpt>
      <trkpt lat="49.48934" lon="1.09928">
        <ele>167</ele>
        <time>2017-06-20T16:42:38Z</time>
      </trkpt>
      <trkpt lat="49.4894" lon="1.09931">
        <ele>167</ele>
        <time>2017-06-20T16:42:38Z</time>
      </trkpt>
      <trkpt lat="49.48954" lon="1.09937">
        <ele>167</ele>
        <time>2017-06-20T16:43:01Z</time>
      </trkpt>
      <trkpt lat="49.48957" lon="1.09938">
        <ele>167</ele>
        <time>2017-06-20T16:43:02Z</time>
      </trkpt>
      <trkpt lat="49.48962" lon="1.09938">
        <ele>167</ele>
        <time>2017-06-20T16:43:02Z</time>
      </trkpt>
      <trkpt lat="49.48964" lon="1.09936">
        <ele>167</ele>
        <time>2017-06-20T16:43:02Z</time>
      </trkpt>
      <trkpt lat="49.48969" lon="1.09935">
        <ele>167</ele>
        <time>2017-06-20T16:43:19Z</time>
      </trkpt>
      <trkpt lat="49.4897" lon="1.09933">
        <ele>167</ele>
        <time>2017-06-20T16:43:19Z</time>
      </trkpt>
      <trkpt lat="49.48972" lon="1.09936">
        <ele>167</ele>
        <time>2017-06-20T16:43:19Z</time>
      </trkpt>
      <trkpt lat="49.48978" lon="1.0994">
        <ele>167</ele>
        <time>2017-06-20T16:43:19Z</time>
      </trkpt>
      <trkpt lat="49.48979" lon="1.09946">
        <ele>167</ele>
        <time>2017-06-20T16:43:33Z</time>
      </trkpt>
      <trkpt lat="49.4898" lon="1.09954">
        <ele>167</ele>
        <time>2017-06-20T16:43:34Z</time>
      </trkpt>
      <trkpt lat="49.48982" lon="1.09957">
        <ele>167</ele>
        <time>2017-06-20T16:43:34Z</time>
      </trkpt>
      <trkpt lat="49.48982" lon="1.0996">
        <ele>167</ele>
        <time>2017-06-20T16:43:34Z</time>
      </trkpt>
      <trkpt lat="49.48984" lon="1.09964">
        <ele>167</ele>
        <time>2017-06-20T16:43:50Z</time>
      </trkpt>
      <trkpt lat="49.48989" lon="1.09975">
        <ele>167</ele>
        <time>2017-06-20T16:43:50Z</time>
      </trkpt>
      <trkpt lat="49.48986" lon="1.09979">
        <ele>167</ele>
        <time>2017-06-20T16:43:51Z</time>
      </trkpt>
      <trkpt lat="49.48987" lon="1.09987">
        <ele>167</ele>
        <time>2017-06-20T16:43:51Z</time>
      </trkpt>
      <trkpt lat="49.48988" lon="1.09995">
        <ele>167</ele>
        <time>2017-06-20T16:44:06Z</time>
      </trkpt>
      <trkpt lat="49.48983" lon="1.09998">
        <ele>167</ele>
        <time>2017-06-20T16:44:06Z</time>
      </trkpt>
      <trkpt lat="49.48987" lon="1.10009">
        <ele>167</ele>
        <time>2017-06-20T16:44:06Z</time>
      </trkpt>
      <trkpt lat="49.48988" lon="1.10014">
        <ele>167</ele>
        <time>2017-06-20T16:44:06Z</time>
      </trkpt>
      <trkpt lat="49.48994" lon="1.10035">
        <ele>167</ele>
        <time>2017-06-20T16:44:30Z</time>
      </trkpt>
      <trkpt lat="49.48995" lon="1.10042">
        <ele>170</ele>
        <time>2017-06-20T16:44:30Z</time>
      </trkpt>
      <trkpt lat="49.49" lon="1.10052">
        <ele>170</ele>
        <time>2017-06-20T16:44:30Z</time>
      </trkpt>
      <trkpt lat="49.48994" lon="1.10058">
        <ele>170</ele>
        <time>2017-06-20T16:44:30Z</time>
      </trkpt>
      <trkpt lat="49.48994" lon="1.10063">
        <ele>170</ele>
        <time>2017-06-20T16:44:46Z</time>
      </trkpt>
      <trkpt lat="49.48994" lon="1.10072">
        <ele>170</ele>
        <time>2017-06-20T16:44:46Z</time>
      </trkpt>
      <trkpt lat="49.48992" lon="1.10085">
        <ele>170</ele>
        <time>2017-06-20T16:44:46Z</time>
      </trkpt>
      <trkpt lat="49.48994" lon="1.10096">
        <ele>170</ele>
        <time>2017-06-20T16:44:46Z</time>
      </trkpt>
      <trkpt lat="49.48995" lon="1.10102">
        <ele>170</ele>
        <time>2017-06-20T16:45:01Z</time>
      </trkpt>
      <trkpt lat="49.48994" lon="1.10105">
        <ele>170</ele>
        <time>2017-06-20T16:45:01Z</time>
      </trkpt>
      <trkpt lat="49.48991" lon="1.1011">
        <ele>170</ele>
        <time>2017-06-20T16:45:01Z</time>
      </trkpt>
      <trkpt lat="49.48988" lon="1.10116">
        <ele>170</ele>
        <time>2017-06-20T16:45:01Z</time>
      </trkpt>
      <trkpt lat="49.4899" lon="1.10121">
        <ele>170</ele>
        <time>2017-06-20T16:45:17Z</time>
      </trkpt>
      <trkpt lat="49.48993" lon="1.10129">
        <ele>173</ele>
        <time>2017-06-20T16:45:17Z</time>
      </trkpt>
      <trkpt lat="49.48991" lon="1.10132">
        <ele>173</ele>
        <time>2017-06-20T16:45:17Z</time>
      </trkpt>
      <trkpt lat="49.48991" lon="1.10136">
        <ele>173</ele>
        <time>2017-06-20T16:45:17Z</time>
      </trkpt>
      <trkpt lat="49.48992" lon="1.10145">
        <ele>173</ele>
        <time>2017-06-20T16:45:34Z</time>
      </trkpt>
      <trkpt lat="49.48992" lon="1.10144">
        <ele>173</ele>
        <time>2017-06-20T16:45:34Z</time>
      </trkpt>
      <trkpt lat="49.48994" lon="1.10153">
        <ele>173</ele>
        <time>2017-06-20T16:45:34Z</time>
      </trkpt>
      <trkpt lat="49.48996" lon="1.1016">
        <ele>173</ele>
        <time>2017-06-20T16:45:34Z</time>
      </trkpt>
      <trkpt lat="49.48996" lon="1.10167">
        <ele>173</ele>
        <time>2017-06-20T16:45:50Z</time>
      </trkpt>
      <trkpt lat="49.48998" lon="1.10176">
        <ele>173</ele>
        <time>2017-06-20T16:45:50Z</time>
      </trkpt>
      <trkpt lat="49.48999" lon="1.10179">
        <ele>173</ele>
        <time>2017-06-20T16:45:50Z</time>
      </trkpt>
      <trkpt lat="49.49" lon="1.10183">
        <ele>173</ele>
        <time>2017-06-20T16:45:50Z</time>
      </trkpt>
      <trkpt lat="49.49001" lon="1.10205">
        <ele>173</ele>
        <time>2017-06-20T16:46:10Z</time>
      </trkpt>
      <trkpt lat="49.49003" lon="1.10213">
        <ele>174</ele>
        <time>2017-06-20T16:46:10Z</time>
      </trkpt>
      <trkpt lat="49.49003" lon="1.10219">
        <ele>174</ele>
        <time>2017-06-20T16:46:10Z</time>
      </trkpt>
      <trkpt lat="49.49004" lon="1.10229">
        <ele>174</ele>
        <time>2017-06-20T16:46:10Z</time>
      </trkpt>
      <trkpt lat="49.49002" lon="1.1023">
        <ele>174</ele>
        <time>2017-06-20T16:46:26Z</time>
      </trkpt>
      <trkpt lat="49.49006" lon="1.10239">
        <ele>174</ele>
        <time>2017-06-20T16:46:26Z</time>
      </trkpt>
      <trkpt lat="49.49009" lon="1.10247">
        <ele>174</ele>
        <time>2017-06-20T16:46:26Z</time>
      </trkpt>
      <trkpt lat="49.49011" lon="1.10252">
        <ele>174</ele>
        <time>2017-06-20T16:46:26Z</time>
      </trkpt>
      <trkpt lat="49.49012" lon="1.10265">
        <ele>174</ele>
        <time>2017-06-20T16:46:46Z</time>
      </trkpt>
      <trkpt lat="49.49011" lon="1.10275">
        <ele>174</ele>
        <time>2017-06-20T16:46:46Z</time>
      </trkpt>
      <trkpt lat="49.49011" lon="1.10278">
        <ele>174</ele>
        <time>2017-06-20T16:46:46Z</time>
      </trkpt>
      <trkpt lat="49.49013" lon="1.10284">
        <ele>174</ele>
        <time>2017-06-20T16:46:46Z</time>
      </trkpt>
      <trkpt lat="49.49019" lon="1.10303">
        <ele>171</ele>
        <time>2017-06-20T16:47:06Z</time>
      </trkpt>
      <trkpt lat="49.49021" lon="1.1031">
        <ele>171</ele>
        <time>2017-06-20T16:47:06Z</time>
      </trkpt>
      <trkpt lat="49.49022" lon="1.10319">
        <ele>171</ele>
        <time>2017-06-20T16:47:07Z</time>
      </trkpt>
      <trkpt lat="49.49021" lon="1.10324">
        <ele>171</ele>
        <time>2017-06-20T16:47:07Z</time>
      </trkpt>
      <trkpt lat="49.4902" lon="1.1033">
        <ele>171</ele>
        <time>2017-06-20T16:47:22Z</time>
      </trkpt>
      <trkpt lat="49.49017" lon="1.10338">
        <ele>171</ele>
        <time>2017-06-20T16:47:22Z</time>
      </trkpt>
      <trkpt lat="49.49017" lon="1.1034">
        <ele>171</ele>
        <time>2017-06-20T16:47:22Z</time>
      </trkpt>
      <trkpt lat="49.4902" lon="1.10351">
        <ele>171</ele>
        <time>2017-06-20T16:47:22Z</time>
      </trkpt>
      <trkpt lat="49.49021" lon="1.10359">
        <ele>171</ele>
        <time>2017-06-20T16:47:37Z</time>
      </trkpt>
      <trkpt lat="49.49021" lon="1.10361">
        <ele>171</ele>
        <time>2017-06-20T16:47:38Z</time>
      </trkpt>
      <trkpt lat="49.49024" lon="1.10368">
        <ele>171</ele>
        <time>2017-06-20T16:47:38Z</time>
      </trkpt>
      <trkpt lat="49.49026" lon="1.10374">
        <ele>171</ele>
        <time>2017-06-20T16:47:38Z</time>
      </trkpt>
      <trkpt lat="49.49028" lon="1.10381">
        <ele>166</ele>
        <time>2017-06-20T16:52:15Z</time>
      </trkpt>
      <trkpt lat="49.49028" lon="1.10381">
        <ele>166</ele>
        <time>2017-06-20T16:52:15Z</time>
      </trkpt>
      <trkpt lat="49.49028" lon="1.10381">
        <ele>166</ele>
        <time>2017-06-20T16:52:15Z</time>
      </trkpt>
      <trkpt lat="49.49029" lon="1.10389">
        <ele>166</ele>
        <time>2017-06-20T16:52:15Z</time>
      </trkpt>
      <trkpt lat="49.49029" lon="1.10401">
        <ele>166</ele>
        <time>2017-06-20T16:52:15Z</time>
      </trkpt>
      <trkpt lat="49.4903" lon="1.10407">
        <ele>166</ele>
        <time>2017-06-20T16:52:29Z</time>
      </trkpt>
      <trkpt lat="49.49031" lon="1.10414">
        <ele>166</ele>
        <time>2017-06-20T16:52:29Z</time>
      </trkpt>
      <trkpt lat="49.49031" lon="1.1042">
        <ele>166</ele>
        <time>2017-06-20T16:52:29Z</time>
      </trkpt>
      <trkpt lat="49.49034" lon="1.10429">
        <ele>166</ele>
        <time>2017-06-20T16:52:29Z</time>
      </trkpt>
      <trkpt lat="49.49034" lon="1.10433">
        <ele>166</ele>
        <time>2017-06-20T16:52:49Z</time>
      </trkpt>
      <trkpt lat="49.49035" lon="1.10437">
        <ele>166</ele>
        <time>2017-06-20T16:52:49Z</time>
      </trkpt>
      <trkpt lat="49.49034" lon="1.10439">
        <ele>166</ele>
        <time>2017-06-20T16:52:49Z</time>
      </trkpt>
      <trkpt lat="49.49034" lon="1.10441">
        <ele>166</ele>
        <time>2017-06-20T16:52:49Z</time>
      </trkpt>
      <trkpt lat="49.49033" lon="1.10451">
        <ele>166</ele>
        <time>2017-06-20T16:52:49Z</time>
      </trkpt>
      <trkpt lat="49.49032" lon="1.10461">
        <ele>171</ele>
        <time>2017-06-20T16:53:17Z</time>
      </trkpt>
      <trkpt lat="49.49034" lon="1.10464">
        <ele>171</ele>
        <time>2017-06-20T16:53:17Z</time>
      </trkpt>
      <trkpt lat="49.49036" lon="1.10468">
        <ele>171</ele>
        <time>2017-06-20T16:53:17Z</time>
      </trkpt>
      <trkpt lat="49.49035" lon="1.10474">
        <ele>171</ele>
        <time>2017-06-20T16:53:17Z</time>
      </trkpt>
      <trkpt lat="49.49032" lon="1.10477">
        <ele>171</ele>
        <time>2017-06-20T16:53:17Z</time>
      </trkpt>
      <trkpt lat="49.49033" lon="1.10477">
        <ele>171</ele>
        <time>2017-06-20T16:53:43Z</time>
      </trkpt>
      <trkpt lat="49.49033" lon="1.10476">
        <ele>171</ele>
        <time>2017-06-20T16:53:43Z</time>
      </trkpt>
      <trkpt lat="49.49038" lon="1.10485">
        <ele>171</ele>
        <time>2017-06-20T16:53:43Z</time>
      </trkpt>
      <trkpt lat="49.49039" lon="1.10489">
        <ele>171</ele>
        <time>2017-06-20T16:53:44Z</time>
      </trkpt>
      <trkpt lat="49.49039" lon="1.10493">
        <ele>171</ele>
        <time>2017-06-20T16:53:44Z</time>
      </trkpt>
      <trkpt lat="49.49041" lon="1.10498">
        <ele>171</ele>
        <time>2017-06-20T16:53:57Z</time>
      </trkpt>
      <trkpt lat="49.49038" lon="1.10506">
        <ele>171</ele>
        <time>2017-06-20T16:53:58Z</time>
      </trkpt>
      <trkpt lat="49.49036" lon="1.10513">
        <ele>171</ele>
        <time>2017-06-20T16:53:58Z</time>
      </trkpt>
      <trkpt lat="49.49036" lon="1.10519">
        <ele>171</ele>
        <time>2017-06-20T16:53:58Z</time>
      </trkpt>
      <trkpt lat="49.49038" lon="1.10529">
        <ele>171</ele>
        <time>2017-06-20T16:54:14Z</time>
      </trkpt>
      <trkpt lat="49.49034" lon="1.10537">
        <ele>171</ele>
        <time>2017-06-20T16:54:14Z</time>
      </trkpt>
      <trkpt lat="49.49035" lon="1.10543">
        <ele>173</ele>
        <time>2017-06-20T16:54:14Z</time>
      </trkpt>
      <trkpt lat="49.49033" lon="1.10546">
        <ele>173</ele>
        <time>2017-06-20T16:54:14Z</time>
      </trkpt>
      <trkpt lat="49.49029" lon="1.10551">
        <ele>173</ele>
        <time>2017-06-20T16:54:29Z</time>
      </trkpt>
      <trkpt lat="49.49025" lon="1.10553">
        <ele>173</ele>
        <time>2017-06-20T16:54:29Z</time>
      </trkpt>
      <trkpt lat="49.49021" lon="1.10555">
        <ele>173</ele>
        <time>2017-06-20T16:54:29Z</time>
      </trkpt>
      <trkpt lat="49.49016" lon="1.10563">
        <ele>173</ele>
        <time>2017-06-20T16:54:29Z</time>
      </trkpt>
      <trkpt lat="49.49016" lon="1.10571">
        <ele>173</ele>
        <time>2017-06-20T16:54:46Z</time>
      </trkpt>
      <trkpt lat="49.49012" lon="1.10575">
        <ele>173</ele>
        <time>2017-06-20T16:54:46Z</time>
      </trkpt>
      <trkpt lat="49.4901" lon="1.10582">
        <ele>173</ele>
        <time>2017-06-20T16:54:46Z</time>
      </trkpt>
      <trkpt lat="49.49007" lon="1.10593">
        <ele>173</ele>
        <time>2017-06-20T16:54:46Z</time>
      </trkpt>
      <trkpt lat="49.49007" lon="1.10603">
        <ele>173</ele>
        <time>2017-06-20T16:55:02Z</time>
      </trkpt>
      <trkpt lat="49.49005" lon="1.10607">
        <ele>173</ele>
        <time>2017-06-20T16:55:02Z</time>
      </trkpt>
      <trkpt lat="49.48999" lon="1.10614">
        <ele>173</ele>
        <time>2017-06-20T16:55:02Z</time>
      </trkpt>
      <trkpt lat="49.48999" lon="1.10615">
        <ele>173</ele>
        <time>2017-06-20T16:55:02Z</time>
      </trkpt>
      <trkpt lat="49.48998" lon="1.10623">
        <ele>173</ele>
        <time>2017-06-20T16:55:18Z</time>
      </trkpt>
      <trkpt lat="49.48997" lon="1.1063">
        <ele>168</ele>
        <time>2017-06-20T16:55:18Z</time>
      </trkpt>
      <trkpt lat="49.48995" lon="1.10633">
        <ele>168</ele>
        <time>2017-06-20T16:55:18Z</time>
      </trkpt>
      <trkpt lat="49.4899" lon="1.10639">
        <ele>168</ele>
        <time>2017-06-20T16:55:18Z</time>
      </trkpt>
      <trkpt lat="49.48988" lon="1.10638">
        <ele>168</ele>
        <time>2017-06-20T16:55:38Z</time>
      </trkpt>
      <trkpt lat="49.48984" lon="1.10638">
        <ele>168</ele>
        <time>2017-06-20T16:55:38Z</time>
      </trkpt>
      <trkpt lat="49.4898" lon="1.1064">
        <ele>168</ele>
        <time>2017-06-20T16:55:38Z</time>
      </trkpt>
      <trkpt lat="49.4898" lon="1.10636">
        <ele>168</ele>
        <time>2017-06-20T16:55:38Z</time>
      </trkpt>
      <trkpt lat="49.48979" lon="1.10629">
        <ele>168</ele>
        <time>2017-06-20T16:55:38Z</time>
      </trkpt>
      <trkpt lat="49.48972" lon="1.10627">
        <ele>168</ele>
        <time>2017-06-20T16:55:54Z</time>
      </trkpt>
      <trkpt lat="49.48966" lon="1.10627">
        <ele>168</ele>
        <time>2017-06-20T16:55:54Z</time>
      </trkpt>
      <trkpt lat="49.48962" lon="1.10623">
        <ele>173</ele>
        <time>2017-06-20T16:55:54Z</time>
      </trkpt>
      <trkpt lat="49.48961" lon="1.10624">
        <ele>173</ele>
        <time>2017-06-20T16:55:54Z</time>
      </trkpt>
      <trkpt lat="49.4896" lon="1.10623">
        <ele>173</ele>
        <time>2017-06-20T16:56:10Z</time>
      </trkpt>
      <trkpt lat="49.48959" lon="1.10623">
        <ele>173</ele>
        <time>2017-06-20T16:56:10Z</time>
      </trkpt>
      <trkpt lat="49.48958" lon="1.10623">
        <ele>173</ele>
        <time>2017-06-20T16:56:10Z</time>
      </trkpt>
      <trkpt lat="49.48944" lon="1.10613">
        <ele>175</ele>
        <time>2017-06-20T16:56:10Z</time>
      </trkpt>
      <trkpt lat="49.48939" lon="1.1061">
        <ele>175</ele>
        <time>2017-06-20T16:56:33Z</time>
      </trkpt>
      <trkpt lat="49.48938" lon="1.10606">
        <ele>175</ele>
        <time>2017-06-20T16:56:33Z</time>
      </trkpt>
      <trkpt lat="49.48934" lon="1.10605">
        <ele>175</ele>
        <time>2017-06-20T16:56:33Z</time>
      </trkpt>
      <trkpt lat="49.48917" lon="1.10605">
        <ele>175</ele>
        <time>2017-06-20T16:56:33Z</time>
      </trkpt>
      <trkpt lat="49.48915" lon="1.10607">
        <ele>175</ele>
        <time>2017-06-20T16:56:49Z</time>
      </trkpt>
      <trkpt lat="49.48909" lon="1.10608">
        <ele>175</ele>
        <time>2017-06-20T16:56:49Z</time>
      </trkpt>
      <trkpt lat="49.48901" lon="1.10612">
        <ele>175</ele>
        <time>2017-06-20T16:56:50Z</time>
      </trkpt>
      <trkpt lat="49.48896" lon="1.10614">
        <ele>175</ele>
        <time>2017-06-20T16:56:50Z</time>
      </trkpt>
      <trkpt lat="49.48892" lon="1.10618">
        <ele>175</ele>
        <time>2017-06-20T16:57:06Z</time>
      </trkpt>
      <trkpt lat="49.48888" lon="1.10623">
        <ele>175</ele>
        <time>2017-06-20T16:57:07Z</time>
      </trkpt>
      <trkpt lat="49.48884" lon="1.10623">
        <ele>175</ele>
        <time>2017-06-20T16:57:07Z</time>
      </trkpt>
      <trkpt lat="49.48882" lon="1.10624">
        <ele>175</ele>
        <time>2017-06-20T16:57:07Z</time>
      </trkpt>
      <trkpt lat="49.48881" lon="1.10625">
        <ele>178</ele>
        <time>2017-06-20T16:57:22Z</time>
      </trkpt>
      <trkpt lat="49.48875" lon="1.10634">
        <ele>178</ele>
        <time>2017-06-20T16:57:24Z</time>
      </trkpt>
      <trkpt lat="49.48874" lon="1.10638">
        <ele>178</ele>
        <time>2017-06-20T16:57:24Z</time>
      </trkpt>
      <trkpt lat="49.48869" lon="1.10638">
        <ele>178</ele>
        <time>2017-06-20T16:57:24Z</time>
      </trkpt>
      <trkpt lat="49.48865" lon="1.10641">
        <ele>178</ele>
        <time>2017-06-20T16:57:37Z</time>
      </trkpt>
      <trkpt lat="49.48861" lon="1.10647">
        <ele>178</ele>
        <time>2017-06-20T16:57:37Z</time>
      </trkpt>
      <trkpt lat="49.48857" lon="1.10649">
        <ele>178</ele>
        <time>2017-06-20T16:57:37Z</time>
      </trkpt>
      <trkpt lat="49.48853" lon="1.10651">
        <ele>178</ele>
        <time>2017-06-20T16:57:37Z</time>
      </trkpt>
      <trkpt lat="49.4885" lon="1.10653">
        <ele>178</ele>
        <time>2017-06-20T16:57:54Z</time>
      </trkpt>
      <trkpt lat="49.48846" lon="1.10657">
        <ele>178</ele>
        <time>2017-06-20T16:57:55Z</time>
      </trkpt>
      <trkpt lat="49.48841" lon="1.10658">
        <ele>178</ele>
        <time>2017-06-20T16:57:55Z</time>
      </trkpt>
      <trkpt lat="49.48836" lon="1.10662">
        <ele>178</ele>
        <time>2017-06-20T16:57:55Z</time>
      </trkpt>
      <trkpt lat="49.48834" lon="1.10664">
        <ele>178</ele>
        <time>2017-06-20T16:58:11Z</time>
      </trkpt>
      <trkpt lat="49.48824" lon="1.10667">
        <ele>178</ele>
        <time>2017-06-20T16:58:11Z</time>
      </trkpt>
      <trkpt lat="49.48824" lon="1.10671">
        <ele>178</ele>
        <time>2017-06-20T16:58:11Z</time>
      </trkpt>
      <trkpt lat="49.48819" lon="1.10678">
        <ele>178</ele>
        <time>2017-06-20T16:58:11Z</time>
      </trkpt>
      <trkpt lat="49.48818" lon="1.1068">
        <ele>178</ele>
        <time>2017-06-20T16:58:25Z</time>
      </trkpt>
      <trkpt lat="49.48816" lon="1.1069">
        <ele>178</ele>
        <time>2017-06-20T16:58:25Z</time>
      </trkpt>
      <trkpt lat="49.48808" lon="1.10684">
        <ele>178</ele>
        <time>2017-06-20T16:58:25Z</time>
      </trkpt>
      <trkpt lat="49.48805" lon="1.10685">
        <ele>178</ele>
        <time>2017-06-20T16:58:25Z</time>
      </trkpt>
      <trkpt lat="49.48801" lon="1.10689">
        <ele>178</ele>
        <time>2017-06-20T16:58:41Z</time>
      </trkpt>
      <trkpt lat="49.48798" lon="1.10694">
        <ele>178</ele>
        <time>2017-06-20T16:58:41Z</time>
      </trkpt>
      <trkpt lat="49.48792" lon="1.10698">
        <ele>178</ele>
        <time>2017-06-20T16:58:41Z</time>
      </trkpt>
      <trkpt lat="49.48791" lon="1.10701">
        <ele>174</ele>
        <time>2017-06-20T16:58:41Z</time>
      </trkpt>
      <trkpt lat="49.48786" lon="1.10704">
        <ele>174</ele>
        <time>2017-06-20T16:58:57Z</time>
      </trkpt>
      <trkpt lat="49.48783" lon="1.10706">
        <ele>174</ele>
        <time>2017-06-20T16:58:57Z</time>
      </trkpt>
      <trkpt lat="49.48773" lon="1.10707">
        <ele>174</ele>
        <time>2017-06-20T16:58:57Z</time>
      </trkpt>
      <trkpt lat="49.48765" lon="1.10708">
        <ele>174</ele>
        <time>2017-06-20T16:58:57Z</time>
      </trkpt>
      <trkpt lat="49.48759" lon="1.1071">
        <ele>184</ele>
        <time>2017-06-20T16:59:18Z</time>
      </trkpt>
      <trkpt lat="49.48759" lon="1.10712">
        <ele>184</ele>
        <time>2017-06-20T16:59:18Z</time>
      </trkpt>
      <trkpt lat="49.48754" lon="1.10714">
        <ele>184</ele>
        <time>2017-06-20T16:59:18Z</time>
      </trkpt>
      <trkpt lat="49.48752" lon="1.10717">
        <ele>184</ele>
        <time>2017-06-20T16:59:18Z</time>
      </trkpt>
      <trkpt lat="49.48745" lon="1.1072">
        <ele>184</ele>
        <time>2017-06-20T16:59:18Z</time>
      </trkpt>
      <trkpt lat="49.48743" lon="1.10724">
        <ele>184</ele>
        <time>2017-06-20T16:59:34Z</time>
      </trkpt>
      <trkpt lat="49.48742" lon="1.10725">
        <ele>184</ele>
        <time>2017-06-20T16:59:34Z</time>
      </trkpt>
      <trkpt lat="49.48736" lon="1.1073">
        <ele>184</ele>
        <time>2017-06-20T16:59:34Z</time>
      </trkpt>
      <trkpt lat="49.48735" lon="1.10735">
        <ele>184</ele>
        <time>2017-06-20T16:59:34Z</time>
      </trkpt>
      <trkpt lat="49.48732" lon="1.10741">
        <ele>184</ele>
        <time>2017-06-20T16:59:50Z</time>
      </trkpt>
      <trkpt lat="49.48729" lon="1.10746">
        <ele>184</ele>
        <time>2017-06-20T16:59:51Z</time>
      </trkpt>
      <trkpt lat="49.48729" lon="1.10749">
        <ele>184</ele>
        <time>2017-06-20T16:59:51Z</time>
      </trkpt>
      <trkpt lat="49.48726" lon="1.10757">
        <ele>184</ele>
        <time>2017-06-20T16:59:51Z</time>
      </trkpt>
      <trkpt lat="49.48721" lon="1.10759">
        <ele>184</ele>
        <time>2017-06-20T17:00:06Z</time>
      </trkpt>
      <trkpt lat="49.48716" lon="1.1076">
        <ele>184</ele>
        <time>2017-06-20T17:00:06Z</time>
      </trkpt>
      <trkpt lat="49.48712" lon="1.10762">
        <ele>184</ele>
        <time>2017-06-20T17:00:06Z</time>
      </trkpt>
      <trkpt lat="49.4871" lon="1.10769">
        <ele>184</ele>
        <time>2017-06-20T17:00:06Z</time>
      </trkpt>
      <trkpt lat="49.48705" lon="1.10771">
        <ele>174</ele>
        <time>2017-06-20T17:00:27Z</time>
      </trkpt>
      <trkpt lat="49.48703" lon="1.10776">
        <ele>174</ele>
        <time>2017-06-20T17:00:27Z</time>
      </trkpt>
      <trkpt lat="49.487" lon="1.10777">
        <ele>174</ele>
        <time>2017-06-20T17:00:27Z</time>
      </trkpt>
      <trkpt lat="49.48699" lon="1.10781">
        <ele>174</ele>
        <time>2017-06-20T17:00:27Z</time>
      </trkpt>
      <trkpt lat="49.48694" lon="1.10784">
        <ele>174</ele>
        <time>2017-06-20T17:00:27Z</time>
      </trkpt>
      <trkpt lat="49.48691" lon="1.10786">
        <ele>174</ele>
        <time>2017-06-20T17:00:41Z</time>
      </trkpt>
      <trkpt lat="49.48686" lon="1.10791">
        <ele>174</ele>
        <time>2017-06-20T17:00:41Z</time>
      </trkpt>
      <trkpt lat="49.48685" lon="1.10794">
        <ele>181</ele>
        <time>2017-06-20T17:00:41Z</time>
      </trkpt>
      <trkpt lat="49.48683" lon="1.10801">
        <ele>181</ele>
        <time>2017-06-20T17:00:41Z</time>
      </trkpt>
      <trkpt lat="49.48681" lon="1.10807">
        <ele>181</ele>
        <time>2017-06-20T17:00:59Z</time>
      </trkpt>
      <trkpt lat="49.48676" lon="1.10812">
        <ele>181</ele>
        <time>2017-06-20T17:00:59Z</time>
      </trkpt>
      <trkpt lat="49.48672" lon="1.10816">
        <ele>181</ele>
        <time>2017-06-20T17:00:59Z</time>
      </trkpt>
      <trkpt lat="49.48669" lon="1.10822">
        <ele>181</ele>
        <time>2017-06-20T17:00:59Z</time>
      </trkpt>
      <trkpt lat="49.48666" lon="1.10821">
        <ele>181</ele>
        <time>2017-06-20T17:01:15Z</time>
      </trkpt>
      <trkpt lat="49.48659" lon="1.10824">
        <ele>181</ele>
        <time>2017-06-20T17:01:15Z</time>
      </trkpt>
      <trkpt lat="49.48656" lon="1.10828">
        <ele>181</ele>
        <time>2017-06-20T17:01:15Z</time>
      </trkpt>
      <trkpt lat="49.4865" lon="1.10834">
        <ele>181</ele>
        <time>2017-06-20T17:01:15Z</time>
      </trkpt>
      <trkpt lat="49.48647" lon="1.10837">
        <ele>181</ele>
        <time>2017-06-20T17:01:30Z</time>
      </trkpt>
      <trkpt lat="49.48641" lon="1.10841">
        <ele>181</ele>
        <time>2017-06-20T17:01:30Z</time>
      </trkpt>
      <trkpt lat="49.48638" lon="1.10843">
        <ele>181</ele>
        <time>2017-06-20T17:01:30Z</time>
      </trkpt>
      <trkpt lat="49.48636" lon="1.10844">
        <ele>181</ele>
        <time>2017-06-20T17:01:30Z</time>
      </trkpt>
      <trkpt lat="49.48631" lon="1.10845">
        <ele>181</ele>
        <time>2017-06-20T17:02:27Z</time>
      </trkpt>
      <trkpt lat="49.48631" lon="1.10845">
        <ele>181</ele>
        <time>2017-06-20T17:02:27Z</time>
      </trkpt>
      <trkpt lat="49.4863" lon="1.10846">
        <ele>181</ele>
        <time>2017-06-20T17:02:27Z</time>
      </trkpt>
      <trkpt lat="49.48628" lon="1.10847">
        <ele>181</ele>
        <time>2017-06-20T17:02:27Z</time>
      </trkpt>
      <trkpt lat="49.48625" lon="1.10845">
        <ele>181</ele>
        <time>2017-06-20T17:02:27Z</time>
      </trkpt>
      <trkpt lat="49.48625" lon="1.10845">
        <ele>173</ele>
        <time>2017-06-20T17:03:14Z</time>
      </trkpt>
      <trkpt lat="49.48624" lon="1.10846">
        <ele>173</ele>
        <time>2017-06-20T17:03:14Z</time>
      </trkpt>
      <trkpt lat="49.48622" lon="1.1085">
        <ele>173</ele>
        <time>2017-06-20T17:03:14Z</time>
      </trkpt>
      <trkpt lat="49.4862" lon="1.10854">
        <ele>173</ele>
        <time>2017-06-20T17:03:14Z</time>
      </trkpt>
      <trkpt lat="49.48613" lon="1.10857">
        <ele>173</ele>
        <time>2017-06-20T17:03:14Z</time>
      </trkpt>
      <trkpt lat="49.48604" lon="1.10872">
        <ele>173</ele>
        <time>2017-06-20T17:05:17Z</time>
      </trkpt>
      <trkpt lat="49.48604" lon="1.10872">
        <ele>173</ele>
        <time>2017-06-20T17:05:17Z</time>
      </trkpt>
      <trkpt lat="49.48604" lon="1.10872">
        <ele>173</ele>
        <time>2017-06-20T17:05:17Z</time>
      </trkpt>
      <trkpt lat="49.48604" lon="1.10872">
        <ele>173</ele>
        <time>2017-06-20T17:05:17Z</time>
      </trkpt>
      <trkpt lat="49.48604" lon="1.10873">
        <ele>173</ele>
        <time>2017-06-20T17:05:17Z</time>
      </trkpt>
      <trkpt lat="49.48609" lon="1.10877">
        <ele>181</ele>
        <time>2017-06-20T17:06:38Z</time>
      </trkpt>
      <trkpt lat="49.48609" lon="1.10877">
        <ele>181</ele>
        <time>2017-06-20T17:06:38Z</time>
      </trkpt>
      <trkpt lat="49.48609" lon="1.10877">
        <ele>181</ele>
        <time>2017-06-20T17:06:38Z</time>
      </trkpt>
      <trkpt lat="49.48611" lon="1.10881">
        <ele>181</ele>
        <time>2017-06-20T17:06:38Z</time>
      </trkpt>
      <trkpt lat="49.48612" lon="1.10884">
        <ele>181</ele>
        <time>2017-06-20T17:06:38Z</time>
      </trkpt>
      <trkpt lat="49.4861" lon="1.10891">
        <ele>181</ele>
        <time>2017-06-20T17:07:06Z</time>
      </trkpt>
      <trkpt lat="49.4861" lon="1.10893">
        <ele>181</ele>
        <time>2017-06-20T17:07:06Z</time>
      </trkpt>
      <trkpt lat="49.48611" lon="1.10894">
        <ele>181</ele>
        <time>2017-06-20T17:07:06Z</time>
      </trkpt>
      <trkpt lat="49.48613" lon="1.10897">
        <ele>181</ele>
        <time>2017-06-20T17:07:06Z</time>
      </trkpt>
      <trkpt lat="49.48615" lon="1.10903">
        <ele>181</ele>
        <time>2017-06-20T17:07:06Z</time>
      </trkpt>
      <trkpt lat="49.48626" lon="1.10915">
        <ele>186</ele>
        <time>2017-06-20T17:08:09Z</time>
      </trkpt>
      <trkpt lat="49.48627" lon="1.10919">
        <ele>186</ele>
        <time>2017-06-20T17:08:09Z</time>
      </trkpt>
      <trkpt lat="49.48628" lon="1.10925">
        <ele>186</ele>
        <time>2017-06-20T17:08:09Z</time>
      </trkpt>
      <trkpt lat="49.48626" lon="1.10928">
        <ele>186</ele>
        <time>2017-06-20T17:08:09Z</time>
      </trkpt>
      <trkpt lat="49.48626" lon="1.10929">
        <ele>186</ele>
        <time>2017-06-20T17:08:09Z</time>
      </trkpt>
      <trkpt lat="49.48626" lon="1.10927">
        <ele>186</ele>
        <time>2017-06-20T17:08:34Z</time>
      </trkpt>
      <trkpt lat="49.48625" lon="1.10928">
        <ele>186</ele>
        <time>2017-06-20T17:08:34Z</time>
      </trkpt>
      <trkpt lat="49.48628" lon="1.10931">
        <ele>186</ele>
        <time>2017-06-20T17:08:34Z</time>
      </trkpt>
      <trkpt lat="49.48629" lon="1.10934">
        <ele>186</ele>
        <time>2017-06-20T17:08:34Z</time>
      </trkpt>
      <trkpt lat="49.48632" lon="1.10942">
        <ele>186</ele>
        <time>2017-06-20T17:08:34Z</time>
      </trkpt>
      <trkpt lat="49.48644" lon="1.10981">
        <ele>187</ele>
        <time>2017-06-20T17:10:05Z</time>
      </trkpt>
      <trkpt lat="49.48647" lon="1.1098">
        <ele>187</ele>
        <time>2017-06-20T17:10:05Z</time>
      </trkpt>
      <trkpt lat="49.48647" lon="1.10982">
        <ele>187</ele>
        <time>2017-06-20T17:10:05Z</time>
      </trkpt>
      <trkpt lat="49.48647" lon="1.10984">
        <ele>187</ele>
        <time>2017-06-20T17:10:05Z</time>
      </trkpt>
      <trkpt lat="49.48647" lon="1.10985">
        <ele>187</ele>
        <time>2017-06-20T17:10:05Z</time>
      </trkpt>
      <trkpt lat="49.48647" lon="1.10985">
        <ele>187</ele>
        <time>2017-06-20T17:11:50Z</time>
      </trkpt>
      <trkpt lat="49.48648" lon="1.10989">
        <ele>187</ele>
        <time>2017-06-20T17:11:50Z</time>
      </trkpt>
      <trkpt lat="49.48649" lon="1.10993">
        <ele>187</ele>
        <time>2017-06-20T17:11:50Z</time>
      </trkpt>
      <trkpt lat="49.48649" lon="1.10995">
        <ele>187</ele>
        <time>2017-06-20T17:11:50Z</time>
      </trkpt>
      <trkpt lat="49.48651" lon="1.10997">
        <ele>187</ele>
        <time>2017-06-20T17:11:50Z</time>
      </trkpt>
      <trkpt lat="49.48652" lon="1.11006">
        <ele>187</ele>
        <time>2017-06-20T17:12:46Z</time>
      </trkpt>
      <trkpt lat="49.48652" lon="1.11006">
        <ele>187</ele>
        <time>2017-06-20T17:12:46Z</time>
      </trkpt>
      <trkpt lat="49.48652" lon="1.11007">
        <ele>187</ele>
        <time>2017-06-20T17:12:46Z</time>
      </trkpt>
      <trkpt lat="49.48652" lon="1.11007">
        <ele>187</ele>
        <time>2017-06-20T17:12:46Z</time>
      </trkpt>
      <trkpt lat="49.48656" lon="1.11015">
        <ele>187</ele>
        <time>2017-06-20T17:12:46Z</time>
      </trkpt>
      <trkpt lat="49.48658" lon="1.11022">
        <ele>187</ele>
        <time>2017-06-20T17:13:01Z</time>
      </trkpt>
      <trkpt lat="49.48654" lon="1.11028">
        <ele>187</ele>
        <time>2017-06-20T17:13:01Z</time>
      </trkpt>
      <trkpt lat="49.48656" lon="1.11035">
        <ele>187</ele>
        <time>2017-06-20T17:13:01Z</time>
      </trkpt>
      <trkpt lat="49.48653" lon="1.11037">
        <ele>187</ele>
        <time>2017-06-20T17:13:01Z</time>
      </trkpt>
      <trkpt lat="49.48652" lon="1.11038">
        <ele>187</ele>
        <time>2017-06-20T17:13:21Z</time>
      </trkpt>
      <trkpt lat="49.48649" lon="1.11043">
        <ele>185</ele>
        <time>2017-06-20T17:13:21Z</time>
      </trkpt>
      <trkpt lat="49.4865" lon="1.11045">
        <ele>185</ele>
        <time>2017-06-20T17:13:21Z</time>
      </trkpt>
      <trkpt lat="49.4865" lon="1.1105">
        <ele>185</ele>
        <time>2017-06-20T17:13:21Z</time>
      </trkpt>
      <trkpt lat="49.48653" lon="1.11055">
        <ele>185</ele>
        <time>2017-06-20T17:13:21Z</time>
      </trkpt>
      <trkpt lat="49.48649" lon="1.11055">
        <ele>185</ele>
        <time>2017-06-20T17:13:37Z</time>
      </trkpt>
      <trkpt lat="49.48645" lon="1.1106">
        <ele>185</ele>
        <time>2017-06-20T17:13:37Z</time>
      </trkpt>
      <trkpt lat="49.4864" lon="1.1106">
        <ele>185</ele>
        <time>2017-06-20T17:13:37Z</time>
      </trkpt>
      <trkpt lat="49.48636" lon="1.11056">
        <ele>185</ele>
        <time>2017-06-20T17:13:37Z</time>
      </trkpt>
      <trkpt lat="49.4863" lon="1.11062">
        <ele>185</ele>
        <time>2017-06-20T17:14:03Z</time>
      </trkpt>
      <trkpt lat="49.48632" lon="1.11064">
        <ele>185</ele>
        <time>2017-06-20T17:14:03Z</time>
      </trkpt>
      <trkpt lat="49.48632" lon="1.11064">
        <ele>185</ele>
        <time>2017-06-20T17:14:03Z</time>
      </trkpt>
      <trkpt lat="49.48632" lon="1.11066">
        <ele>185</ele>
        <time>2017-06-20T17:14:03Z</time>
      </trkpt>
      <trkpt lat="49.48637" lon="1.11075">
        <ele>185</ele>
        <time>2017-06-20T17:14:03Z</time>
      </trkpt>
      <trkpt lat="49.48638" lon="1.11078">
        <ele>185</ele>
        <time>2017-06-20T17:14:30Z</time>
      </trkpt>
      <trkpt lat="49.48638" lon="1.11083">
        <ele>185</ele>
        <time>2017-06-20T17:14:30Z</time>
      </trkpt>
      <trkpt lat="49.48641" lon="1.11089">
        <ele>185</ele>
        <time>2017-06-20T17:14:30Z</time>
      </trkpt>
      <trkpt lat="49.48639" lon="1.11093">
        <ele>185</ele>
        <time>2017-06-20T17:14:30Z</time>
      </trkpt>
      <trkpt lat="49.4864" lon="1.11098">
        <ele>185</ele>
        <time>2017-06-20T17:14:30Z</time>
      </trkpt>
      <trkpt lat="49.48639" lon="1.11106">
        <ele>185</ele>
        <time>2017-06-20T17:14:57Z</time>
      </trkpt>
      <trkpt lat="49.48638" lon="1.11106">
        <ele>185</ele>
        <time>2017-06-20T17:14:57Z</time>
      </trkpt>
      <trkpt lat="49.48638" lon="1.11107">
        <ele>185</ele>
        <time>2017-06-20T17:14:57Z</time>
      </trkpt>
      <trkpt lat="49.48634" lon="1.11111">
        <ele>185</ele>
        <time>2017-06-20T17:14:57Z</time>
      </trkpt>
      <trkpt lat="49.48632" lon="1.1112">
        <ele>185</ele>
        <time>2017-06-20T17:14:57Z</time>
      </trkpt>
      <trkpt lat="49.48628" lon="1.11124">
        <ele>185</ele>
        <time>2017-06-20T17:15:34Z</time>
      </trkpt>
      <trkpt lat="49.48627" lon="1.11125">
        <ele>185</ele>
        <time>2017-06-20T17:15:34Z</time>
      </trkpt>
      <trkpt lat="49.48628" lon="1.11123">
        <ele>185</ele>
        <time>2017-06-20T17:15:34Z</time>
      </trkpt>
      <trkpt lat="49.48621" lon="1.11129">
        <ele>178</ele>
        <time>2017-06-20T17:15:34Z</time>
      </trkpt>
      <trkpt lat="49.48617" lon="1.11137">
        <ele>178</ele>
        <time>2017-06-20T17:15:34Z</time>
      </trkpt>
      <trkpt lat="49.48607" lon="1.1115">
        <ele>178</ele>
        <time>2017-06-20T17:17:05Z</time>
      </trkpt>
      <trkpt lat="49.48606" lon="1.11149">
        <ele>178</ele>
        <time>2017-06-20T17:17:05Z</time>
      </trkpt>
      <trkpt lat="49.48606" lon="1.1115">
        <ele>178</ele>
        <time>2017-06-20T17:17:05Z</time>
      </trkpt>
      <trkpt lat="49.48606" lon="1.1115">
        <ele>178</ele>
        <time>2017-06-20T17:17:05Z</time>
      </trkpt>
      <trkpt lat="49.48606" lon="1.1115">
        <ele>178</ele>
        <time>2017-06-20T17:17:05Z</time>
      </trkpt>
      <trkpt lat="49.48604" lon="1.11153">
        <ele>178</ele>
        <time>2017-06-20T17:17:25Z</time>
      </trkpt>
      <trkpt lat="49.48603" lon="1.11154">
        <ele>178</ele>
        <time>2017-06-20T17:17:25Z</time>
      </trkpt>
      <trkpt lat="49.48601" lon="1.11157">
        <ele>178</ele>
        <time>2017-06-20T17:17:25Z</time>
      </trkpt>
      <trkpt lat="49.48598" lon="1.11159">
        <ele>178</ele>
        <time>2017-06-20T17:17:25Z</time>
      </trkpt>
      <trkpt lat="49.48594" lon="1.11162">
        <ele>178</ele>
        <time>2017-06-20T17:17:25Z</time>
      </trkpt>
      <trkpt lat="49.48592" lon="1.11163">
        <ele>178</ele>
        <time>2017-06-20T17:17:42Z</time>
      </trkpt>
      <trkpt lat="49.4859" lon="1.11168">
        <ele>178</ele>
        <time>2017-06-20T17:17:42Z</time>
      </trkpt>
      <trkpt lat="49.48589" lon="1.11177">
        <ele>178</ele>
        <time>2017-06-20T17:17:42Z</time>
      </trkpt>
      <trkpt lat="49.48588" lon="1.11178">
        <ele>178</ele>
        <time>2017-06-20T17:17:42Z</time>
      </trkpt>
      <trkpt lat="49.48587" lon="1.11181">
        <ele>178</ele>
        <time>2017-06-20T17:18:22Z</time>
      </trkpt>
      <trkpt lat="49.48575" lon="1.11181">
        <ele>178</ele>
        <time>2017-06-20T17:18:22Z</time>
      </trkpt>
      <trkpt lat="49.48571" lon="1.11177">
        <ele>178</ele>
        <time>2017-06-20T17:18:22Z</time>
      </trkpt>
      <trkpt lat="49.48565" lon="1.11173">
        <ele>178</ele>
        <time>2017-06-20T17:18:22Z</time>
      </trkpt>
      <trkpt lat="49.48556" lon="1.11165">
        <ele>178</ele>
        <time>2017-06-20T17:18:22Z</time>
      </trkpt>
      <trkpt lat="49.48552" lon="1.1116">
        <ele>178</ele>
        <time>2017-06-20T17:18:37Z</time>
      </trkpt>
      <trkpt lat="49.48546" lon="1.1116">
        <ele>178</ele>
        <time>2017-06-20T17:18:37Z</time>
      </trkpt>
      <trkpt lat="49.48541" lon="1.11159">
        <ele>171</ele>
        <time>2017-06-20T17:18:37Z</time>
      </trkpt>
      <trkpt lat="49.48539" lon="1.11152">
        <ele>171</ele>
        <time>2017-06-20T17:18:37Z</time>
      </trkpt>
      <trkpt lat="49.48538" lon="1.11142">
        <ele>171</ele>
        <time>2017-06-20T17:18:53Z</time>
      </trkpt>
      <trkpt lat="49.48533" lon="1.11137">
        <ele>171</ele>
        <time>2017-06-20T17:18:54Z</time>
      </trkpt>
      <trkpt lat="49.48534" lon="1.11132">
        <ele>171</ele>
        <time>2017-06-20T17:18:54Z</time>
      </trkpt>
      <trkpt lat="49.48531" lon="1.11126">
        <ele>171</ele>
        <time>2017-06-20T17:18:54Z</time>
      </trkpt>
      <trkpt lat="49.48528" lon="1.11122">
        <ele>174</ele>
        <time>2017-06-20T17:19:09Z</time>
      </trkpt>
      <trkpt lat="49.48525" lon="1.11118">
        <ele>174</ele>
        <time>2017-06-20T17:19:09Z</time>
      </trkpt>
      <trkpt lat="49.4852" lon="1.11106">
        <ele>174</ele>
        <time>2017-06-20T17:19:09Z</time>
      </trkpt>
      <trkpt lat="49.48517" lon="1.11099">
        <ele>174</ele>
        <time>2017-06-20T17:19:09Z</time>
      </trkpt>
      <trkpt lat="49.48512" lon="1.11087">
        <ele>174</ele>
        <time>2017-06-20T17:19:25Z</time>
      </trkpt>
      <trkpt lat="49.48512" lon="1.11087">
        <ele>174</ele>
        <time>2017-06-20T17:19:25Z</time>
      </trkpt>
      <trkpt lat="49.4851" lon="1.1108">
        <ele>174</ele>
        <time>2017-06-20T17:19:25Z</time>
      </trkpt>
      <trkpt lat="49.48505" lon="1.11063">
        <ele>174</ele>
        <time>2017-06-20T17:19:25Z</time>
      </trkpt>
      <trkpt lat="49.48503" lon="1.1105">
        <ele>174</ele>
        <time>2017-06-20T17:19:41Z</time>
      </trkpt>
      <trkpt lat="49.48501" lon="1.11042">
        <ele>174</ele>
        <time>2017-06-20T17:19:41Z</time>
      </trkpt>
      <trkpt lat="49.48502" lon="1.11041">
        <ele>175</ele>
        <time>2017-06-20T17:19:41Z</time>
      </trkpt>
      <trkpt lat="49.48502" lon="1.11036">
        <ele>175</ele>
        <time>2017-06-20T17:19:41Z</time>
      </trkpt>
      <trkpt lat="49.48502" lon="1.11033">
        <ele>175</ele>
        <time>2017-06-20T17:19:58Z</time>
      </trkpt>
      <trkpt lat="49.48496" lon="1.11021">
        <ele>175</ele>
        <time>2017-06-20T17:19:58Z</time>
      </trkpt>
      <trkpt lat="49.48494" lon="1.11015">
        <ele>175</ele>
        <time>2017-06-20T17:19:58Z</time>
      </trkpt>
      <trkpt lat="49.4849" lon="1.11004">
        <ele>175</ele>
        <time>2017-06-20T17:19:58Z</time>
      </trkpt>
      <trkpt lat="49.48491" lon="1.11002">
        <ele>175</ele>
        <time>2017-06-20T17:20:13Z</time>
      </trkpt>
      <trkpt lat="49.4849" lon="1.10995">
        <ele>175</ele>
        <time>2017-06-20T17:20:13Z</time>
      </trkpt>
      <trkpt lat="49.48486" lon="1.10983">
        <ele>175</ele>
        <time>2017-06-20T17:20:13Z</time>
      </trkpt>
      <trkpt lat="49.48486" lon="1.10982">
        <ele>175</ele>
        <time>2017-06-20T17:20:13Z</time>
      </trkpt>
      <trkpt lat="49.48483" lon="1.10978">
        <ele>175</ele>
        <time>2017-06-20T17:20:30Z</time>
      </trkpt>
      <trkpt lat="49.48477" lon="1.10961">
        <ele>175</ele>
        <time>2017-06-20T17:20:30Z</time>
      </trkpt>
      <trkpt lat="49.48476" lon="1.10956">
        <ele>177</ele>
        <time>2017-06-20T17:20:30Z</time>
      </trkpt>
      <trkpt lat="49.4847" lon="1.10945">
        <ele>177</ele>
        <time>2017-06-20T17:20:30Z</time>
      </trkpt>
      <trkpt lat="49.48473" lon="1.10944">
        <ele>177</ele>
        <time>2017-06-20T17:20:49Z</time>
      </trkpt>
      <trkpt lat="49.48473" lon="1.10941">
        <ele>177</ele>
        <time>2017-06-20T17:20:49Z</time>
      </trkpt>
      <trkpt lat="49.48475" lon="1.10943">
        <ele>177</ele>
        <time>2017-06-20T17:20:49Z</time>
      </trkpt>
      <trkpt lat="49.48474" lon="1.10936">
        <ele>177</ele>
        <time>2017-06-20T17:20:49Z</time>
      </trkpt>
      <trkpt lat="49.48469" lon="1.10931">
        <ele>177</ele>
        <time>2017-06-20T17:20:49Z</time>
      </trkpt>
    </trkseg>
  </trk>
</gpx>